<?xml version="1.0" encoding="UTF-8" standalone="no" ?>
<gpx xmlns="http://www.topografix.com/GPX/1/1" xmlns:xsi="http://www.w3.org/2001/XMLSchema-instance" xsi:schemaLocation="http://www.topografix.com/GPX/1/1 http://www.topografix.com/GPX/1/1/gpx.xsd" version="1.1" creator="VisuGPX - https://www.visugpx.com">
  <metadata>
    <name>151015ROBBenjamins</name>
    <desc><![CDATA[Travail technique]]></desc>
  </metadata>
  <trk>
    <name><![CDATA[151014ROBBenjamins]]></name>
    <trkseg>
      <trkpt lat="43.39719" lon="6.07927">
        <ele>243.60000610352</ele>
        <time>2015-10-14T12:23:01Z</time>
      </trkpt>
      <trkpt lat="43.39719" lon="6.07926">
        <ele>243.80000305176</ele>
        <time>2015-10-14T12:23:05Z</time>
      </trkpt>
      <trkpt lat="43.39716" lon="6.07924">
        <ele>243.80000305176</ele>
        <time>2015-10-14T12:23:08Z</time>
      </trkpt>
      <trkpt lat="43.39713" lon="6.07921">
        <ele>244.19999694824</ele>
        <time>2015-10-14T12:23:10Z</time>
      </trkpt>
      <trkpt lat="43.3971" lon="6.07915">
        <ele>244.39999389648</ele>
        <time>2015-10-14T12:23:13Z</time>
      </trkpt>
      <trkpt lat="43.39706" lon="6.07909">
        <ele>245.19999694824</ele>
        <time>2015-10-14T12:23:16Z</time>
      </trkpt>
      <trkpt lat="43.39703" lon="6.07907">
        <ele>246.19999694824</ele>
        <time>2015-10-14T12:23:18Z</time>
      </trkpt>
      <trkpt lat="43.39698" lon="6.07901">
        <ele>246.60000610352</ele>
        <time>2015-10-14T12:23:21Z</time>
      </trkpt>
      <trkpt lat="43.39695" lon="6.07898">
        <ele>247</ele>
        <time>2015-10-14T12:23:23Z</time>
      </trkpt>
      <trkpt lat="43.3969" lon="6.07894">
        <ele>247.60000610352</ele>
        <time>2015-10-14T12:23:26Z</time>
      </trkpt>
      <trkpt lat="43.39679" lon="6.07889">
        <ele>248.39999389648</ele>
        <time>2015-10-14T12:23:31Z</time>
      </trkpt>
      <trkpt lat="43.39662" lon="6.07888">
        <ele>249.39999389648</ele>
        <time>2015-10-14T12:23:38Z</time>
      </trkpt>
      <trkpt lat="43.3966" lon="6.07888">
        <ele>249.39999389648</ele>
        <time>2015-10-14T12:23:39Z</time>
      </trkpt>
      <trkpt lat="43.39649" lon="6.07888">
        <ele>250</ele>
        <time>2015-10-14T12:23:43Z</time>
      </trkpt>
      <trkpt lat="43.39641" lon="6.07889">
        <ele>250.19999694824</ele>
        <time>2015-10-14T12:23:46Z</time>
      </trkpt>
      <trkpt lat="43.39632" lon="6.07891">
        <ele>250.39999389648</ele>
        <time>2015-10-14T12:23:49Z</time>
      </trkpt>
      <trkpt lat="43.39624" lon="6.07894">
        <ele>250.80000305176</ele>
        <time>2015-10-14T12:23:52Z</time>
      </trkpt>
      <trkpt lat="43.39613" lon="6.07898">
        <ele>251.39999389648</ele>
        <time>2015-10-14T12:23:56Z</time>
      </trkpt>
      <trkpt lat="43.3961" lon="6.07899">
        <ele>251.39999389648</ele>
        <time>2015-10-14T12:23:57Z</time>
      </trkpt>
      <trkpt lat="43.39598" lon="6.07901">
        <ele>253</ele>
        <time>2015-10-14T12:24:02Z</time>
      </trkpt>
      <trkpt lat="43.39593" lon="6.07902">
        <ele>254</ele>
        <time>2015-10-14T12:24:05Z</time>
      </trkpt>
      <trkpt lat="43.39589" lon="6.07904">
        <ele>254.39999389648</ele>
        <time>2015-10-14T12:24:08Z</time>
      </trkpt>
      <trkpt lat="43.39587" lon="6.07906">
        <ele>254.60000610352</ele>
        <time>2015-10-14T12:24:11Z</time>
      </trkpt>
      <trkpt lat="43.39585" lon="6.07909">
        <ele>254.80000305176</ele>
        <time>2015-10-14T12:24:13Z</time>
      </trkpt>
      <trkpt lat="43.39584" lon="6.07911">
        <ele>255</ele>
        <time>2015-10-14T12:24:15Z</time>
      </trkpt>
      <trkpt lat="43.39584" lon="6.07911">
        <ele>254.80000305176</ele>
        <time>2015-10-14T12:24:20Z</time>
      </trkpt>
      <trkpt lat="43.39584" lon="6.07912">
        <ele>254.80000305176</ele>
        <time>2015-10-14T12:24:26Z</time>
      </trkpt>
      <trkpt lat="43.39584" lon="6.07912">
        <ele>254.80000305176</ele>
        <time>2015-10-14T12:24:32Z</time>
      </trkpt>
      <trkpt lat="43.39584" lon="6.07914">
        <ele>255.19999694824</ele>
        <time>2015-10-14T12:24:37Z</time>
      </trkpt>
      <trkpt lat="43.39584" lon="6.07914">
        <ele>255</ele>
        <time>2015-10-14T12:24:40Z</time>
      </trkpt>
      <trkpt lat="43.39583" lon="6.07915">
        <ele>255.19999694824</ele>
        <time>2015-10-14T12:24:45Z</time>
      </trkpt>
      <trkpt lat="43.39583" lon="6.07916">
        <ele>255.19999694824</ele>
        <time>2015-10-14T12:24:49Z</time>
      </trkpt>
      <trkpt lat="43.39582" lon="6.07917">
        <ele>255.19999694824</ele>
        <time>2015-10-14T12:24:52Z</time>
      </trkpt>
      <trkpt lat="43.39582" lon="6.07918">
        <ele>255</ele>
        <time>2015-10-14T12:25:06Z</time>
      </trkpt>
      <trkpt lat="43.39582" lon="6.07918">
        <ele>255</ele>
        <time>2015-10-14T12:25:09Z</time>
      </trkpt>
      <trkpt lat="43.39582" lon="6.07918">
        <ele>255.19999694824</ele>
        <time>2015-10-14T12:25:20Z</time>
      </trkpt>
      <trkpt lat="43.39581" lon="6.07921">
        <ele>255</ele>
        <time>2015-10-14T12:25:30Z</time>
      </trkpt>
      <trkpt lat="43.39581" lon="6.07922">
        <ele>255.19999694824</ele>
        <time>2015-10-14T12:25:32Z</time>
      </trkpt>
      <trkpt lat="43.39581" lon="6.07922">
        <ele>255.19999694824</ele>
        <time>2015-10-14T12:25:40Z</time>
      </trkpt>
      <trkpt lat="43.39579" lon="6.07926">
        <ele>255.39999389648</ele>
        <time>2015-10-14T12:25:44Z</time>
      </trkpt>
      <trkpt lat="43.39577" lon="6.0793">
        <ele>255.60000610352</ele>
        <time>2015-10-14T12:25:46Z</time>
      </trkpt>
      <trkpt lat="43.39571" lon="6.07936">
        <ele>256.39999389648</ele>
        <time>2015-10-14T12:25:50Z</time>
      </trkpt>
      <trkpt lat="43.39569" lon="6.07936">
        <ele>256.60000610352</ele>
        <time>2015-10-14T12:25:51Z</time>
      </trkpt>
      <trkpt lat="43.39563" lon="6.07937">
        <ele>257.60000610352</ele>
        <time>2015-10-14T12:25:54Z</time>
      </trkpt>
      <trkpt lat="43.39559" lon="6.07938">
        <ele>258.20001220703</ele>
        <time>2015-10-14T12:25:56Z</time>
      </trkpt>
      <trkpt lat="43.39553" lon="6.07939">
        <ele>258.79998779297</ele>
        <time>2015-10-14T12:25:59Z</time>
      </trkpt>
      <trkpt lat="43.39546" lon="6.07943">
        <ele>259.79998779297</ele>
        <time>2015-10-14T12:26:03Z</time>
      </trkpt>
      <trkpt lat="43.39539" lon="6.07948">
        <ele>260.20001220703</ele>
        <time>2015-10-14T12:26:07Z</time>
      </trkpt>
      <trkpt lat="43.39535" lon="6.07949">
        <ele>260.79998779297</ele>
        <time>2015-10-14T12:26:09Z</time>
      </trkpt>
      <trkpt lat="43.39526" lon="6.07953">
        <ele>262</ele>
        <time>2015-10-14T12:26:14Z</time>
      </trkpt>
      <trkpt lat="43.39515" lon="6.07957">
        <ele>263</ele>
        <time>2015-10-14T12:26:20Z</time>
      </trkpt>
      <trkpt lat="43.39511" lon="6.07957">
        <ele>263.20001220703</ele>
        <time>2015-10-14T12:26:22Z</time>
      </trkpt>
      <trkpt lat="43.39503" lon="6.07961">
        <ele>263.79998779297</ele>
        <time>2015-10-14T12:26:27Z</time>
      </trkpt>
      <trkpt lat="43.39499" lon="6.07962">
        <ele>264</ele>
        <time>2015-10-14T12:26:30Z</time>
      </trkpt>
      <trkpt lat="43.39491" lon="6.07961">
        <ele>264</ele>
        <time>2015-10-14T12:26:34Z</time>
      </trkpt>
      <trkpt lat="43.39492" lon="6.07961">
        <ele>264</ele>
        <time>2015-10-14T12:26:38Z</time>
      </trkpt>
      <trkpt lat="43.39492" lon="6.07961">
        <ele>264</ele>
        <time>2015-10-14T12:26:39Z</time>
      </trkpt>
      <trkpt lat="43.39491" lon="6.07963">
        <ele>263.20001220703</ele>
        <time>2015-10-14T12:26:51Z</time>
      </trkpt>
      <trkpt lat="43.3949" lon="6.07963">
        <ele>263.39999389648</ele>
        <time>2015-10-14T12:27:01Z</time>
      </trkpt>
      <trkpt lat="43.3949" lon="6.07963">
        <ele>263.20001220703</ele>
        <time>2015-10-14T12:27:06Z</time>
      </trkpt>
      <trkpt lat="43.3949" lon="6.07963">
        <ele>263.39999389648</ele>
        <time>2015-10-14T12:27:17Z</time>
      </trkpt>
      <trkpt lat="43.3949" lon="6.07963">
        <ele>263</ele>
        <time>2015-10-14T12:27:42Z</time>
      </trkpt>
      <trkpt lat="43.3949" lon="6.07963">
        <ele>263</ele>
        <time>2015-10-14T12:28:16Z</time>
      </trkpt>
      <trkpt lat="43.3949" lon="6.07963">
        <ele>263.20001220703</ele>
        <time>2015-10-14T12:28:52Z</time>
      </trkpt>
      <trkpt lat="43.39489" lon="6.07963">
        <ele>262.79998779297</ele>
        <time>2015-10-14T12:29:14Z</time>
      </trkpt>
      <trkpt lat="43.39489" lon="6.07964">
        <ele>262.79998779297</ele>
        <time>2015-10-14T12:29:58Z</time>
      </trkpt>
      <trkpt lat="43.39489" lon="6.07964">
        <ele>262.79998779297</ele>
        <time>2015-10-14T12:30:08Z</time>
      </trkpt>
      <trkpt lat="43.39489" lon="6.07964">
        <ele>263.20001220703</ele>
        <time>2015-10-14T12:30:32Z</time>
      </trkpt>
      <trkpt lat="43.39489" lon="6.07964">
        <ele>263</ele>
        <time>2015-10-14T12:31:00Z</time>
      </trkpt>
      <trkpt lat="43.39488" lon="6.07965">
        <ele>264</ele>
        <time>2015-10-14T12:31:05Z</time>
      </trkpt>
      <trkpt lat="43.39488" lon="6.07965">
        <ele>263.79998779297</ele>
        <time>2015-10-14T12:31:09Z</time>
      </trkpt>
      <trkpt lat="43.39488" lon="6.07966">
        <ele>264</ele>
        <time>2015-10-14T12:31:16Z</time>
      </trkpt>
      <trkpt lat="43.39487" lon="6.07966">
        <ele>264</ele>
        <time>2015-10-14T12:31:22Z</time>
      </trkpt>
      <trkpt lat="43.39482" lon="6.0797">
        <ele>264.39999389648</ele>
        <time>2015-10-14T12:31:25Z</time>
      </trkpt>
      <trkpt lat="43.39475" lon="6.07972">
        <ele>264.60000610352</ele>
        <time>2015-10-14T12:31:28Z</time>
      </trkpt>
      <trkpt lat="43.39469" lon="6.07973">
        <ele>265</ele>
        <time>2015-10-14T12:31:30Z</time>
      </trkpt>
      <trkpt lat="43.39464" lon="6.07975">
        <ele>265</ele>
        <time>2015-10-14T12:31:32Z</time>
      </trkpt>
      <trkpt lat="43.3946" lon="6.07976">
        <ele>265.39999389648</ele>
        <time>2015-10-14T12:31:34Z</time>
      </trkpt>
      <trkpt lat="43.39454" lon="6.07978">
        <ele>265.60000610352</ele>
        <time>2015-10-14T12:31:36Z</time>
      </trkpt>
      <trkpt lat="43.39447" lon="6.07981">
        <ele>266</ele>
        <time>2015-10-14T12:31:39Z</time>
      </trkpt>
      <trkpt lat="43.39441" lon="6.07983">
        <ele>266.39999389648</ele>
        <time>2015-10-14T12:31:42Z</time>
      </trkpt>
      <trkpt lat="43.39429" lon="6.07987">
        <ele>267</ele>
        <time>2015-10-14T12:31:48Z</time>
      </trkpt>
      <trkpt lat="43.39426" lon="6.07988">
        <ele>267.39999389648</ele>
        <time>2015-10-14T12:31:50Z</time>
      </trkpt>
      <trkpt lat="43.39411" lon="6.07994">
        <ele>268.39999389648</ele>
        <time>2015-10-14T12:31:58Z</time>
      </trkpt>
      <trkpt lat="43.39402" lon="6.07999">
        <ele>269.39999389648</ele>
        <time>2015-10-14T12:32:04Z</time>
      </trkpt>
      <trkpt lat="43.39397" lon="6.08002">
        <ele>269.79998779297</ele>
        <time>2015-10-14T12:32:07Z</time>
      </trkpt>
      <trkpt lat="43.39395" lon="6.08002">
        <ele>270.20001220703</ele>
        <time>2015-10-14T12:32:09Z</time>
      </trkpt>
      <trkpt lat="43.39393" lon="6.08001">
        <ele>270.20001220703</ele>
        <time>2015-10-14T12:32:11Z</time>
      </trkpt>
      <trkpt lat="43.3939" lon="6.08">
        <ele>270.20001220703</ele>
        <time>2015-10-14T12:32:15Z</time>
      </trkpt>
      <trkpt lat="43.39389" lon="6.08">
        <ele>270.39999389648</ele>
        <time>2015-10-14T12:32:27Z</time>
      </trkpt>
      <trkpt lat="43.39389" lon="6.08">
        <ele>270.60000610352</ele>
        <time>2015-10-14T12:32:42Z</time>
      </trkpt>
      <trkpt lat="43.39389" lon="6.08">
        <ele>270.20001220703</ele>
        <time>2015-10-14T12:32:52Z</time>
      </trkpt>
      <trkpt lat="43.39389" lon="6.08">
        <ele>270.20001220703</ele>
        <time>2015-10-14T12:33:12Z</time>
      </trkpt>
      <trkpt lat="43.39386" lon="6.07998">
        <ele>270.60000610352</ele>
        <time>2015-10-14T12:33:24Z</time>
      </trkpt>
      <trkpt lat="43.39384" lon="6.07998">
        <ele>270.79998779297</ele>
        <time>2015-10-14T12:33:25Z</time>
      </trkpt>
      <trkpt lat="43.39381" lon="6.07994">
        <ele>271.20001220703</ele>
        <time>2015-10-14T12:33:27Z</time>
      </trkpt>
      <trkpt lat="43.3938" lon="6.07989">
        <ele>271.39999389648</ele>
        <time>2015-10-14T12:33:29Z</time>
      </trkpt>
      <trkpt lat="43.39378" lon="6.07984">
        <ele>271.39999389648</ele>
        <time>2015-10-14T12:33:31Z</time>
      </trkpt>
      <trkpt lat="43.39378" lon="6.07981">
        <ele>272.20001220703</ele>
        <time>2015-10-14T12:33:32Z</time>
      </trkpt>
      <trkpt lat="43.39378" lon="6.07974">
        <ele>273</ele>
        <time>2015-10-14T12:33:35Z</time>
      </trkpt>
      <trkpt lat="43.39379" lon="6.07972">
        <ele>273.20001220703</ele>
        <time>2015-10-14T12:33:36Z</time>
      </trkpt>
      <trkpt lat="43.39384" lon="6.07963">
        <ele>273.20001220703</ele>
        <time>2015-10-14T12:33:40Z</time>
      </trkpt>
      <trkpt lat="43.39386" lon="6.07963">
        <ele>273.20001220703</ele>
        <time>2015-10-14T12:33:41Z</time>
      </trkpt>
      <trkpt lat="43.39393" lon="6.07964">
        <ele>273</ele>
        <time>2015-10-14T12:33:44Z</time>
      </trkpt>
      <trkpt lat="43.394" lon="6.07965">
        <ele>272</ele>
        <time>2015-10-14T12:33:49Z</time>
      </trkpt>
      <trkpt lat="43.39401" lon="6.07968">
        <ele>271.60000610352</ele>
        <time>2015-10-14T12:33:50Z</time>
      </trkpt>
      <trkpt lat="43.394" lon="6.07971">
        <ele>271</ele>
        <time>2015-10-14T12:33:52Z</time>
      </trkpt>
      <trkpt lat="43.39403" lon="6.07974">
        <ele>270.20001220703</ele>
        <time>2015-10-14T12:33:54Z</time>
      </trkpt>
      <trkpt lat="43.39404" lon="6.07975">
        <ele>269.79998779297</ele>
        <time>2015-10-14T12:33:55Z</time>
      </trkpt>
      <trkpt lat="43.39407" lon="6.07978">
        <ele>269.39999389648</ele>
        <time>2015-10-14T12:33:57Z</time>
      </trkpt>
      <trkpt lat="43.39412" lon="6.0798">
        <ele>269</ele>
        <time>2015-10-14T12:33:59Z</time>
      </trkpt>
      <trkpt lat="43.39414" lon="6.07978">
        <ele>268.60000610352</ele>
        <time>2015-10-14T12:34:00Z</time>
      </trkpt>
      <trkpt lat="43.39421" lon="6.07977">
        <ele>268.60000610352</ele>
        <time>2015-10-14T12:34:03Z</time>
      </trkpt>
      <trkpt lat="43.39426" lon="6.07976">
        <ele>268.20001220703</ele>
        <time>2015-10-14T12:34:06Z</time>
      </trkpt>
      <trkpt lat="43.39426" lon="6.07977">
        <ele>268.39999389648</ele>
        <time>2015-10-14T12:34:11Z</time>
      </trkpt>
      <trkpt lat="43.39425" lon="6.07977">
        <ele>268.39999389648</ele>
        <time>2015-10-14T12:34:24Z</time>
      </trkpt>
      <trkpt lat="43.39425" lon="6.07977">
        <ele>268.20001220703</ele>
        <time>2015-10-14T12:34:30Z</time>
      </trkpt>
      <trkpt lat="43.39431" lon="6.07976">
        <ele>268</ele>
        <time>2015-10-14T12:34:36Z</time>
      </trkpt>
      <trkpt lat="43.39438" lon="6.07974">
        <ele>267.20001220703</ele>
        <time>2015-10-14T12:34:38Z</time>
      </trkpt>
      <trkpt lat="43.39441" lon="6.07972">
        <ele>266.79998779297</ele>
        <time>2015-10-14T12:34:39Z</time>
      </trkpt>
      <trkpt lat="43.39445" lon="6.07966">
        <ele>266</ele>
        <time>2015-10-14T12:34:41Z</time>
      </trkpt>
      <trkpt lat="43.39449" lon="6.07961">
        <ele>266.20001220703</ele>
        <time>2015-10-14T12:34:43Z</time>
      </trkpt>
      <trkpt lat="43.39458" lon="6.07937">
        <ele>266</ele>
        <time>2015-10-14T12:34:49Z</time>
      </trkpt>
      <trkpt lat="43.39463" lon="6.07915">
        <ele>267.20001220703</ele>
        <time>2015-10-14T12:34:55Z</time>
      </trkpt>
      <trkpt lat="43.39466" lon="6.079">
        <ele>266.79998779297</ele>
        <time>2015-10-14T12:35:00Z</time>
      </trkpt>
      <trkpt lat="43.39463" lon="6.07893">
        <ele>267.60000610352</ele>
        <time>2015-10-14T12:35:04Z</time>
      </trkpt>
      <trkpt lat="43.39462" lon="6.07893">
        <ele>267.79998779297</ele>
        <time>2015-10-14T12:35:05Z</time>
      </trkpt>
      <trkpt lat="43.39457" lon="6.07895">
        <ele>268.20001220703</ele>
        <time>2015-10-14T12:35:08Z</time>
      </trkpt>
      <trkpt lat="43.39456" lon="6.07896">
        <ele>268.20001220703</ele>
        <time>2015-10-14T12:35:09Z</time>
      </trkpt>
      <trkpt lat="43.39454" lon="6.07896">
        <ele>268.39999389648</ele>
        <time>2015-10-14T12:35:10Z</time>
      </trkpt>
      <trkpt lat="43.39451" lon="6.07897">
        <ele>269.60000610352</ele>
        <time>2015-10-14T12:35:12Z</time>
      </trkpt>
      <trkpt lat="43.39447" lon="6.07897">
        <ele>270.39999389648</ele>
        <time>2015-10-14T12:35:15Z</time>
      </trkpt>
      <trkpt lat="43.39446" lon="6.07897">
        <ele>271</ele>
        <time>2015-10-14T12:35:16Z</time>
      </trkpt>
      <trkpt lat="43.39445" lon="6.07897">
        <ele>271.39999389648</ele>
        <time>2015-10-14T12:35:17Z</time>
      </trkpt>
      <trkpt lat="43.39444" lon="6.07899">
        <ele>272</ele>
        <time>2015-10-14T12:35:19Z</time>
      </trkpt>
      <trkpt lat="43.39444" lon="6.07899">
        <ele>272.20001220703</ele>
        <time>2015-10-14T12:35:20Z</time>
      </trkpt>
      <trkpt lat="43.39444" lon="6.07899">
        <ele>272.20001220703</ele>
        <time>2015-10-14T12:35:22Z</time>
      </trkpt>
      <trkpt lat="43.39444" lon="6.07899">
        <ele>272.39999389648</ele>
        <time>2015-10-14T12:35:33Z</time>
      </trkpt>
      <trkpt lat="43.39444" lon="6.07899">
        <ele>272.39999389648</ele>
        <time>2015-10-14T12:35:42Z</time>
      </trkpt>
      <trkpt lat="43.39444" lon="6.07899">
        <ele>272.20001220703</ele>
        <time>2015-10-14T12:35:53Z</time>
      </trkpt>
      <trkpt lat="43.39444" lon="6.07899">
        <ele>272.20001220703</ele>
        <time>2015-10-14T12:36:02Z</time>
      </trkpt>
      <trkpt lat="43.39445" lon="6.07899">
        <ele>272.39999389648</ele>
        <time>2015-10-14T12:36:40Z</time>
      </trkpt>
      <trkpt lat="43.39445" lon="6.07899">
        <ele>272.60000610352</ele>
        <time>2015-10-14T12:36:45Z</time>
      </trkpt>
      <trkpt lat="43.39445" lon="6.07899">
        <ele>272.60000610352</ele>
        <time>2015-10-14T12:36:54Z</time>
      </trkpt>
      <trkpt lat="43.39445" lon="6.07899">
        <ele>272.39999389648</ele>
        <time>2015-10-14T12:37:01Z</time>
      </trkpt>
      <trkpt lat="43.39445" lon="6.07901">
        <ele>272.60000610352</ele>
        <time>2015-10-14T12:37:05Z</time>
      </trkpt>
      <trkpt lat="43.39444" lon="6.07908">
        <ele>272.39999389648</ele>
        <time>2015-10-14T12:37:08Z</time>
      </trkpt>
      <trkpt lat="43.39442" lon="6.07918">
        <ele>272.20001220703</ele>
        <time>2015-10-14T12:37:12Z</time>
      </trkpt>
      <trkpt lat="43.39441" lon="6.07926">
        <ele>272</ele>
        <time>2015-10-14T12:37:14Z</time>
      </trkpt>
      <trkpt lat="43.39436" lon="6.0794">
        <ele>271.20001220703</ele>
        <time>2015-10-14T12:37:18Z</time>
      </trkpt>
      <trkpt lat="43.39437" lon="6.07945">
        <ele>270.60000610352</ele>
        <time>2015-10-14T12:37:20Z</time>
      </trkpt>
      <trkpt lat="43.39438" lon="6.07946">
        <ele>270</ele>
        <time>2015-10-14T12:37:21Z</time>
      </trkpt>
      <trkpt lat="43.39439" lon="6.07946">
        <ele>269.60000610352</ele>
        <time>2015-10-14T12:37:22Z</time>
      </trkpt>
      <trkpt lat="43.39442" lon="6.07944">
        <ele>269</ele>
        <time>2015-10-14T12:37:24Z</time>
      </trkpt>
      <trkpt lat="43.39445" lon="6.07935">
        <ele>269.20001220703</ele>
        <time>2015-10-14T12:37:28Z</time>
      </trkpt>
      <trkpt lat="43.39448" lon="6.0793">
        <ele>269</ele>
        <time>2015-10-14T12:37:30Z</time>
      </trkpt>
      <trkpt lat="43.39451" lon="6.07928">
        <ele>269</ele>
        <time>2015-10-14T12:37:33Z</time>
      </trkpt>
      <trkpt lat="43.39452" lon="6.07931">
        <ele>268.79998779297</ele>
        <time>2015-10-14T12:37:35Z</time>
      </trkpt>
      <trkpt lat="43.39453" lon="6.07935">
        <ele>268.39999389648</ele>
        <time>2015-10-14T12:37:37Z</time>
      </trkpt>
      <trkpt lat="43.39454" lon="6.07937">
        <ele>268</ele>
        <time>2015-10-14T12:37:39Z</time>
      </trkpt>
      <trkpt lat="43.39457" lon="6.07934">
        <ele>267.39999389648</ele>
        <time>2015-10-14T12:37:41Z</time>
      </trkpt>
      <trkpt lat="43.39459" lon="6.07928">
        <ele>267</ele>
        <time>2015-10-14T12:37:43Z</time>
      </trkpt>
      <trkpt lat="43.39462" lon="6.0792">
        <ele>267.20001220703</ele>
        <time>2015-10-14T12:37:46Z</time>
      </trkpt>
      <trkpt lat="43.39465" lon="6.07909">
        <ele>267.79998779297</ele>
        <time>2015-10-14T12:37:52Z</time>
      </trkpt>
      <trkpt lat="43.39464" lon="6.07898">
        <ele>268.20001220703</ele>
        <time>2015-10-14T12:37:57Z</time>
      </trkpt>
      <trkpt lat="43.39463" lon="6.07896">
        <ele>268.60000610352</ele>
        <time>2015-10-14T12:38:02Z</time>
      </trkpt>
      <trkpt lat="43.39463" lon="6.07896">
        <ele>268.39999389648</ele>
        <time>2015-10-14T12:38:14Z</time>
      </trkpt>
      <trkpt lat="43.39463" lon="6.07896">
        <ele>268.39999389648</ele>
        <time>2015-10-14T12:38:25Z</time>
      </trkpt>
      <trkpt lat="43.39463" lon="6.07895">
        <ele>268.20001220703</ele>
        <time>2015-10-14T12:38:35Z</time>
      </trkpt>
      <trkpt lat="43.39463" lon="6.07895">
        <ele>268.20001220703</ele>
        <time>2015-10-14T12:38:37Z</time>
      </trkpt>
      <trkpt lat="43.39463" lon="6.07895">
        <ele>268.20001220703</ele>
        <time>2015-10-14T12:38:45Z</time>
      </trkpt>
      <trkpt lat="43.39463" lon="6.07894">
        <ele>268.20001220703</ele>
        <time>2015-10-14T12:38:49Z</time>
      </trkpt>
      <trkpt lat="43.39463" lon="6.07895">
        <ele>268</ele>
        <time>2015-10-14T12:38:53Z</time>
      </trkpt>
      <trkpt lat="43.39463" lon="6.07895">
        <ele>268</ele>
        <time>2015-10-14T12:39:06Z</time>
      </trkpt>
      <trkpt lat="43.39463" lon="6.07895">
        <ele>268</ele>
        <time>2015-10-14T12:39:16Z</time>
      </trkpt>
      <trkpt lat="43.39463" lon="6.07895">
        <ele>268.20001220703</ele>
        <time>2015-10-14T12:39:35Z</time>
      </trkpt>
      <trkpt lat="43.39463" lon="6.07895">
        <ele>268</ele>
        <time>2015-10-14T12:39:58Z</time>
      </trkpt>
      <trkpt lat="43.39463" lon="6.07895">
        <ele>267.79998779297</ele>
        <time>2015-10-14T12:40:27Z</time>
      </trkpt>
      <trkpt lat="43.39459" lon="6.07896">
        <ele>268.20001220703</ele>
        <time>2015-10-14T12:40:43Z</time>
      </trkpt>
      <trkpt lat="43.39456" lon="6.07897">
        <ele>268.39999389648</ele>
        <time>2015-10-14T12:40:44Z</time>
      </trkpt>
      <trkpt lat="43.39452" lon="6.07898">
        <ele>269.60000610352</ele>
        <time>2015-10-14T12:40:47Z</time>
      </trkpt>
      <trkpt lat="43.39451" lon="6.07898">
        <ele>270</ele>
        <time>2015-10-14T12:40:48Z</time>
      </trkpt>
      <trkpt lat="43.39449" lon="6.07898">
        <ele>270.20001220703</ele>
        <time>2015-10-14T12:40:49Z</time>
      </trkpt>
      <trkpt lat="43.39447" lon="6.07898">
        <ele>271</ele>
        <time>2015-10-14T12:40:51Z</time>
      </trkpt>
      <trkpt lat="43.39446" lon="6.07898">
        <ele>271.39999389648</ele>
        <time>2015-10-14T12:40:52Z</time>
      </trkpt>
      <trkpt lat="43.39447" lon="6.07898">
        <ele>271.60000610352</ele>
        <time>2015-10-14T12:40:53Z</time>
      </trkpt>
      <trkpt lat="43.39447" lon="6.07898">
        <ele>271.60000610352</ele>
        <time>2015-10-14T12:40:55Z</time>
      </trkpt>
      <trkpt lat="43.39446" lon="6.07898">
        <ele>271.39999389648</ele>
        <time>2015-10-14T12:41:02Z</time>
      </trkpt>
      <trkpt lat="43.39445" lon="6.07901">
        <ele>271.79998779297</ele>
        <time>2015-10-14T12:41:05Z</time>
      </trkpt>
      <trkpt lat="43.39445" lon="6.07901">
        <ele>272</ele>
        <time>2015-10-14T12:41:07Z</time>
      </trkpt>
      <trkpt lat="43.39445" lon="6.07901">
        <ele>272.20001220703</ele>
        <time>2015-10-14T12:41:12Z</time>
      </trkpt>
      <trkpt lat="43.39444" lon="6.07903">
        <ele>272.39999389648</ele>
        <time>2015-10-14T12:41:14Z</time>
      </trkpt>
      <trkpt lat="43.39444" lon="6.07904">
        <ele>272.39999389648</ele>
        <time>2015-10-14T12:41:15Z</time>
      </trkpt>
      <trkpt lat="43.39443" lon="6.07916">
        <ele>272.20001220703</ele>
        <time>2015-10-14T12:41:20Z</time>
      </trkpt>
      <trkpt lat="43.39439" lon="6.07931">
        <ele>271.60000610352</ele>
        <time>2015-10-14T12:41:26Z</time>
      </trkpt>
      <trkpt lat="43.39433" lon="6.07947">
        <ele>271.39999389648</ele>
        <time>2015-10-14T12:41:31Z</time>
      </trkpt>
      <trkpt lat="43.39419" lon="6.0796">
        <ele>271</ele>
        <time>2015-10-14T12:41:36Z</time>
      </trkpt>
      <trkpt lat="43.39399" lon="6.07964">
        <ele>271.39999389648</ele>
        <time>2015-10-14T12:41:43Z</time>
      </trkpt>
      <trkpt lat="43.39395" lon="6.07962">
        <ele>272.39999389648</ele>
        <time>2015-10-14T12:41:45Z</time>
      </trkpt>
      <trkpt lat="43.39393" lon="6.07963">
        <ele>272.79998779297</ele>
        <time>2015-10-14T12:41:46Z</time>
      </trkpt>
      <trkpt lat="43.39391" lon="6.07963">
        <ele>273.20001220703</ele>
        <time>2015-10-14T12:41:47Z</time>
      </trkpt>
      <trkpt lat="43.39387" lon="6.07964">
        <ele>273.79998779297</ele>
        <time>2015-10-14T12:41:49Z</time>
      </trkpt>
      <trkpt lat="43.3938" lon="6.07967">
        <ele>274</ele>
        <time>2015-10-14T12:41:54Z</time>
      </trkpt>
      <trkpt lat="43.3937" lon="6.07973">
        <ele>274.60000610352</ele>
        <time>2015-10-14T12:41:58Z</time>
      </trkpt>
      <trkpt lat="43.39367" lon="6.07981">
        <ele>275.39999389648</ele>
        <time>2015-10-14T12:42:03Z</time>
      </trkpt>
      <trkpt lat="43.39365" lon="6.07982">
        <ele>275.39999389648</ele>
        <time>2015-10-14T12:42:09Z</time>
      </trkpt>
      <trkpt lat="43.39365" lon="6.07982">
        <ele>275.79998779297</ele>
        <time>2015-10-14T12:42:18Z</time>
      </trkpt>
      <trkpt lat="43.39366" lon="6.07982">
        <ele>275.60000610352</ele>
        <time>2015-10-14T12:42:22Z</time>
      </trkpt>
      <trkpt lat="43.39365" lon="6.07982">
        <ele>275.39999389648</ele>
        <time>2015-10-14T12:42:26Z</time>
      </trkpt>
      <trkpt lat="43.39365" lon="6.07982">
        <ele>275.60000610352</ele>
        <time>2015-10-14T12:42:32Z</time>
      </trkpt>
      <trkpt lat="43.39365" lon="6.07982">
        <ele>275.60000610352</ele>
        <time>2015-10-14T12:42:35Z</time>
      </trkpt>
      <trkpt lat="43.39365" lon="6.07982">
        <ele>275.39999389648</ele>
        <time>2015-10-14T12:42:46Z</time>
      </trkpt>
      <trkpt lat="43.39366" lon="6.07982">
        <ele>275</ele>
        <time>2015-10-14T12:43:28Z</time>
      </trkpt>
      <trkpt lat="43.39365" lon="6.07981">
        <ele>275</ele>
        <time>2015-10-14T12:43:44Z</time>
      </trkpt>
      <trkpt lat="43.39366" lon="6.07981">
        <ele>275.20001220703</ele>
        <time>2015-10-14T12:43:47Z</time>
      </trkpt>
      <trkpt lat="43.39366" lon="6.07981">
        <ele>275.20001220703</ele>
        <time>2015-10-14T12:43:50Z</time>
      </trkpt>
      <trkpt lat="43.39366" lon="6.07981">
        <ele>275</ele>
        <time>2015-10-14T12:44:09Z</time>
      </trkpt>
      <trkpt lat="43.39366" lon="6.07981">
        <ele>275.20001220703</ele>
        <time>2015-10-14T12:44:18Z</time>
      </trkpt>
      <trkpt lat="43.39366" lon="6.07981">
        <ele>275.20001220703</ele>
        <time>2015-10-14T12:44:28Z</time>
      </trkpt>
      <trkpt lat="43.39365" lon="6.07981">
        <ele>275.20001220703</ele>
        <time>2015-10-14T12:44:41Z</time>
      </trkpt>
      <trkpt lat="43.39365" lon="6.07979">
        <ele>275.60000610352</ele>
        <time>2015-10-14T12:44:43Z</time>
      </trkpt>
      <trkpt lat="43.39365" lon="6.07978">
        <ele>275.60000610352</ele>
        <time>2015-10-14T12:44:49Z</time>
      </trkpt>
      <trkpt lat="43.39365" lon="6.07978">
        <ele>275.39999389648</ele>
        <time>2015-10-14T12:44:57Z</time>
      </trkpt>
      <trkpt lat="43.39365" lon="6.07978">
        <ele>275.60000610352</ele>
        <time>2015-10-14T12:45:18Z</time>
      </trkpt>
      <trkpt lat="43.39365" lon="6.07978">
        <ele>275.60000610352</ele>
        <time>2015-10-14T12:45:35Z</time>
      </trkpt>
      <trkpt lat="43.39365" lon="6.07978">
        <ele>275.39999389648</ele>
        <time>2015-10-14T12:45:53Z</time>
      </trkpt>
      <trkpt lat="43.39365" lon="6.07978">
        <ele>275.60000610352</ele>
        <time>2015-10-14T12:45:57Z</time>
      </trkpt>
      <trkpt lat="43.39365" lon="6.07978">
        <ele>275.39999389648</ele>
        <time>2015-10-14T12:46:11Z</time>
      </trkpt>
      <trkpt lat="43.39365" lon="6.07978">
        <ele>275.39999389648</ele>
        <time>2015-10-14T12:46:23Z</time>
      </trkpt>
      <trkpt lat="43.39365" lon="6.07978">
        <ele>275.20001220703</ele>
        <time>2015-10-14T12:47:06Z</time>
      </trkpt>
      <trkpt lat="43.39365" lon="6.07978">
        <ele>275.39999389648</ele>
        <time>2015-10-14T12:47:22Z</time>
      </trkpt>
      <trkpt lat="43.39364" lon="6.07982">
        <ele>275.20001220703</ele>
        <time>2015-10-14T12:47:28Z</time>
      </trkpt>
      <trkpt lat="43.39362" lon="6.0798">
        <ele>275.20001220703</ele>
        <time>2015-10-14T12:47:34Z</time>
      </trkpt>
      <trkpt lat="43.39363" lon="6.07978">
        <ele>275</ele>
        <time>2015-10-14T12:47:41Z</time>
      </trkpt>
      <trkpt lat="43.39363" lon="6.07978">
        <ele>275.39999389648</ele>
        <time>2015-10-14T12:47:55Z</time>
      </trkpt>
      <trkpt lat="43.39363" lon="6.07978">
        <ele>275.60000610352</ele>
        <time>2015-10-14T12:48:08Z</time>
      </trkpt>
      <trkpt lat="43.39363" lon="6.07977">
        <ele>276</ele>
        <time>2015-10-14T12:48:17Z</time>
      </trkpt>
      <trkpt lat="43.39364" lon="6.07977">
        <ele>275.79998779297</ele>
        <time>2015-10-14T12:48:18Z</time>
      </trkpt>
      <trkpt lat="43.39364" lon="6.07977">
        <ele>275.60000610352</ele>
        <time>2015-10-14T12:48:21Z</time>
      </trkpt>
      <trkpt lat="43.39364" lon="6.07978">
        <ele>275.79998779297</ele>
        <time>2015-10-14T12:48:25Z</time>
      </trkpt>
      <trkpt lat="43.39364" lon="6.07978">
        <ele>275.60000610352</ele>
        <time>2015-10-14T12:48:33Z</time>
      </trkpt>
      <trkpt lat="43.39363" lon="6.07977">
        <ele>275.60000610352</ele>
        <time>2015-10-14T12:49:02Z</time>
      </trkpt>
      <trkpt lat="43.39361" lon="6.07982">
        <ele>275.60000610352</ele>
        <time>2015-10-14T12:49:12Z</time>
      </trkpt>
      <trkpt lat="43.39362" lon="6.07983">
        <ele>275.60000610352</ele>
        <time>2015-10-14T12:49:13Z</time>
      </trkpt>
      <trkpt lat="43.39361" lon="6.07983">
        <ele>275.79998779297</ele>
        <time>2015-10-14T12:49:17Z</time>
      </trkpt>
      <trkpt lat="43.39362" lon="6.07983">
        <ele>275.79998779297</ele>
        <time>2015-10-14T12:49:31Z</time>
      </trkpt>
      <trkpt lat="43.39365" lon="6.07981">
        <ele>275.60000610352</ele>
        <time>2015-10-14T12:49:42Z</time>
      </trkpt>
      <trkpt lat="43.39366" lon="6.07979">
        <ele>275.60000610352</ele>
        <time>2015-10-14T12:49:44Z</time>
      </trkpt>
      <trkpt lat="43.39364" lon="6.07977">
        <ele>275.60000610352</ele>
        <time>2015-10-14T12:49:48Z</time>
      </trkpt>
      <trkpt lat="43.39365" lon="6.07981">
        <ele>275.60000610352</ele>
        <time>2015-10-14T12:49:53Z</time>
      </trkpt>
      <trkpt lat="43.39364" lon="6.07984">
        <ele>275.60000610352</ele>
        <time>2015-10-14T12:49:56Z</time>
      </trkpt>
      <trkpt lat="43.39361" lon="6.07982">
        <ele>275.79998779297</ele>
        <time>2015-10-14T12:49:59Z</time>
      </trkpt>
      <trkpt lat="43.39366" lon="6.07978">
        <ele>275.79998779297</ele>
        <time>2015-10-14T12:50:03Z</time>
      </trkpt>
      <trkpt lat="43.39366" lon="6.07982">
        <ele>275.79998779297</ele>
        <time>2015-10-14T12:50:08Z</time>
      </trkpt>
      <trkpt lat="43.39365" lon="6.07983">
        <ele>275.79998779297</ele>
        <time>2015-10-14T12:50:10Z</time>
      </trkpt>
      <trkpt lat="43.39361" lon="6.07983">
        <ele>275.79998779297</ele>
        <time>2015-10-14T12:50:13Z</time>
      </trkpt>
      <trkpt lat="43.39364" lon="6.07978">
        <ele>276.20001220703</ele>
        <time>2015-10-14T12:50:16Z</time>
      </trkpt>
      <trkpt lat="43.39368" lon="6.07979">
        <ele>275.60000610352</ele>
        <time>2015-10-14T12:50:21Z</time>
      </trkpt>
      <trkpt lat="43.39367" lon="6.07979">
        <ele>275.39999389648</ele>
        <time>2015-10-14T12:50:22Z</time>
      </trkpt>
      <trkpt lat="43.39367" lon="6.0798">
        <ele>275.60000610352</ele>
        <time>2015-10-14T12:50:26Z</time>
      </trkpt>
      <trkpt lat="43.39365" lon="6.07981">
        <ele>275.39999389648</ele>
        <time>2015-10-14T12:50:38Z</time>
      </trkpt>
      <trkpt lat="43.39364" lon="6.07981">
        <ele>275.60000610352</ele>
        <time>2015-10-14T12:50:39Z</time>
      </trkpt>
      <trkpt lat="43.39363" lon="6.07977">
        <ele>276</ele>
        <time>2015-10-14T12:50:42Z</time>
      </trkpt>
      <trkpt lat="43.39364" lon="6.07975">
        <ele>275.79998779297</ele>
        <time>2015-10-14T12:50:43Z</time>
      </trkpt>
      <trkpt lat="43.39368" lon="6.07974">
        <ele>275.79998779297</ele>
        <time>2015-10-14T12:50:46Z</time>
      </trkpt>
      <trkpt lat="43.39368" lon="6.07976">
        <ele>275.79998779297</ele>
        <time>2015-10-14T12:50:47Z</time>
      </trkpt>
      <trkpt lat="43.39364" lon="6.07986">
        <ele>275.60000610352</ele>
        <time>2015-10-14T12:50:50Z</time>
      </trkpt>
      <trkpt lat="43.39362" lon="6.07995">
        <ele>275</ele>
        <time>2015-10-14T12:50:52Z</time>
      </trkpt>
      <trkpt lat="43.3936" lon="6.07996">
        <ele>275</ele>
        <time>2015-10-14T12:50:54Z</time>
      </trkpt>
      <trkpt lat="43.39362" lon="6.07998">
        <ele>275.20001220703</ele>
        <time>2015-10-14T12:50:57Z</time>
      </trkpt>
      <trkpt lat="43.39363" lon="6.07995">
        <ele>275.20001220703</ele>
        <time>2015-10-14T12:50:58Z</time>
      </trkpt>
      <trkpt lat="43.39363" lon="6.07988">
        <ele>275.60000610352</ele>
        <time>2015-10-14T12:51:02Z</time>
      </trkpt>
      <trkpt lat="43.39363" lon="6.07987">
        <ele>276.20001220703</ele>
        <time>2015-10-14T12:51:03Z</time>
      </trkpt>
      <trkpt lat="43.39365" lon="6.07985">
        <ele>276.60000610352</ele>
        <time>2015-10-14T12:51:05Z</time>
      </trkpt>
      <trkpt lat="43.39368" lon="6.07981">
        <ele>276.60000610352</ele>
        <time>2015-10-14T12:51:07Z</time>
      </trkpt>
      <trkpt lat="43.39369" lon="6.07975">
        <ele>276.39999389648</ele>
        <time>2015-10-14T12:51:10Z</time>
      </trkpt>
      <trkpt lat="43.39368" lon="6.07975">
        <ele>276.39999389648</ele>
        <time>2015-10-14T12:51:11Z</time>
      </trkpt>
      <trkpt lat="43.39367" lon="6.07976">
        <ele>276.39999389648</ele>
        <time>2015-10-14T12:51:12Z</time>
      </trkpt>
      <trkpt lat="43.39368" lon="6.07977">
        <ele>276.39999389648</ele>
        <time>2015-10-14T12:51:15Z</time>
      </trkpt>
      <trkpt lat="43.39367" lon="6.0798">
        <ele>276.20001220703</ele>
        <time>2015-10-14T12:51:17Z</time>
      </trkpt>
      <trkpt lat="43.39364" lon="6.07988">
        <ele>276</ele>
        <time>2015-10-14T12:51:19Z</time>
      </trkpt>
      <trkpt lat="43.39362" lon="6.07996">
        <ele>275.60000610352</ele>
        <time>2015-10-14T12:51:22Z</time>
      </trkpt>
      <trkpt lat="43.39363" lon="6.07995">
        <ele>275.39999389648</ele>
        <time>2015-10-14T12:51:23Z</time>
      </trkpt>
      <trkpt lat="43.39364" lon="6.07994">
        <ele>275.20001220703</ele>
        <time>2015-10-14T12:51:27Z</time>
      </trkpt>
      <trkpt lat="43.39363" lon="6.07994">
        <ele>275</ele>
        <time>2015-10-14T12:51:34Z</time>
      </trkpt>
      <trkpt lat="43.39363" lon="6.07994">
        <ele>275</ele>
        <time>2015-10-14T12:51:39Z</time>
      </trkpt>
      <trkpt lat="43.39363" lon="6.07994">
        <ele>275.20001220703</ele>
        <time>2015-10-14T12:51:44Z</time>
      </trkpt>
      <trkpt lat="43.39363" lon="6.07994">
        <ele>275.20001220703</ele>
        <time>2015-10-14T12:51:52Z</time>
      </trkpt>
      <trkpt lat="43.39363" lon="6.07993">
        <ele>275.20001220703</ele>
        <time>2015-10-14T12:51:57Z</time>
      </trkpt>
      <trkpt lat="43.39362" lon="6.07986">
        <ele>275.60000610352</ele>
        <time>2015-10-14T12:52:03Z</time>
      </trkpt>
      <trkpt lat="43.39363" lon="6.07986">
        <ele>275.79998779297</ele>
        <time>2015-10-14T12:52:07Z</time>
      </trkpt>
      <trkpt lat="43.39363" lon="6.07986">
        <ele>275.60000610352</ele>
        <time>2015-10-14T12:52:09Z</time>
      </trkpt>
      <trkpt lat="43.39363" lon="6.07985">
        <ele>275.79998779297</ele>
        <time>2015-10-14T12:52:20Z</time>
      </trkpt>
      <trkpt lat="43.39364" lon="6.07984">
        <ele>275.79998779297</ele>
        <time>2015-10-14T12:52:28Z</time>
      </trkpt>
      <trkpt lat="43.39366" lon="6.07981">
        <ele>276</ele>
        <time>2015-10-14T12:52:30Z</time>
      </trkpt>
      <trkpt lat="43.39367" lon="6.07975">
        <ele>275.79998779297</ele>
        <time>2015-10-14T12:52:33Z</time>
      </trkpt>
      <trkpt lat="43.39365" lon="6.07978">
        <ele>275.79998779297</ele>
        <time>2015-10-14T12:52:35Z</time>
      </trkpt>
      <trkpt lat="43.39363" lon="6.07989">
        <ele>275.20001220703</ele>
        <time>2015-10-14T12:52:39Z</time>
      </trkpt>
      <trkpt lat="43.39361" lon="6.07993">
        <ele>274.79998779297</ele>
        <time>2015-10-14T12:52:40Z</time>
      </trkpt>
      <trkpt lat="43.39361" lon="6.07996">
        <ele>275.20001220703</ele>
        <time>2015-10-14T12:52:42Z</time>
      </trkpt>
      <trkpt lat="43.39363" lon="6.07996">
        <ele>275.20001220703</ele>
        <time>2015-10-14T12:52:43Z</time>
      </trkpt>
      <trkpt lat="43.39362" lon="6.0799">
        <ele>275</ele>
        <time>2015-10-14T12:52:46Z</time>
      </trkpt>
      <trkpt lat="43.39362" lon="6.07985">
        <ele>276</ele>
        <time>2015-10-14T12:52:49Z</time>
      </trkpt>
      <trkpt lat="43.39362" lon="6.07985">
        <ele>276</ele>
        <time>2015-10-14T12:52:50Z</time>
      </trkpt>
      <trkpt lat="43.39362" lon="6.07985">
        <ele>275.79998779297</ele>
        <time>2015-10-14T12:52:53Z</time>
      </trkpt>
      <trkpt lat="43.39362" lon="6.07984">
        <ele>275.20001220703</ele>
        <time>2015-10-14T12:53:00Z</time>
      </trkpt>
      <trkpt lat="43.39362" lon="6.07984">
        <ele>275</ele>
        <time>2015-10-14T12:53:06Z</time>
      </trkpt>
      <trkpt lat="43.39362" lon="6.07984">
        <ele>275.79998779297</ele>
        <time>2015-10-14T12:53:44Z</time>
      </trkpt>
      <trkpt lat="43.39362" lon="6.07984">
        <ele>276</ele>
        <time>2015-10-14T12:54:27Z</time>
      </trkpt>
      <trkpt lat="43.39362" lon="6.07984">
        <ele>276.39999389648</ele>
        <time>2015-10-14T12:55:08Z</time>
      </trkpt>
      <trkpt lat="43.39362" lon="6.07984">
        <ele>276.60000610352</ele>
        <time>2015-10-14T12:55:09Z</time>
      </trkpt>
      <trkpt lat="43.39365" lon="6.07982">
        <ele>276.60000610352</ele>
        <time>2015-10-14T12:55:17Z</time>
      </trkpt>
      <trkpt lat="43.39368" lon="6.07975">
        <ele>276.39999389648</ele>
        <time>2015-10-14T12:55:22Z</time>
      </trkpt>
      <trkpt lat="43.39367" lon="6.07974">
        <ele>276.39999389648</ele>
        <time>2015-10-14T12:55:23Z</time>
      </trkpt>
      <trkpt lat="43.39366" lon="6.07976">
        <ele>276.20001220703</ele>
        <time>2015-10-14T12:55:25Z</time>
      </trkpt>
      <trkpt lat="43.39366" lon="6.07978">
        <ele>276.39999389648</ele>
        <time>2015-10-14T12:55:27Z</time>
      </trkpt>
      <trkpt lat="43.39365" lon="6.07983">
        <ele>276.60000610352</ele>
        <time>2015-10-14T12:55:30Z</time>
      </trkpt>
      <trkpt lat="43.39362" lon="6.07991">
        <ele>276.79998779297</ele>
        <time>2015-10-14T12:55:32Z</time>
      </trkpt>
      <trkpt lat="43.39358" lon="6.07998">
        <ele>275.79998779297</ele>
        <time>2015-10-14T12:55:35Z</time>
      </trkpt>
      <trkpt lat="43.39358" lon="6.07999">
        <ele>275.79998779297</ele>
        <time>2015-10-14T12:55:36Z</time>
      </trkpt>
      <trkpt lat="43.3936" lon="6.07998">
        <ele>275.60000610352</ele>
        <time>2015-10-14T12:55:40Z</time>
      </trkpt>
      <trkpt lat="43.39362" lon="6.07996">
        <ele>275.60000610352</ele>
        <time>2015-10-14T12:55:47Z</time>
      </trkpt>
      <trkpt lat="43.39362" lon="6.07994">
        <ele>275.20001220703</ele>
        <time>2015-10-14T12:55:52Z</time>
      </trkpt>
      <trkpt lat="43.39363" lon="6.07994">
        <ele>275.20001220703</ele>
        <time>2015-10-14T12:55:59Z</time>
      </trkpt>
      <trkpt lat="43.39363" lon="6.07993">
        <ele>275.20001220703</ele>
        <time>2015-10-14T12:56:02Z</time>
      </trkpt>
      <trkpt lat="43.39363" lon="6.07995">
        <ele>275</ele>
        <time>2015-10-14T12:56:08Z</time>
      </trkpt>
      <trkpt lat="43.39363" lon="6.07995">
        <ele>275.20001220703</ele>
        <time>2015-10-14T12:56:15Z</time>
      </trkpt>
      <trkpt lat="43.39363" lon="6.07995">
        <ele>275</ele>
        <time>2015-10-14T12:56:24Z</time>
      </trkpt>
      <trkpt lat="43.39363" lon="6.07995">
        <ele>275.39999389648</ele>
        <time>2015-10-14T12:56:40Z</time>
      </trkpt>
      <trkpt lat="43.39363" lon="6.07994">
        <ele>275.39999389648</ele>
        <time>2015-10-14T12:56:45Z</time>
      </trkpt>
      <trkpt lat="43.39363" lon="6.07994">
        <ele>275.39999389648</ele>
        <time>2015-10-14T12:56:47Z</time>
      </trkpt>
      <trkpt lat="43.39363" lon="6.07994">
        <ele>275.60000610352</ele>
        <time>2015-10-14T12:57:00Z</time>
      </trkpt>
      <trkpt lat="43.39359" lon="6.08">
        <ele>275.60000610352</ele>
        <time>2015-10-14T12:57:09Z</time>
      </trkpt>
      <trkpt lat="43.39358" lon="6.08005">
        <ele>275.60000610352</ele>
        <time>2015-10-14T12:57:12Z</time>
      </trkpt>
      <trkpt lat="43.3936" lon="6.08011">
        <ele>274.39999389648</ele>
        <time>2015-10-14T12:57:16Z</time>
      </trkpt>
      <trkpt lat="43.3936" lon="6.08013">
        <ele>273.79998779297</ele>
        <time>2015-10-14T12:57:17Z</time>
      </trkpt>
      <trkpt lat="43.39362" lon="6.08014">
        <ele>273.60000610352</ele>
        <time>2015-10-14T12:57:18Z</time>
      </trkpt>
      <trkpt lat="43.39364" lon="6.08013">
        <ele>273</ele>
        <time>2015-10-14T12:57:20Z</time>
      </trkpt>
      <trkpt lat="43.39366" lon="6.08012">
        <ele>272.39999389648</ele>
        <time>2015-10-14T12:57:21Z</time>
      </trkpt>
      <trkpt lat="43.39373" lon="6.08006">
        <ele>271.79998779297</ele>
        <time>2015-10-14T12:57:25Z</time>
      </trkpt>
      <trkpt lat="43.39383" lon="6.08005">
        <ele>271.39999389648</ele>
        <time>2015-10-14T12:57:29Z</time>
      </trkpt>
      <trkpt lat="43.39385" lon="6.08006">
        <ele>271.20001220703</ele>
        <time>2015-10-14T12:57:30Z</time>
      </trkpt>
      <trkpt lat="43.39386" lon="6.08006">
        <ele>271.20001220703</ele>
        <time>2015-10-14T12:57:34Z</time>
      </trkpt>
      <trkpt lat="43.39386" lon="6.08007">
        <ele>270.79998779297</ele>
        <time>2015-10-14T12:57:50Z</time>
      </trkpt>
      <trkpt lat="43.39386" lon="6.08006">
        <ele>270.79998779297</ele>
        <time>2015-10-14T12:58:08Z</time>
      </trkpt>
      <trkpt lat="43.39387" lon="6.08008">
        <ele>271</ele>
        <time>2015-10-14T12:58:22Z</time>
      </trkpt>
      <trkpt lat="43.39387" lon="6.08009">
        <ele>271</ele>
        <time>2015-10-14T12:58:23Z</time>
      </trkpt>
      <trkpt lat="43.39386" lon="6.08011">
        <ele>271.39999389648</ele>
        <time>2015-10-14T12:58:27Z</time>
      </trkpt>
      <trkpt lat="43.39387" lon="6.08012">
        <ele>271.39999389648</ele>
        <time>2015-10-14T12:58:42Z</time>
      </trkpt>
      <trkpt lat="43.39382" lon="6.08019">
        <ele>271.79998779297</ele>
        <time>2015-10-14T12:58:46Z</time>
      </trkpt>
      <trkpt lat="43.39381" lon="6.08021">
        <ele>271.79998779297</ele>
        <time>2015-10-14T12:58:47Z</time>
      </trkpt>
      <trkpt lat="43.3938" lon="6.08023">
        <ele>272.20001220703</ele>
        <time>2015-10-14T12:58:48Z</time>
      </trkpt>
      <trkpt lat="43.39371" lon="6.08037">
        <ele>273.39999389648</ele>
        <time>2015-10-14T12:58:56Z</time>
      </trkpt>
      <trkpt lat="43.3936" lon="6.08054">
        <ele>274</ele>
        <time>2015-10-14T12:59:04Z</time>
      </trkpt>
      <trkpt lat="43.39354" lon="6.08065">
        <ele>274.60000610352</ele>
        <time>2015-10-14T12:59:10Z</time>
      </trkpt>
      <trkpt lat="43.39351" lon="6.08071">
        <ele>275</ele>
        <time>2015-10-14T12:59:13Z</time>
      </trkpt>
      <trkpt lat="43.39346" lon="6.0808">
        <ele>276</ele>
        <time>2015-10-14T12:59:20Z</time>
      </trkpt>
      <trkpt lat="43.39341" lon="6.08089">
        <ele>276.60000610352</ele>
        <time>2015-10-14T12:59:27Z</time>
      </trkpt>
      <trkpt lat="43.39341" lon="6.08089">
        <ele>276.60000610352</ele>
        <time>2015-10-14T12:59:28Z</time>
      </trkpt>
      <trkpt lat="43.39333" lon="6.08099">
        <ele>277.79998779297</ele>
        <time>2015-10-14T12:59:36Z</time>
      </trkpt>
      <trkpt lat="43.3933" lon="6.08104">
        <ele>278.20001220703</ele>
        <time>2015-10-14T12:59:39Z</time>
      </trkpt>
      <trkpt lat="43.39324" lon="6.08115">
        <ele>278.60000610352</ele>
        <time>2015-10-14T12:59:46Z</time>
      </trkpt>
      <trkpt lat="43.39322" lon="6.08118">
        <ele>278.79998779297</ele>
        <time>2015-10-14T12:59:48Z</time>
      </trkpt>
      <trkpt lat="43.39319" lon="6.08126">
        <ele>279.79998779297</ele>
        <time>2015-10-14T12:59:54Z</time>
      </trkpt>
      <trkpt lat="43.39315" lon="6.08137">
        <ele>280.20001220703</ele>
        <time>2015-10-14T13:00:00Z</time>
      </trkpt>
      <trkpt lat="43.39312" lon="6.08148">
        <ele>280.79998779297</ele>
        <time>2015-10-14T13:00:05Z</time>
      </trkpt>
      <trkpt lat="43.39312" lon="6.08152">
        <ele>281.20001220703</ele>
        <time>2015-10-14T13:00:07Z</time>
      </trkpt>
      <trkpt lat="43.39311" lon="6.08153">
        <ele>281.39999389648</ele>
        <time>2015-10-14T13:00:08Z</time>
      </trkpt>
      <trkpt lat="43.3931" lon="6.08161">
        <ele>282</ele>
        <time>2015-10-14T13:00:13Z</time>
      </trkpt>
      <trkpt lat="43.39306" lon="6.08173">
        <ele>282.79998779297</ele>
        <time>2015-10-14T13:00:19Z</time>
      </trkpt>
      <trkpt lat="43.39302" lon="6.08183">
        <ele>283.20001220703</ele>
        <time>2015-10-14T13:00:24Z</time>
      </trkpt>
      <trkpt lat="43.39302" lon="6.08184">
        <ele>283.20001220703</ele>
        <time>2015-10-14T13:00:25Z</time>
      </trkpt>
      <trkpt lat="43.39296" lon="6.08197">
        <ele>284.39999389648</ele>
        <time>2015-10-14T13:00:32Z</time>
      </trkpt>
      <trkpt lat="43.39294" lon="6.0821">
        <ele>285.20001220703</ele>
        <time>2015-10-14T13:00:39Z</time>
      </trkpt>
      <trkpt lat="43.39292" lon="6.08215">
        <ele>285.60000610352</ele>
        <time>2015-10-14T13:00:42Z</time>
      </trkpt>
      <trkpt lat="43.3929" lon="6.08223">
        <ele>286</ele>
        <time>2015-10-14T13:00:46Z</time>
      </trkpt>
      <trkpt lat="43.39286" lon="6.08237">
        <ele>286</ele>
        <time>2015-10-14T13:00:53Z</time>
      </trkpt>
      <trkpt lat="43.3928" lon="6.08251">
        <ele>287.20001220703</ele>
        <time>2015-10-14T13:01:01Z</time>
      </trkpt>
      <trkpt lat="43.39278" lon="6.08256">
        <ele>288</ele>
        <time>2015-10-14T13:01:04Z</time>
      </trkpt>
      <trkpt lat="43.39276" lon="6.0826">
        <ele>288.20001220703</ele>
        <time>2015-10-14T13:01:07Z</time>
      </trkpt>
      <trkpt lat="43.39272" lon="6.08266">
        <ele>289.20001220703</ele>
        <time>2015-10-14T13:01:11Z</time>
      </trkpt>
      <trkpt lat="43.39269" lon="6.08272">
        <ele>289</ele>
        <time>2015-10-14T13:01:14Z</time>
      </trkpt>
      <trkpt lat="43.39267" lon="6.08279">
        <ele>289.60000610352</ele>
        <time>2015-10-14T13:01:18Z</time>
      </trkpt>
      <trkpt lat="43.39265" lon="6.08285">
        <ele>290</ele>
        <time>2015-10-14T13:01:22Z</time>
      </trkpt>
      <trkpt lat="43.39264" lon="6.08287">
        <ele>290.20001220703</ele>
        <time>2015-10-14T13:01:23Z</time>
      </trkpt>
      <trkpt lat="43.3926" lon="6.08296">
        <ele>291.20001220703</ele>
        <time>2015-10-14T13:01:28Z</time>
      </trkpt>
      <trkpt lat="43.39257" lon="6.08307">
        <ele>292</ele>
        <time>2015-10-14T13:01:34Z</time>
      </trkpt>
      <trkpt lat="43.39256" lon="6.08312">
        <ele>292.20001220703</ele>
        <time>2015-10-14T13:01:37Z</time>
      </trkpt>
      <trkpt lat="43.39254" lon="6.08316">
        <ele>292.60000610352</ele>
        <time>2015-10-14T13:01:40Z</time>
      </trkpt>
      <trkpt lat="43.39253" lon="6.08325">
        <ele>293.39999389648</ele>
        <time>2015-10-14T13:01:45Z</time>
      </trkpt>
      <trkpt lat="43.39251" lon="6.08331">
        <ele>293.60000610352</ele>
        <time>2015-10-14T13:01:48Z</time>
      </trkpt>
      <trkpt lat="43.39249" lon="6.08343">
        <ele>294.60000610352</ele>
        <time>2015-10-14T13:01:54Z</time>
      </trkpt>
      <trkpt lat="43.39244" lon="6.08355">
        <ele>295.60000610352</ele>
        <time>2015-10-14T13:02:01Z</time>
      </trkpt>
      <trkpt lat="43.39244" lon="6.08357">
        <ele>295.60000610352</ele>
        <time>2015-10-14T13:02:02Z</time>
      </trkpt>
      <trkpt lat="43.39241" lon="6.0837">
        <ele>296.39999389648</ele>
        <time>2015-10-14T13:02:10Z</time>
      </trkpt>
      <trkpt lat="43.3924" lon="6.08374">
        <ele>296.79998779297</ele>
        <time>2015-10-14T13:02:12Z</time>
      </trkpt>
      <trkpt lat="43.39239" lon="6.08375">
        <ele>297.20001220703</ele>
        <time>2015-10-14T13:02:13Z</time>
      </trkpt>
      <trkpt lat="43.39236" lon="6.08381">
        <ele>297.60000610352</ele>
        <time>2015-10-14T13:02:17Z</time>
      </trkpt>
      <trkpt lat="43.39235" lon="6.08387">
        <ele>298</ele>
        <time>2015-10-14T13:02:21Z</time>
      </trkpt>
      <trkpt lat="43.39234" lon="6.08392">
        <ele>298.39999389648</ele>
        <time>2015-10-14T13:02:24Z</time>
      </trkpt>
      <trkpt lat="43.39233" lon="6.08402">
        <ele>299.20001220703</ele>
        <time>2015-10-14T13:02:30Z</time>
      </trkpt>
      <trkpt lat="43.39233" lon="6.08403">
        <ele>299.20001220703</ele>
        <time>2015-10-14T13:02:31Z</time>
      </trkpt>
      <trkpt lat="43.39231" lon="6.08412">
        <ele>299.79998779297</ele>
        <time>2015-10-14T13:02:37Z</time>
      </trkpt>
      <trkpt lat="43.3923" lon="6.08417">
        <ele>300.20001220703</ele>
        <time>2015-10-14T13:02:40Z</time>
      </trkpt>
      <trkpt lat="43.39229" lon="6.08421">
        <ele>300.60000610352</ele>
        <time>2015-10-14T13:02:43Z</time>
      </trkpt>
      <trkpt lat="43.39229" lon="6.08424">
        <ele>301.20001220703</ele>
        <time>2015-10-14T13:02:45Z</time>
      </trkpt>
      <trkpt lat="43.39228" lon="6.08425">
        <ele>301.20001220703</ele>
        <time>2015-10-14T13:02:46Z</time>
      </trkpt>
      <trkpt lat="43.39228" lon="6.08431">
        <ele>301.20001220703</ele>
        <time>2015-10-14T13:02:49Z</time>
      </trkpt>
      <trkpt lat="43.39226" lon="6.08435">
        <ele>302</ele>
        <time>2015-10-14T13:02:52Z</time>
      </trkpt>
      <trkpt lat="43.39225" lon="6.0844">
        <ele>302.20001220703</ele>
        <time>2015-10-14T13:02:55Z</time>
      </trkpt>
      <trkpt lat="43.39223" lon="6.08449">
        <ele>303.39999389648</ele>
        <time>2015-10-14T13:03:01Z</time>
      </trkpt>
      <trkpt lat="43.39222" lon="6.08453">
        <ele>303.60000610352</ele>
        <time>2015-10-14T13:03:04Z</time>
      </trkpt>
      <trkpt lat="43.3922" lon="6.08464">
        <ele>304.60000610352</ele>
        <time>2015-10-14T13:03:11Z</time>
      </trkpt>
      <trkpt lat="43.39217" lon="6.08473">
        <ele>305.79998779297</ele>
        <time>2015-10-14T13:03:17Z</time>
      </trkpt>
      <trkpt lat="43.39214" lon="6.08477">
        <ele>306.39999389648</ele>
        <time>2015-10-14T13:03:20Z</time>
      </trkpt>
      <trkpt lat="43.39212" lon="6.08484">
        <ele>306.39999389648</ele>
        <time>2015-10-14T13:03:25Z</time>
      </trkpt>
      <trkpt lat="43.39212" lon="6.08486">
        <ele>306.79998779297</ele>
        <time>2015-10-14T13:03:27Z</time>
      </trkpt>
      <trkpt lat="43.39208" lon="6.08494">
        <ele>307</ele>
        <time>2015-10-14T13:03:35Z</time>
      </trkpt>
      <trkpt lat="43.39208" lon="6.08494">
        <ele>307</ele>
        <time>2015-10-14T13:03:37Z</time>
      </trkpt>
      <trkpt lat="43.39208" lon="6.08494">
        <ele>307</ele>
        <time>2015-10-14T13:03:40Z</time>
      </trkpt>
      <trkpt lat="43.39209" lon="6.08494">
        <ele>307</ele>
        <time>2015-10-14T13:03:45Z</time>
      </trkpt>
      <trkpt lat="43.39209" lon="6.08494">
        <ele>306.60000610352</ele>
        <time>2015-10-14T13:03:53Z</time>
      </trkpt>
      <trkpt lat="43.39209" lon="6.08494">
        <ele>307</ele>
        <time>2015-10-14T13:04:11Z</time>
      </trkpt>
      <trkpt lat="43.39209" lon="6.08494">
        <ele>307</ele>
        <time>2015-10-14T13:04:44Z</time>
      </trkpt>
      <trkpt lat="43.39209" lon="6.08495">
        <ele>306.79998779297</ele>
        <time>2015-10-14T13:08:52Z</time>
      </trkpt>
      <trkpt lat="43.39209" lon="6.08495">
        <ele>306.60000610352</ele>
        <time>2015-10-14T13:09:12Z</time>
      </trkpt>
      <trkpt lat="43.39209" lon="6.08495">
        <ele>306.79998779297</ele>
        <time>2015-10-14T13:09:38Z</time>
      </trkpt>
      <trkpt lat="43.39209" lon="6.08495">
        <ele>306.79998779297</ele>
        <time>2015-10-14T13:09:50Z</time>
      </trkpt>
      <trkpt lat="43.39209" lon="6.08495">
        <ele>307</ele>
        <time>2015-10-14T13:09:57Z</time>
      </trkpt>
      <trkpt lat="43.39206" lon="6.08498">
        <ele>307.20001220703</ele>
        <time>2015-10-14T13:10:05Z</time>
      </trkpt>
      <trkpt lat="43.39205" lon="6.085">
        <ele>307.20001220703</ele>
        <time>2015-10-14T13:10:06Z</time>
      </trkpt>
      <trkpt lat="43.39201" lon="6.08506">
        <ele>307</ele>
        <time>2015-10-14T13:10:09Z</time>
      </trkpt>
      <trkpt lat="43.39197" lon="6.08509">
        <ele>306.60000610352</ele>
        <time>2015-10-14T13:10:11Z</time>
      </trkpt>
      <trkpt lat="43.39196" lon="6.08512">
        <ele>306</ele>
        <time>2015-10-14T13:10:12Z</time>
      </trkpt>
      <trkpt lat="43.39188" lon="6.08533">
        <ele>306.39999389648</ele>
        <time>2015-10-14T13:10:18Z</time>
      </trkpt>
      <trkpt lat="43.39181" lon="6.08555">
        <ele>305.79998779297</ele>
        <time>2015-10-14T13:10:22Z</time>
      </trkpt>
      <trkpt lat="43.39179" lon="6.08561">
        <ele>305.20001220703</ele>
        <time>2015-10-14T13:10:23Z</time>
      </trkpt>
      <trkpt lat="43.39177" lon="6.08572">
        <ele>305.39999389648</ele>
        <time>2015-10-14T13:10:25Z</time>
      </trkpt>
      <trkpt lat="43.3917" lon="6.08608">
        <ele>304.60000610352</ele>
        <time>2015-10-14T13:10:32Z</time>
      </trkpt>
      <trkpt lat="43.39165" lon="6.08624">
        <ele>304.39999389648</ele>
        <time>2015-10-14T13:10:35Z</time>
      </trkpt>
      <trkpt lat="43.39162" lon="6.08636">
        <ele>304.20001220703</ele>
        <time>2015-10-14T13:10:37Z</time>
      </trkpt>
      <trkpt lat="43.3916" lon="6.08647">
        <ele>304.20001220703</ele>
        <time>2015-10-14T13:10:39Z</time>
      </trkpt>
      <trkpt lat="43.39155" lon="6.08663">
        <ele>305</ele>
        <time>2015-10-14T13:10:42Z</time>
      </trkpt>
      <trkpt lat="43.39154" lon="6.08669">
        <ele>304.79998779297</ele>
        <time>2015-10-14T13:10:43Z</time>
      </trkpt>
      <trkpt lat="43.39151" lon="6.08696">
        <ele>304.60000610352</ele>
        <time>2015-10-14T13:10:48Z</time>
      </trkpt>
      <trkpt lat="43.39146" lon="6.08725">
        <ele>305.20001220703</ele>
        <time>2015-10-14T13:10:54Z</time>
      </trkpt>
      <trkpt lat="43.39137" lon="6.08757">
        <ele>306</ele>
        <time>2015-10-14T13:11:01Z</time>
      </trkpt>
      <trkpt lat="43.3913" lon="6.08786">
        <ele>305.60000610352</ele>
        <time>2015-10-14T13:11:07Z</time>
      </trkpt>
      <trkpt lat="43.39128" lon="6.0879">
        <ele>306.39999389648</ele>
        <time>2015-10-14T13:11:08Z</time>
      </trkpt>
      <trkpt lat="43.39122" lon="6.08819">
        <ele>306.60000610352</ele>
        <time>2015-10-14T13:11:14Z</time>
      </trkpt>
      <trkpt lat="43.39117" lon="6.08843">
        <ele>306.79998779297</ele>
        <time>2015-10-14T13:11:19Z</time>
      </trkpt>
      <trkpt lat="43.39112" lon="6.08866">
        <ele>307.39999389648</ele>
        <time>2015-10-14T13:11:25Z</time>
      </trkpt>
      <trkpt lat="43.39111" lon="6.08873">
        <ele>307.20001220703</ele>
        <time>2015-10-14T13:11:27Z</time>
      </trkpt>
      <trkpt lat="43.39109" lon="6.08883">
        <ele>307.39999389648</ele>
        <time>2015-10-14T13:11:30Z</time>
      </trkpt>
      <trkpt lat="43.39104" lon="6.08911">
        <ele>308.20001220703</ele>
        <time>2015-10-14T13:11:37Z</time>
      </trkpt>
      <trkpt lat="43.39098" lon="6.08933">
        <ele>308.39999389648</ele>
        <time>2015-10-14T13:11:43Z</time>
      </trkpt>
      <trkpt lat="43.39095" lon="6.08945">
        <ele>308.39999389648</ele>
        <time>2015-10-14T13:11:46Z</time>
      </trkpt>
      <trkpt lat="43.39088" lon="6.08967">
        <ele>308.39999389648</ele>
        <time>2015-10-14T13:11:52Z</time>
      </trkpt>
      <trkpt lat="43.39087" lon="6.0897">
        <ele>309</ele>
        <time>2015-10-14T13:11:54Z</time>
      </trkpt>
      <trkpt lat="43.39087" lon="6.08973">
        <ele>309</ele>
        <time>2015-10-14T13:11:55Z</time>
      </trkpt>
      <trkpt lat="43.39078" lon="6.08994">
        <ele>308.39999389648</ele>
        <time>2015-10-14T13:12:02Z</time>
      </trkpt>
      <trkpt lat="43.39074" lon="6.09003">
        <ele>309.39999389648</ele>
        <time>2015-10-14T13:12:05Z</time>
      </trkpt>
      <trkpt lat="43.39071" lon="6.0901">
        <ele>309.60000610352</ele>
        <time>2015-10-14T13:12:07Z</time>
      </trkpt>
      <trkpt lat="43.39062" lon="6.09031">
        <ele>310</ele>
        <time>2015-10-14T13:12:14Z</time>
      </trkpt>
      <trkpt lat="43.39054" lon="6.09051">
        <ele>310.20001220703</ele>
        <time>2015-10-14T13:12:19Z</time>
      </trkpt>
      <trkpt lat="43.3905" lon="6.09058">
        <ele>310.79998779297</ele>
        <time>2015-10-14T13:12:21Z</time>
      </trkpt>
      <trkpt lat="43.39043" lon="6.09077">
        <ele>310.79998779297</ele>
        <time>2015-10-14T13:12:26Z</time>
      </trkpt>
      <trkpt lat="43.39042" lon="6.09081">
        <ele>311</ele>
        <time>2015-10-14T13:12:27Z</time>
      </trkpt>
      <trkpt lat="43.39034" lon="6.09104">
        <ele>311.79998779297</ele>
        <time>2015-10-14T13:12:33Z</time>
      </trkpt>
      <trkpt lat="43.39033" lon="6.09107">
        <ele>311.79998779297</ele>
        <time>2015-10-14T13:12:34Z</time>
      </trkpt>
      <trkpt lat="43.39027" lon="6.09131">
        <ele>312.60000610352</ele>
        <time>2015-10-14T13:12:40Z</time>
      </trkpt>
      <trkpt lat="43.39019" lon="6.09159">
        <ele>312.20001220703</ele>
        <time>2015-10-14T13:12:47Z</time>
      </trkpt>
      <trkpt lat="43.39016" lon="6.0917">
        <ele>312.79998779297</ele>
        <time>2015-10-14T13:12:50Z</time>
      </trkpt>
      <trkpt lat="43.39013" lon="6.09186">
        <ele>313.60000610352</ele>
        <time>2015-10-14T13:12:54Z</time>
      </trkpt>
      <trkpt lat="43.39011" lon="6.09195">
        <ele>314</ele>
        <time>2015-10-14T13:12:56Z</time>
      </trkpt>
      <trkpt lat="43.39006" lon="6.0922">
        <ele>314.20001220703</ele>
        <time>2015-10-14T13:13:01Z</time>
      </trkpt>
      <trkpt lat="43.38996" lon="6.09253">
        <ele>314.39999389648</ele>
        <time>2015-10-14T13:13:08Z</time>
      </trkpt>
      <trkpt lat="43.38988" lon="6.09276">
        <ele>315.20001220703</ele>
        <time>2015-10-14T13:13:14Z</time>
      </trkpt>
      <trkpt lat="43.38983" lon="6.09284">
        <ele>316.20001220703</ele>
        <time>2015-10-14T13:13:17Z</time>
      </trkpt>
      <trkpt lat="43.38979" lon="6.09292">
        <ele>316.39999389648</ele>
        <time>2015-10-14T13:13:20Z</time>
      </trkpt>
      <trkpt lat="43.38969" lon="6.09312">
        <ele>317</ele>
        <time>2015-10-14T13:13:27Z</time>
      </trkpt>
      <trkpt lat="43.38967" lon="6.09317">
        <ele>317</ele>
        <time>2015-10-14T13:13:29Z</time>
      </trkpt>
      <trkpt lat="43.38958" lon="6.09334">
        <ele>318</ele>
        <time>2015-10-14T13:13:35Z</time>
      </trkpt>
      <trkpt lat="43.38952" lon="6.09341">
        <ele>318.20001220703</ele>
        <time>2015-10-14T13:13:39Z</time>
      </trkpt>
      <trkpt lat="43.3895" lon="6.09342">
        <ele>318.20001220703</ele>
        <time>2015-10-14T13:13:40Z</time>
      </trkpt>
      <trkpt lat="43.3894" lon="6.09355">
        <ele>318.39999389648</ele>
        <time>2015-10-14T13:13:46Z</time>
      </trkpt>
      <trkpt lat="43.38929" lon="6.09367">
        <ele>318.60000610352</ele>
        <time>2015-10-14T13:13:51Z</time>
      </trkpt>
      <trkpt lat="43.38923" lon="6.09372">
        <ele>319.20001220703</ele>
        <time>2015-10-14T13:13:54Z</time>
      </trkpt>
      <trkpt lat="43.38919" lon="6.09378">
        <ele>320.20001220703</ele>
        <time>2015-10-14T13:13:57Z</time>
      </trkpt>
      <trkpt lat="43.38918" lon="6.0938">
        <ele>320.20001220703</ele>
        <time>2015-10-14T13:13:58Z</time>
      </trkpt>
      <trkpt lat="43.38914" lon="6.09385">
        <ele>320.60000610352</ele>
        <time>2015-10-14T13:14:02Z</time>
      </trkpt>
      <trkpt lat="43.38911" lon="6.09388">
        <ele>321.60000610352</ele>
        <time>2015-10-14T13:14:04Z</time>
      </trkpt>
      <trkpt lat="43.3891" lon="6.0939">
        <ele>321.79998779297</ele>
        <time>2015-10-14T13:14:05Z</time>
      </trkpt>
      <trkpt lat="43.38904" lon="6.09396">
        <ele>322.20001220703</ele>
        <time>2015-10-14T13:14:10Z</time>
      </trkpt>
      <trkpt lat="43.38901" lon="6.094">
        <ele>322.60000610352</ele>
        <time>2015-10-14T13:14:13Z</time>
      </trkpt>
      <trkpt lat="43.389" lon="6.09401">
        <ele>323</ele>
        <time>2015-10-14T13:14:15Z</time>
      </trkpt>
      <trkpt lat="43.389" lon="6.09402">
        <ele>323.20001220703</ele>
        <time>2015-10-14T13:14:17Z</time>
      </trkpt>
      <trkpt lat="43.38898" lon="6.09404">
        <ele>323.20001220703</ele>
        <time>2015-10-14T13:14:27Z</time>
      </trkpt>
      <trkpt lat="43.38898" lon="6.09405">
        <ele>323.20001220703</ele>
        <time>2015-10-14T13:14:33Z</time>
      </trkpt>
      <trkpt lat="43.38897" lon="6.09406">
        <ele>323.39999389648</ele>
        <time>2015-10-14T13:14:38Z</time>
      </trkpt>
      <trkpt lat="43.38896" lon="6.09407">
        <ele>323.60000610352</ele>
        <time>2015-10-14T13:14:47Z</time>
      </trkpt>
      <trkpt lat="43.38896" lon="6.09407">
        <ele>323.60000610352</ele>
        <time>2015-10-14T13:14:52Z</time>
      </trkpt>
      <trkpt lat="43.38896" lon="6.09407">
        <ele>323.60000610352</ele>
        <time>2015-10-14T13:14:55Z</time>
      </trkpt>
      <trkpt lat="43.38897" lon="6.09409">
        <ele>323.60000610352</ele>
        <time>2015-10-14T13:15:03Z</time>
      </trkpt>
      <trkpt lat="43.38897" lon="6.09409">
        <ele>323.79998779297</ele>
        <time>2015-10-14T13:15:08Z</time>
      </trkpt>
      <trkpt lat="43.38897" lon="6.09409">
        <ele>323.79998779297</ele>
        <time>2015-10-14T13:15:21Z</time>
      </trkpt>
      <trkpt lat="43.38897" lon="6.09409">
        <ele>323.60000610352</ele>
        <time>2015-10-14T13:15:31Z</time>
      </trkpt>
      <trkpt lat="43.38897" lon="6.0941">
        <ele>323.79998779297</ele>
        <time>2015-10-14T13:15:45Z</time>
      </trkpt>
      <trkpt lat="43.38897" lon="6.09415">
        <ele>324</ele>
        <time>2015-10-14T13:15:51Z</time>
      </trkpt>
      <trkpt lat="43.38895" lon="6.09418">
        <ele>324.39999389648</ele>
        <time>2015-10-14T13:15:53Z</time>
      </trkpt>
      <trkpt lat="43.38894" lon="6.09418">
        <ele>324.79998779297</ele>
        <time>2015-10-14T13:15:54Z</time>
      </trkpt>
      <trkpt lat="43.38893" lon="6.09418">
        <ele>325</ele>
        <time>2015-10-14T13:15:56Z</time>
      </trkpt>
      <trkpt lat="43.38893" lon="6.09418">
        <ele>325.20001220703</ele>
        <time>2015-10-14T13:15:58Z</time>
      </trkpt>
      <trkpt lat="43.38891" lon="6.09418">
        <ele>325.39999389648</ele>
        <time>2015-10-14T13:16:02Z</time>
      </trkpt>
      <trkpt lat="43.3889" lon="6.09419">
        <ele>326</ele>
        <time>2015-10-14T13:16:05Z</time>
      </trkpt>
      <trkpt lat="43.38889" lon="6.09419">
        <ele>326.20001220703</ele>
        <time>2015-10-14T13:16:08Z</time>
      </trkpt>
      <trkpt lat="43.38888" lon="6.0942">
        <ele>326.20001220703</ele>
        <time>2015-10-14T13:16:11Z</time>
      </trkpt>
      <trkpt lat="43.38888" lon="6.09421">
        <ele>326</ele>
        <time>2015-10-14T13:16:22Z</time>
      </trkpt>
      <trkpt lat="43.38889" lon="6.09422">
        <ele>325.79998779297</ele>
        <time>2015-10-14T13:16:28Z</time>
      </trkpt>
      <trkpt lat="43.38889" lon="6.09422">
        <ele>325.60000610352</ele>
        <time>2015-10-14T13:16:30Z</time>
      </trkpt>
      <trkpt lat="43.38888" lon="6.09422">
        <ele>325.79998779297</ele>
        <time>2015-10-14T13:16:38Z</time>
      </trkpt>
      <trkpt lat="43.38888" lon="6.09422">
        <ele>326</ele>
        <time>2015-10-14T13:16:44Z</time>
      </trkpt>
      <trkpt lat="43.38888" lon="6.09422">
        <ele>326</ele>
        <time>2015-10-14T13:16:46Z</time>
      </trkpt>
      <trkpt lat="43.38887" lon="6.09423">
        <ele>326.20001220703</ele>
        <time>2015-10-14T13:16:51Z</time>
      </trkpt>
      <trkpt lat="43.38884" lon="6.09426">
        <ele>326.79998779297</ele>
        <time>2015-10-14T13:17:00Z</time>
      </trkpt>
      <trkpt lat="43.38884" lon="6.09426">
        <ele>327</ele>
        <time>2015-10-14T13:17:02Z</time>
      </trkpt>
      <trkpt lat="43.38884" lon="6.09426">
        <ele>327</ele>
        <time>2015-10-14T13:17:04Z</time>
      </trkpt>
      <trkpt lat="43.38882" lon="6.09426">
        <ele>327</ele>
        <time>2015-10-14T13:17:15Z</time>
      </trkpt>
      <trkpt lat="43.38882" lon="6.09426">
        <ele>326.79998779297</ele>
        <time>2015-10-14T13:17:27Z</time>
      </trkpt>
      <trkpt lat="43.38882" lon="6.09426">
        <ele>327.39999389648</ele>
        <time>2015-10-14T13:17:37Z</time>
      </trkpt>
      <trkpt lat="43.38882" lon="6.09426">
        <ele>326.79998779297</ele>
        <time>2015-10-14T13:18:47Z</time>
      </trkpt>
      <trkpt lat="43.38882" lon="6.09426">
        <ele>326.79998779297</ele>
        <time>2015-10-14T13:19:14Z</time>
      </trkpt>
      <trkpt lat="43.38882" lon="6.09427">
        <ele>327</ele>
        <time>2015-10-14T13:19:44Z</time>
      </trkpt>
      <trkpt lat="43.38881" lon="6.09428">
        <ele>326.79998779297</ele>
        <time>2015-10-14T13:20:49Z</time>
      </trkpt>
      <trkpt lat="43.38881" lon="6.09429">
        <ele>326.39999389648</ele>
        <time>2015-10-14T13:21:31Z</time>
      </trkpt>
      <trkpt lat="43.38882" lon="6.09429">
        <ele>326.60000610352</ele>
        <time>2015-10-14T13:22:49Z</time>
      </trkpt>
      <trkpt lat="43.38881" lon="6.09429">
        <ele>326.79998779297</ele>
        <time>2015-10-14T13:23:01Z</time>
      </trkpt>
      <trkpt lat="43.38882" lon="6.09428">
        <ele>326.20001220703</ele>
        <time>2015-10-14T13:23:22Z</time>
      </trkpt>
      <trkpt lat="43.38882" lon="6.09428">
        <ele>326.39999389648</ele>
        <time>2015-10-14T13:24:53Z</time>
      </trkpt>
      <trkpt lat="43.38882" lon="6.09428">
        <ele>326.79998779297</ele>
        <time>2015-10-14T13:26:55Z</time>
      </trkpt>
      <trkpt lat="43.38882" lon="6.09428">
        <ele>327</ele>
        <time>2015-10-14T13:27:14Z</time>
      </trkpt>
      <trkpt lat="43.38882" lon="6.09428">
        <ele>326.79998779297</ele>
        <time>2015-10-14T13:27:28Z</time>
      </trkpt>
      <trkpt lat="43.38882" lon="6.09428">
        <ele>327</ele>
        <time>2015-10-14T13:27:42Z</time>
      </trkpt>
      <trkpt lat="43.38882" lon="6.09428">
        <ele>327</ele>
        <time>2015-10-14T13:28:13Z</time>
      </trkpt>
      <trkpt lat="43.38882" lon="6.09428">
        <ele>327</ele>
        <time>2015-10-14T13:28:37Z</time>
      </trkpt>
      <trkpt lat="43.38882" lon="6.09428">
        <ele>327</ele>
        <time>2015-10-14T13:28:39Z</time>
      </trkpt>
      <trkpt lat="43.38882" lon="6.09428">
        <ele>326.79998779297</ele>
        <time>2015-10-14T13:28:48Z</time>
      </trkpt>
      <trkpt lat="43.38881" lon="6.09429">
        <ele>326.79998779297</ele>
        <time>2015-10-14T13:28:52Z</time>
      </trkpt>
      <trkpt lat="43.38881" lon="6.09429">
        <ele>327</ele>
        <time>2015-10-14T13:29:00Z</time>
      </trkpt>
      <trkpt lat="43.3888" lon="6.09431">
        <ele>326.60000610352</ele>
        <time>2015-10-14T13:29:03Z</time>
      </trkpt>
      <trkpt lat="43.3888" lon="6.09433">
        <ele>326</ele>
        <time>2015-10-14T13:29:05Z</time>
      </trkpt>
      <trkpt lat="43.3888" lon="6.09433">
        <ele>326.20001220703</ele>
        <time>2015-10-14T13:29:11Z</time>
      </trkpt>
      <trkpt lat="43.38879" lon="6.0943">
        <ele>326</ele>
        <time>2015-10-14T13:29:20Z</time>
      </trkpt>
      <trkpt lat="43.38879" lon="6.0943">
        <ele>326.39999389648</ele>
        <time>2015-10-14T13:29:27Z</time>
      </trkpt>
      <trkpt lat="43.38876" lon="6.09427">
        <ele>326.39999389648</ele>
        <time>2015-10-14T13:29:36Z</time>
      </trkpt>
      <trkpt lat="43.3887" lon="6.09422">
        <ele>325.39999389648</ele>
        <time>2015-10-14T13:29:41Z</time>
      </trkpt>
      <trkpt lat="43.38869" lon="6.0942">
        <ele>325.20001220703</ele>
        <time>2015-10-14T13:29:42Z</time>
      </trkpt>
      <trkpt lat="43.38866" lon="6.09415">
        <ele>324.39999389648</ele>
        <time>2015-10-14T13:29:45Z</time>
      </trkpt>
      <trkpt lat="43.38865" lon="6.09414">
        <ele>324.20001220703</ele>
        <time>2015-10-14T13:29:46Z</time>
      </trkpt>
      <trkpt lat="43.38863" lon="6.09411">
        <ele>323.79998779297</ele>
        <time>2015-10-14T13:29:48Z</time>
      </trkpt>
      <trkpt lat="43.38861" lon="6.09409">
        <ele>323.39999389648</ele>
        <time>2015-10-14T13:29:50Z</time>
      </trkpt>
      <trkpt lat="43.38858" lon="6.09403">
        <ele>322.60000610352</ele>
        <time>2015-10-14T13:29:53Z</time>
      </trkpt>
      <trkpt lat="43.38855" lon="6.09399">
        <ele>322.20001220703</ele>
        <time>2015-10-14T13:29:55Z</time>
      </trkpt>
      <trkpt lat="43.38849" lon="6.0939">
        <ele>321</ele>
        <time>2015-10-14T13:30:00Z</time>
      </trkpt>
      <trkpt lat="43.38848" lon="6.09389">
        <ele>320.79998779297</ele>
        <time>2015-10-14T13:30:01Z</time>
      </trkpt>
      <trkpt lat="43.38846" lon="6.09394">
        <ele>319.60000610352</ele>
        <time>2015-10-14T13:30:04Z</time>
      </trkpt>
      <trkpt lat="43.38845" lon="6.09396">
        <ele>319.20001220703</ele>
        <time>2015-10-14T13:30:05Z</time>
      </trkpt>
      <trkpt lat="43.38843" lon="6.09404">
        <ele>318.60000610352</ele>
        <time>2015-10-14T13:30:09Z</time>
      </trkpt>
      <trkpt lat="43.38841" lon="6.09409">
        <ele>317.60000610352</ele>
        <time>2015-10-14T13:30:11Z</time>
      </trkpt>
      <trkpt lat="43.3884" lon="6.09413">
        <ele>317.60000610352</ele>
        <time>2015-10-14T13:30:13Z</time>
      </trkpt>
      <trkpt lat="43.38839" lon="6.09417">
        <ele>317</ele>
        <time>2015-10-14T13:30:15Z</time>
      </trkpt>
      <trkpt lat="43.38839" lon="6.09419">
        <ele>316.39999389648</ele>
        <time>2015-10-14T13:30:16Z</time>
      </trkpt>
      <trkpt lat="43.38835" lon="6.09424">
        <ele>315.20001220703</ele>
        <time>2015-10-14T13:30:19Z</time>
      </trkpt>
      <trkpt lat="43.38834" lon="6.09425">
        <ele>314.79998779297</ele>
        <time>2015-10-14T13:30:21Z</time>
      </trkpt>
      <trkpt lat="43.38834" lon="6.09426">
        <ele>314.60000610352</ele>
        <time>2015-10-14T13:30:29Z</time>
      </trkpt>
      <trkpt lat="43.38834" lon="6.09427">
        <ele>314.39999389648</ele>
        <time>2015-10-14T13:30:30Z</time>
      </trkpt>
      <trkpt lat="43.38834" lon="6.09427">
        <ele>314.20001220703</ele>
        <time>2015-10-14T13:30:32Z</time>
      </trkpt>
      <trkpt lat="43.38834" lon="6.09427">
        <ele>313.79998779297</ele>
        <time>2015-10-14T13:31:16Z</time>
      </trkpt>
      <trkpt lat="43.38834" lon="6.09427">
        <ele>314</ele>
        <time>2015-10-14T13:31:29Z</time>
      </trkpt>
      <trkpt lat="43.38831" lon="6.09424">
        <ele>314.20001220703</ele>
        <time>2015-10-14T13:31:43Z</time>
      </trkpt>
      <trkpt lat="43.38828" lon="6.09419">
        <ele>313.39999389648</ele>
        <time>2015-10-14T13:31:45Z</time>
      </trkpt>
      <trkpt lat="43.38825" lon="6.09416">
        <ele>312.79998779297</ele>
        <time>2015-10-14T13:31:46Z</time>
      </trkpt>
      <trkpt lat="43.38822" lon="6.09411">
        <ele>311.60000610352</ele>
        <time>2015-10-14T13:31:47Z</time>
      </trkpt>
      <trkpt lat="43.38813" lon="6.09398">
        <ele>310.60000610352</ele>
        <time>2015-10-14T13:31:50Z</time>
      </trkpt>
      <trkpt lat="43.3881" lon="6.09391">
        <ele>310</ele>
        <time>2015-10-14T13:31:51Z</time>
      </trkpt>
      <trkpt lat="43.38806" lon="6.09385">
        <ele>309.39999389648</ele>
        <time>2015-10-14T13:31:52Z</time>
      </trkpt>
      <trkpt lat="43.38801" lon="6.09378">
        <ele>308.79998779297</ele>
        <time>2015-10-14T13:31:53Z</time>
      </trkpt>
      <trkpt lat="43.38791" lon="6.09367">
        <ele>306.60000610352</ele>
        <time>2015-10-14T13:31:55Z</time>
      </trkpt>
      <trkpt lat="43.38787" lon="6.09364">
        <ele>305.79998779297</ele>
        <time>2015-10-14T13:31:56Z</time>
      </trkpt>
      <trkpt lat="43.38784" lon="6.0936">
        <ele>304.79998779297</ele>
        <time>2015-10-14T13:31:57Z</time>
      </trkpt>
      <trkpt lat="43.38776" lon="6.09354">
        <ele>303.60000610352</ele>
        <time>2015-10-14T13:31:59Z</time>
      </trkpt>
      <trkpt lat="43.38763" lon="6.09347">
        <ele>300.20001220703</ele>
        <time>2015-10-14T13:32:02Z</time>
      </trkpt>
      <trkpt lat="43.38758" lon="6.09344">
        <ele>298.60000610352</ele>
        <time>2015-10-14T13:32:03Z</time>
      </trkpt>
      <trkpt lat="43.38753" lon="6.09341">
        <ele>297.79998779297</ele>
        <time>2015-10-14T13:32:04Z</time>
      </trkpt>
      <trkpt lat="43.38748" lon="6.0934">
        <ele>297</ele>
        <time>2015-10-14T13:32:05Z</time>
      </trkpt>
      <trkpt lat="43.38743" lon="6.09339">
        <ele>296</ele>
        <time>2015-10-14T13:32:06Z</time>
      </trkpt>
      <trkpt lat="43.38739" lon="6.09338">
        <ele>295</ele>
        <time>2015-10-14T13:32:07Z</time>
      </trkpt>
      <trkpt lat="43.38734" lon="6.09337">
        <ele>293.79998779297</ele>
        <time>2015-10-14T13:32:08Z</time>
      </trkpt>
      <trkpt lat="43.38729" lon="6.09335">
        <ele>292.79998779297</ele>
        <time>2015-10-14T13:32:09Z</time>
      </trkpt>
      <trkpt lat="43.38724" lon="6.09332">
        <ele>291.79998779297</ele>
        <time>2015-10-14T13:32:10Z</time>
      </trkpt>
      <trkpt lat="43.38719" lon="6.09328">
        <ele>290.79998779297</ele>
        <time>2015-10-14T13:32:11Z</time>
      </trkpt>
      <trkpt lat="43.38709" lon="6.09321">
        <ele>288.60000610352</ele>
        <time>2015-10-14T13:32:13Z</time>
      </trkpt>
      <trkpt lat="43.38699" lon="6.09314">
        <ele>286.79998779297</ele>
        <time>2015-10-14T13:32:15Z</time>
      </trkpt>
      <trkpt lat="43.38695" lon="6.09311">
        <ele>285.79998779297</ele>
        <time>2015-10-14T13:32:16Z</time>
      </trkpt>
      <trkpt lat="43.38687" lon="6.09303">
        <ele>284.20001220703</ele>
        <time>2015-10-14T13:32:18Z</time>
      </trkpt>
      <trkpt lat="43.38683" lon="6.09301">
        <ele>282.79998779297</ele>
        <time>2015-10-14T13:32:19Z</time>
      </trkpt>
      <trkpt lat="43.38681" lon="6.09301">
        <ele>281.60000610352</ele>
        <time>2015-10-14T13:32:20Z</time>
      </trkpt>
      <trkpt lat="43.38679" lon="6.09303">
        <ele>281</ele>
        <time>2015-10-14T13:32:21Z</time>
      </trkpt>
      <trkpt lat="43.38678" lon="6.09305">
        <ele>280.20001220703</ele>
        <time>2015-10-14T13:32:22Z</time>
      </trkpt>
      <trkpt lat="43.38674" lon="6.09309">
        <ele>279.39999389648</ele>
        <time>2015-10-14T13:32:25Z</time>
      </trkpt>
      <trkpt lat="43.38674" lon="6.09309">
        <ele>279.20001220703</ele>
        <time>2015-10-14T13:32:26Z</time>
      </trkpt>
      <trkpt lat="43.38674" lon="6.09309">
        <ele>278.60000610352</ele>
        <time>2015-10-14T13:32:36Z</time>
      </trkpt>
      <trkpt lat="43.38672" lon="6.09312">
        <ele>278.60000610352</ele>
        <time>2015-10-14T13:32:42Z</time>
      </trkpt>
      <trkpt lat="43.38672" lon="6.09314">
        <ele>278.60000610352</ele>
        <time>2015-10-14T13:32:43Z</time>
      </trkpt>
      <trkpt lat="43.38672" lon="6.09325">
        <ele>278.60000610352</ele>
        <time>2015-10-14T13:32:48Z</time>
      </trkpt>
      <trkpt lat="43.38675" lon="6.09355">
        <ele>278.20001220703</ele>
        <time>2015-10-14T13:32:58Z</time>
      </trkpt>
      <trkpt lat="43.38677" lon="6.0938">
        <ele>278</ele>
        <time>2015-10-14T13:33:04Z</time>
      </trkpt>
      <trkpt lat="43.38676" lon="6.09401">
        <ele>276.79998779297</ele>
        <time>2015-10-14T13:33:07Z</time>
      </trkpt>
      <trkpt lat="43.38676" lon="6.09408">
        <ele>276.39999389648</ele>
        <time>2015-10-14T13:33:08Z</time>
      </trkpt>
      <trkpt lat="43.38676" lon="6.09416">
        <ele>276.20001220703</ele>
        <time>2015-10-14T13:33:09Z</time>
      </trkpt>
      <trkpt lat="43.38678" lon="6.09435">
        <ele>276.39999389648</ele>
        <time>2015-10-14T13:33:12Z</time>
      </trkpt>
      <trkpt lat="43.38681" lon="6.09461">
        <ele>276.20001220703</ele>
        <time>2015-10-14T13:33:17Z</time>
      </trkpt>
      <trkpt lat="43.38678" lon="6.09492">
        <ele>275.79998779297</ele>
        <time>2015-10-14T13:33:23Z</time>
      </trkpt>
      <trkpt lat="43.38677" lon="6.09497">
        <ele>275.79998779297</ele>
        <time>2015-10-14T13:33:24Z</time>
      </trkpt>
      <trkpt lat="43.38675" lon="6.09509">
        <ele>275.79998779297</ele>
        <time>2015-10-14T13:33:28Z</time>
      </trkpt>
      <trkpt lat="43.38671" lon="6.09517">
        <ele>275.20001220703</ele>
        <time>2015-10-14T13:33:33Z</time>
      </trkpt>
      <trkpt lat="43.38667" lon="6.09517">
        <ele>274.60000610352</ele>
        <time>2015-10-14T13:33:36Z</time>
      </trkpt>
      <trkpt lat="43.38662" lon="6.09518">
        <ele>273</ele>
        <time>2015-10-14T13:33:39Z</time>
      </trkpt>
      <trkpt lat="43.38659" lon="6.09518">
        <ele>272.20001220703</ele>
        <time>2015-10-14T13:33:43Z</time>
      </trkpt>
      <trkpt lat="43.38659" lon="6.09518">
        <ele>272</ele>
        <time>2015-10-14T13:33:45Z</time>
      </trkpt>
      <trkpt lat="43.38658" lon="6.09519">
        <ele>272</ele>
        <time>2015-10-14T13:33:55Z</time>
      </trkpt>
      <trkpt lat="43.38657" lon="6.09518">
        <ele>272.20001220703</ele>
        <time>2015-10-14T13:34:00Z</time>
      </trkpt>
      <trkpt lat="43.38654" lon="6.09518">
        <ele>272</ele>
        <time>2015-10-14T13:34:02Z</time>
      </trkpt>
      <trkpt lat="43.38644" lon="6.09512">
        <ele>270.39999389648</ele>
        <time>2015-10-14T13:34:08Z</time>
      </trkpt>
      <trkpt lat="43.38642" lon="6.09505">
        <ele>269.39999389648</ele>
        <time>2015-10-14T13:34:10Z</time>
      </trkpt>
      <trkpt lat="43.38641" lon="6.09496">
        <ele>269.20001220703</ele>
        <time>2015-10-14T13:34:12Z</time>
      </trkpt>
      <trkpt lat="43.38639" lon="6.09488">
        <ele>268.79998779297</ele>
        <time>2015-10-14T13:34:14Z</time>
      </trkpt>
      <trkpt lat="43.38637" lon="6.09479">
        <ele>267.60000610352</ele>
        <time>2015-10-14T13:34:16Z</time>
      </trkpt>
      <trkpt lat="43.38636" lon="6.09471">
        <ele>266.20001220703</ele>
        <time>2015-10-14T13:34:18Z</time>
      </trkpt>
      <trkpt lat="43.38637" lon="6.09459">
        <ele>265.20001220703</ele>
        <time>2015-10-14T13:34:22Z</time>
      </trkpt>
      <trkpt lat="43.38637" lon="6.09453">
        <ele>265.60000610352</ele>
        <time>2015-10-14T13:34:25Z</time>
      </trkpt>
      <trkpt lat="43.38638" lon="6.09449">
        <ele>266</ele>
        <time>2015-10-14T13:34:28Z</time>
      </trkpt>
      <trkpt lat="43.38638" lon="6.09448">
        <ele>266.39999389648</ele>
        <time>2015-10-14T13:34:31Z</time>
      </trkpt>
      <trkpt lat="43.38638" lon="6.09448">
        <ele>266.60000610352</ele>
        <time>2015-10-14T13:34:36Z</time>
      </trkpt>
      <trkpt lat="43.38638" lon="6.09448">
        <ele>266.60000610352</ele>
        <time>2015-10-14T13:34:48Z</time>
      </trkpt>
      <trkpt lat="43.38638" lon="6.09447">
        <ele>266.79998779297</ele>
        <time>2015-10-14T13:34:54Z</time>
      </trkpt>
      <trkpt lat="43.38639" lon="6.09447">
        <ele>267.20001220703</ele>
        <time>2015-10-14T13:34:55Z</time>
      </trkpt>
      <trkpt lat="43.38643" lon="6.09447">
        <ele>267.79998779297</ele>
        <time>2015-10-14T13:34:57Z</time>
      </trkpt>
      <trkpt lat="43.38644" lon="6.09447">
        <ele>268.20001220703</ele>
        <time>2015-10-14T13:34:58Z</time>
      </trkpt>
      <trkpt lat="43.38648" lon="6.09448">
        <ele>269.20001220703</ele>
        <time>2015-10-14T13:35:00Z</time>
      </trkpt>
      <trkpt lat="43.38653" lon="6.09449">
        <ele>270.39999389648</ele>
        <time>2015-10-14T13:35:03Z</time>
      </trkpt>
      <trkpt lat="43.38658" lon="6.09449">
        <ele>271.60000610352</ele>
        <time>2015-10-14T13:35:06Z</time>
      </trkpt>
      <trkpt lat="43.38659" lon="6.0945">
        <ele>271.79998779297</ele>
        <time>2015-10-14T13:35:07Z</time>
      </trkpt>
      <trkpt lat="43.38662" lon="6.09451">
        <ele>272.60000610352</ele>
        <time>2015-10-14T13:35:12Z</time>
      </trkpt>
      <trkpt lat="43.38662" lon="6.09451">
        <ele>272.60000610352</ele>
        <time>2015-10-14T13:35:13Z</time>
      </trkpt>
      <trkpt lat="43.38664" lon="6.09451">
        <ele>272.79998779297</ele>
        <time>2015-10-14T13:35:20Z</time>
      </trkpt>
      <trkpt lat="43.38668" lon="6.09452">
        <ele>273.39999389648</ele>
        <time>2015-10-14T13:35:25Z</time>
      </trkpt>
      <trkpt lat="43.38669" lon="6.09452">
        <ele>273.60000610352</ele>
        <time>2015-10-14T13:35:27Z</time>
      </trkpt>
      <trkpt lat="43.38671" lon="6.09453">
        <ele>274.20001220703</ele>
        <time>2015-10-14T13:35:32Z</time>
      </trkpt>
      <trkpt lat="43.38672" lon="6.09453">
        <ele>274.20001220703</ele>
        <time>2015-10-14T13:35:35Z</time>
      </trkpt>
      <trkpt lat="43.38673" lon="6.09453">
        <ele>274.60000610352</ele>
        <time>2015-10-14T13:35:39Z</time>
      </trkpt>
      <trkpt lat="43.38675" lon="6.09452">
        <ele>275.39999389648</ele>
        <time>2015-10-14T13:35:46Z</time>
      </trkpt>
      <trkpt lat="43.38675" lon="6.09452">
        <ele>275.20001220703</ele>
        <time>2015-10-14T13:35:50Z</time>
      </trkpt>
      <trkpt lat="43.38675" lon="6.09452">
        <ele>275.39999389648</ele>
        <time>2015-10-14T13:35:54Z</time>
      </trkpt>
      <trkpt lat="43.38676" lon="6.09451">
        <ele>275.60000610352</ele>
        <time>2015-10-14T13:36:00Z</time>
      </trkpt>
      <trkpt lat="43.38678" lon="6.09451">
        <ele>276.39999389648</ele>
        <time>2015-10-14T13:36:03Z</time>
      </trkpt>
      <trkpt lat="43.38679" lon="6.09451">
        <ele>276.79998779297</ele>
        <time>2015-10-14T13:36:08Z</time>
      </trkpt>
      <trkpt lat="43.3868" lon="6.09451">
        <ele>277</ele>
        <time>2015-10-14T13:36:10Z</time>
      </trkpt>
      <trkpt lat="43.3868" lon="6.09451">
        <ele>276.79998779297</ele>
        <time>2015-10-14T13:36:13Z</time>
      </trkpt>
      <trkpt lat="43.3868" lon="6.09451">
        <ele>276.60000610352</ele>
        <time>2015-10-14T13:36:18Z</time>
      </trkpt>
      <trkpt lat="43.3868" lon="6.09451">
        <ele>276.39999389648</ele>
        <time>2015-10-14T13:36:33Z</time>
      </trkpt>
      <trkpt lat="43.3868" lon="6.09451">
        <ele>276.39999389648</ele>
        <time>2015-10-14T13:36:36Z</time>
      </trkpt>
      <trkpt lat="43.3868" lon="6.09451">
        <ele>276.60000610352</ele>
        <time>2015-10-14T13:36:46Z</time>
      </trkpt>
      <trkpt lat="43.38679" lon="6.09452">
        <ele>276.60000610352</ele>
        <time>2015-10-14T13:37:03Z</time>
      </trkpt>
      <trkpt lat="43.38679" lon="6.09452">
        <ele>276.39999389648</ele>
        <time>2015-10-14T13:37:07Z</time>
      </trkpt>
      <trkpt lat="43.38678" lon="6.09454">
        <ele>276.60000610352</ele>
        <time>2015-10-14T13:37:15Z</time>
      </trkpt>
      <trkpt lat="43.38679" lon="6.09457">
        <ele>276.39999389648</ele>
        <time>2015-10-14T13:37:17Z</time>
      </trkpt>
      <trkpt lat="43.38681" lon="6.09455">
        <ele>276.79998779297</ele>
        <time>2015-10-14T13:37:20Z</time>
      </trkpt>
      <trkpt lat="43.38678" lon="6.09451">
        <ele>276.60000610352</ele>
        <time>2015-10-14T13:37:25Z</time>
      </trkpt>
      <trkpt lat="43.38671" lon="6.0945">
        <ele>275.20001220703</ele>
        <time>2015-10-14T13:37:31Z</time>
      </trkpt>
      <trkpt lat="43.3867" lon="6.09449">
        <ele>274.60000610352</ele>
        <time>2015-10-14T13:37:32Z</time>
      </trkpt>
      <trkpt lat="43.38668" lon="6.09448">
        <ele>274</ele>
        <time>2015-10-14T13:37:33Z</time>
      </trkpt>
      <trkpt lat="43.38667" lon="6.09448">
        <ele>273.20001220703</ele>
        <time>2015-10-14T13:37:37Z</time>
      </trkpt>
      <trkpt lat="43.38667" lon="6.09448">
        <ele>273</ele>
        <time>2015-10-14T13:37:40Z</time>
      </trkpt>
      <trkpt lat="43.38667" lon="6.09449">
        <ele>272.60000610352</ele>
        <time>2015-10-14T13:37:47Z</time>
      </trkpt>
      <trkpt lat="43.38671" lon="6.09449">
        <ele>273.20001220703</ele>
        <time>2015-10-14T13:37:53Z</time>
      </trkpt>
      <trkpt lat="43.38673" lon="6.09449">
        <ele>273.79998779297</ele>
        <time>2015-10-14T13:37:57Z</time>
      </trkpt>
      <trkpt lat="43.38676" lon="6.0945">
        <ele>274.60000610352</ele>
        <time>2015-10-14T13:38:01Z</time>
      </trkpt>
      <trkpt lat="43.38677" lon="6.0945">
        <ele>275</ele>
        <time>2015-10-14T13:38:03Z</time>
      </trkpt>
      <trkpt lat="43.38678" lon="6.09451">
        <ele>275.60000610352</ele>
        <time>2015-10-14T13:38:12Z</time>
      </trkpt>
      <trkpt lat="43.3868" lon="6.09452">
        <ele>276.60000610352</ele>
        <time>2015-10-14T13:38:22Z</time>
      </trkpt>
      <trkpt lat="43.3868" lon="6.09452">
        <ele>276.79998779297</ele>
        <time>2015-10-14T13:38:30Z</time>
      </trkpt>
      <trkpt lat="43.3868" lon="6.09452">
        <ele>276.79998779297</ele>
        <time>2015-10-14T13:38:31Z</time>
      </trkpt>
      <trkpt lat="43.38679" lon="6.09453">
        <ele>275.79998779297</ele>
        <time>2015-10-14T13:38:46Z</time>
      </trkpt>
      <trkpt lat="43.38679" lon="6.09454">
        <ele>275.79998779297</ele>
        <time>2015-10-14T13:38:47Z</time>
      </trkpt>
      <trkpt lat="43.38681" lon="6.09459">
        <ele>276</ele>
        <time>2015-10-14T13:38:50Z</time>
      </trkpt>
      <trkpt lat="43.3868" lon="6.09466">
        <ele>276.20001220703</ele>
        <time>2015-10-14T13:38:52Z</time>
      </trkpt>
      <trkpt lat="43.38677" lon="6.09478">
        <ele>276</ele>
        <time>2015-10-14T13:38:55Z</time>
      </trkpt>
      <trkpt lat="43.38673" lon="6.09502">
        <ele>275.60000610352</ele>
        <time>2015-10-14T13:39:00Z</time>
      </trkpt>
      <trkpt lat="43.38671" lon="6.09536">
        <ele>275.60000610352</ele>
        <time>2015-10-14T13:39:07Z</time>
      </trkpt>
      <trkpt lat="43.38673" lon="6.09582">
        <ele>275.60000610352</ele>
        <time>2015-10-14T13:39:16Z</time>
      </trkpt>
      <trkpt lat="43.38673" lon="6.09588">
        <ele>275.39999389648</ele>
        <time>2015-10-14T13:39:17Z</time>
      </trkpt>
      <trkpt lat="43.38668" lon="6.09615">
        <ele>275.39999389648</ele>
        <time>2015-10-14T13:39:22Z</time>
      </trkpt>
      <trkpt lat="43.38665" lon="6.09626">
        <ele>275</ele>
        <time>2015-10-14T13:39:24Z</time>
      </trkpt>
      <trkpt lat="43.38657" lon="6.09656">
        <ele>274.20001220703</ele>
        <time>2015-10-14T13:39:29Z</time>
      </trkpt>
      <trkpt lat="43.38654" lon="6.09662">
        <ele>274</ele>
        <time>2015-10-14T13:39:30Z</time>
      </trkpt>
      <trkpt lat="43.38644" lon="6.09681">
        <ele>272.60000610352</ele>
        <time>2015-10-14T13:39:33Z</time>
      </trkpt>
      <trkpt lat="43.38635" lon="6.097">
        <ele>271.20001220703</ele>
        <time>2015-10-14T13:39:36Z</time>
      </trkpt>
      <trkpt lat="43.38629" lon="6.09713">
        <ele>270.39999389648</ele>
        <time>2015-10-14T13:39:38Z</time>
      </trkpt>
      <trkpt lat="43.3862" lon="6.09733">
        <ele>270</ele>
        <time>2015-10-14T13:39:41Z</time>
      </trkpt>
      <trkpt lat="43.38599" lon="6.09782">
        <ele>269.60000610352</ele>
        <time>2015-10-14T13:39:48Z</time>
      </trkpt>
      <trkpt lat="43.38595" lon="6.09816">
        <ele>270.20001220703</ele>
        <time>2015-10-14T13:39:53Z</time>
      </trkpt>
      <trkpt lat="43.38595" lon="6.09831">
        <ele>271.20001220703</ele>
        <time>2015-10-14T13:39:56Z</time>
      </trkpt>
      <trkpt lat="43.38595" lon="6.09836">
        <ele>271.60000610352</ele>
        <time>2015-10-14T13:39:57Z</time>
      </trkpt>
      <trkpt lat="43.38595" lon="6.09849">
        <ele>272.39999389648</ele>
        <time>2015-10-14T13:40:00Z</time>
      </trkpt>
      <trkpt lat="43.38596" lon="6.09857">
        <ele>272.79998779297</ele>
        <time>2015-10-14T13:40:02Z</time>
      </trkpt>
      <trkpt lat="43.38597" lon="6.0987">
        <ele>273.60000610352</ele>
        <time>2015-10-14T13:40:05Z</time>
      </trkpt>
      <trkpt lat="43.38597" lon="6.09878">
        <ele>273.79998779297</ele>
        <time>2015-10-14T13:40:07Z</time>
      </trkpt>
      <trkpt lat="43.38598" lon="6.09894">
        <ele>274.79998779297</ele>
        <time>2015-10-14T13:40:11Z</time>
      </trkpt>
      <trkpt lat="43.386" lon="6.09905">
        <ele>275.60000610352</ele>
        <time>2015-10-14T13:40:14Z</time>
      </trkpt>
      <trkpt lat="43.386" lon="6.09909">
        <ele>275.79998779297</ele>
        <time>2015-10-14T13:40:15Z</time>
      </trkpt>
      <trkpt lat="43.38604" lon="6.09921">
        <ele>276.20001220703</ele>
        <time>2015-10-14T13:40:18Z</time>
      </trkpt>
      <trkpt lat="43.38608" lon="6.09928">
        <ele>276.79998779297</ele>
        <time>2015-10-14T13:40:20Z</time>
      </trkpt>
      <trkpt lat="43.38617" lon="6.0994">
        <ele>278.20001220703</ele>
        <time>2015-10-14T13:40:24Z</time>
      </trkpt>
      <trkpt lat="43.38622" lon="6.09946">
        <ele>278.60000610352</ele>
        <time>2015-10-14T13:40:26Z</time>
      </trkpt>
      <trkpt lat="43.38639" lon="6.09965">
        <ele>279.39999389648</ele>
        <time>2015-10-14T13:40:34Z</time>
      </trkpt>
      <trkpt lat="43.38642" lon="6.09968">
        <ele>279.39999389648</ele>
        <time>2015-10-14T13:40:35Z</time>
      </trkpt>
      <trkpt lat="43.38655" lon="6.09981">
        <ele>280.39999389648</ele>
        <time>2015-10-14T13:40:41Z</time>
      </trkpt>
      <trkpt lat="43.38658" lon="6.09983">
        <ele>280.60000610352</ele>
        <time>2015-10-14T13:40:42Z</time>
      </trkpt>
      <trkpt lat="43.38675" lon="6.09994">
        <ele>280.79998779297</ele>
        <time>2015-10-14T13:40:49Z</time>
      </trkpt>
      <trkpt lat="43.3868" lon="6.09998">
        <ele>281.20001220703</ele>
        <time>2015-10-14T13:40:53Z</time>
      </trkpt>
      <trkpt lat="43.38681" lon="6.09999">
        <ele>281.60000610352</ele>
        <time>2015-10-14T13:40:54Z</time>
      </trkpt>
      <trkpt lat="43.38691" lon="6.10009">
        <ele>281.60000610352</ele>
        <time>2015-10-14T13:41:00Z</time>
      </trkpt>
      <trkpt lat="43.38701" lon="6.10025">
        <ele>282</ele>
        <time>2015-10-14T13:41:06Z</time>
      </trkpt>
      <trkpt lat="43.38712" lon="6.10049">
        <ele>282.60000610352</ele>
        <time>2015-10-14T13:41:13Z</time>
      </trkpt>
      <trkpt lat="43.38714" lon="6.10052">
        <ele>282.79998779297</ele>
        <time>2015-10-14T13:41:14Z</time>
      </trkpt>
      <trkpt lat="43.38732" lon="6.10086">
        <ele>283.60000610352</ele>
        <time>2015-10-14T13:41:24Z</time>
      </trkpt>
      <trkpt lat="43.38738" lon="6.10099">
        <ele>284</ele>
        <time>2015-10-14T13:41:28Z</time>
      </trkpt>
      <trkpt lat="43.38749" lon="6.10116">
        <ele>284.79998779297</ele>
        <time>2015-10-14T13:41:34Z</time>
      </trkpt>
      <trkpt lat="43.38753" lon="6.10121">
        <ele>285.39999389648</ele>
        <time>2015-10-14T13:41:36Z</time>
      </trkpt>
      <trkpt lat="43.38761" lon="6.1013">
        <ele>286.39999389648</ele>
        <time>2015-10-14T13:41:40Z</time>
      </trkpt>
      <trkpt lat="43.38763" lon="6.10132">
        <ele>286.60000610352</ele>
        <time>2015-10-14T13:41:41Z</time>
      </trkpt>
      <trkpt lat="43.38773" lon="6.10144">
        <ele>287.79998779297</ele>
        <time>2015-10-14T13:41:46Z</time>
      </trkpt>
      <trkpt lat="43.38781" lon="6.10153">
        <ele>288.79998779297</ele>
        <time>2015-10-14T13:41:50Z</time>
      </trkpt>
      <trkpt lat="43.38789" lon="6.10161">
        <ele>289.60000610352</ele>
        <time>2015-10-14T13:41:54Z</time>
      </trkpt>
      <trkpt lat="43.38795" lon="6.10167">
        <ele>289.39999389648</ele>
        <time>2015-10-14T13:41:59Z</time>
      </trkpt>
      <trkpt lat="43.38795" lon="6.10168">
        <ele>289</ele>
        <time>2015-10-14T13:42:05Z</time>
      </trkpt>
      <trkpt lat="43.38795" lon="6.10168">
        <ele>289</ele>
        <time>2015-10-14T13:42:07Z</time>
      </trkpt>
      <trkpt lat="43.38796" lon="6.10168">
        <ele>289.20001220703</ele>
        <time>2015-10-14T13:42:13Z</time>
      </trkpt>
      <trkpt lat="43.38796" lon="6.10168">
        <ele>289</ele>
        <time>2015-10-14T13:42:16Z</time>
      </trkpt>
      <trkpt lat="43.38796" lon="6.10168">
        <ele>289.20001220703</ele>
        <time>2015-10-14T13:42:22Z</time>
      </trkpt>
      <trkpt lat="43.38796" lon="6.10168">
        <ele>289.20001220703</ele>
        <time>2015-10-14T13:42:28Z</time>
      </trkpt>
      <trkpt lat="43.38796" lon="6.10168">
        <ele>289</ele>
        <time>2015-10-14T13:42:33Z</time>
      </trkpt>
      <trkpt lat="43.38796" lon="6.10168">
        <ele>289</ele>
        <time>2015-10-14T13:42:34Z</time>
      </trkpt>
      <trkpt lat="43.38796" lon="6.10168">
        <ele>289</ele>
        <time>2015-10-14T13:42:37Z</time>
      </trkpt>
      <trkpt lat="43.38796" lon="6.10168">
        <ele>289.20001220703</ele>
        <time>2015-10-14T13:42:43Z</time>
      </trkpt>
      <trkpt lat="43.388" lon="6.1017">
        <ele>289.20001220703</ele>
        <time>2015-10-14T13:43:00Z</time>
      </trkpt>
      <trkpt lat="43.3881" lon="6.10167">
        <ele>289.79998779297</ele>
        <time>2015-10-14T13:43:04Z</time>
      </trkpt>
      <trkpt lat="43.38813" lon="6.10166">
        <ele>290.20001220703</ele>
        <time>2015-10-14T13:43:05Z</time>
      </trkpt>
      <trkpt lat="43.38821" lon="6.10166">
        <ele>290.60000610352</ele>
        <time>2015-10-14T13:43:08Z</time>
      </trkpt>
      <trkpt lat="43.38823" lon="6.10168">
        <ele>290.60000610352</ele>
        <time>2015-10-14T13:43:09Z</time>
      </trkpt>
      <trkpt lat="43.38826" lon="6.10183">
        <ele>290.39999389648</ele>
        <time>2015-10-14T13:43:13Z</time>
      </trkpt>
      <trkpt lat="43.38822" lon="6.10192">
        <ele>290.79998779297</ele>
        <time>2015-10-14T13:43:17Z</time>
      </trkpt>
      <trkpt lat="43.38821" lon="6.10194">
        <ele>291.20001220703</ele>
        <time>2015-10-14T13:43:19Z</time>
      </trkpt>
      <trkpt lat="43.38821" lon="6.10194">
        <ele>291.39999389648</ele>
        <time>2015-10-14T13:43:21Z</time>
      </trkpt>
      <trkpt lat="43.38821" lon="6.10197">
        <ele>291.79998779297</ele>
        <time>2015-10-14T13:43:26Z</time>
      </trkpt>
      <trkpt lat="43.38821" lon="6.10198">
        <ele>292.20001220703</ele>
        <time>2015-10-14T13:43:28Z</time>
      </trkpt>
      <trkpt lat="43.3882" lon="6.10203">
        <ele>292.39999389648</ele>
        <time>2015-10-14T13:43:35Z</time>
      </trkpt>
      <trkpt lat="43.3882" lon="6.10215">
        <ele>293</ele>
        <time>2015-10-14T13:43:41Z</time>
      </trkpt>
      <trkpt lat="43.38819" lon="6.10219">
        <ele>293.39999389648</ele>
        <time>2015-10-14T13:43:43Z</time>
      </trkpt>
      <trkpt lat="43.38818" lon="6.10223">
        <ele>293.79998779297</ele>
        <time>2015-10-14T13:43:45Z</time>
      </trkpt>
      <trkpt lat="43.38819" lon="6.10225">
        <ele>293.79998779297</ele>
        <time>2015-10-14T13:43:46Z</time>
      </trkpt>
      <trkpt lat="43.38823" lon="6.10233">
        <ele>292.79998779297</ele>
        <time>2015-10-14T13:43:51Z</time>
      </trkpt>
      <trkpt lat="43.38824" lon="6.10241">
        <ele>292.20001220703</ele>
        <time>2015-10-14T13:43:53Z</time>
      </trkpt>
      <trkpt lat="43.38825" lon="6.10247">
        <ele>291.79998779297</ele>
        <time>2015-10-14T13:43:55Z</time>
      </trkpt>
      <trkpt lat="43.38827" lon="6.10262">
        <ele>291.20001220703</ele>
        <time>2015-10-14T13:43:58Z</time>
      </trkpt>
      <trkpt lat="43.38828" lon="6.10269">
        <ele>291</ele>
        <time>2015-10-14T13:43:59Z</time>
      </trkpt>
      <trkpt lat="43.38829" lon="6.10281">
        <ele>289.79998779297</ele>
        <time>2015-10-14T13:44:01Z</time>
      </trkpt>
      <trkpt lat="43.38831" lon="6.10305">
        <ele>288.79998779297</ele>
        <time>2015-10-14T13:44:05Z</time>
      </trkpt>
      <trkpt lat="43.38831" lon="6.10337">
        <ele>288.39999389648</ele>
        <time>2015-10-14T13:44:11Z</time>
      </trkpt>
      <trkpt lat="43.38831" lon="6.10343">
        <ele>288.20001220703</ele>
        <time>2015-10-14T13:44:12Z</time>
      </trkpt>
      <trkpt lat="43.38831" lon="6.10356">
        <ele>287.79998779297</ele>
        <time>2015-10-14T13:44:14Z</time>
      </trkpt>
      <trkpt lat="43.38832" lon="6.10381">
        <ele>288.20001220703</ele>
        <time>2015-10-14T13:44:18Z</time>
      </trkpt>
      <trkpt lat="43.38832" lon="6.10396">
        <ele>286.79998779297</ele>
        <time>2015-10-14T13:44:21Z</time>
      </trkpt>
      <trkpt lat="43.38831" lon="6.10411">
        <ele>286.79998779297</ele>
        <time>2015-10-14T13:44:24Z</time>
      </trkpt>
      <trkpt lat="43.38829" lon="6.10432">
        <ele>285.20001220703</ele>
        <time>2015-10-14T13:44:28Z</time>
      </trkpt>
      <trkpt lat="43.38827" lon="6.10449">
        <ele>285.20001220703</ele>
        <time>2015-10-14T13:44:31Z</time>
      </trkpt>
      <trkpt lat="43.38827" lon="6.10464">
        <ele>284.60000610352</ele>
        <time>2015-10-14T13:44:34Z</time>
      </trkpt>
      <trkpt lat="43.38826" lon="6.10475">
        <ele>283.39999389648</ele>
        <time>2015-10-14T13:44:36Z</time>
      </trkpt>
      <trkpt lat="43.38824" lon="6.10484">
        <ele>282.60000610352</ele>
        <time>2015-10-14T13:44:38Z</time>
      </trkpt>
      <trkpt lat="43.38823" lon="6.10489">
        <ele>282.39999389648</ele>
        <time>2015-10-14T13:44:39Z</time>
      </trkpt>
      <trkpt lat="43.38818" lon="6.10509">
        <ele>282.20001220703</ele>
        <time>2015-10-14T13:44:43Z</time>
      </trkpt>
      <trkpt lat="43.38813" lon="6.10531">
        <ele>282.39999389648</ele>
        <time>2015-10-14T13:44:48Z</time>
      </trkpt>
      <trkpt lat="43.38813" lon="6.10547">
        <ele>281.20001220703</ele>
        <time>2015-10-14T13:44:52Z</time>
      </trkpt>
      <trkpt lat="43.38811" lon="6.10551">
        <ele>280.79998779297</ele>
        <time>2015-10-14T13:44:53Z</time>
      </trkpt>
      <trkpt lat="43.38807" lon="6.10563">
        <ele>281</ele>
        <time>2015-10-14T13:44:57Z</time>
      </trkpt>
      <trkpt lat="43.38805" lon="6.10579">
        <ele>280.20001220703</ele>
        <time>2015-10-14T13:45:01Z</time>
      </trkpt>
      <trkpt lat="43.38803" lon="6.10597">
        <ele>279.79998779297</ele>
        <time>2015-10-14T13:45:04Z</time>
      </trkpt>
      <trkpt lat="43.388" lon="6.10608">
        <ele>279</ele>
        <time>2015-10-14T13:45:06Z</time>
      </trkpt>
      <trkpt lat="43.38795" lon="6.10631">
        <ele>278.60000610352</ele>
        <time>2015-10-14T13:45:12Z</time>
      </trkpt>
      <trkpt lat="43.38794" lon="6.10639">
        <ele>277.79998779297</ele>
        <time>2015-10-14T13:45:15Z</time>
      </trkpt>
      <trkpt lat="43.38794" lon="6.10642">
        <ele>277.39999389648</ele>
        <time>2015-10-14T13:45:17Z</time>
      </trkpt>
      <trkpt lat="43.38792" lon="6.10649">
        <ele>277.20001220703</ele>
        <time>2015-10-14T13:45:21Z</time>
      </trkpt>
      <trkpt lat="43.38791" lon="6.10654">
        <ele>277.20001220703</ele>
        <time>2015-10-14T13:45:23Z</time>
      </trkpt>
      <trkpt lat="43.38787" lon="6.10669">
        <ele>277</ele>
        <time>2015-10-14T13:45:28Z</time>
      </trkpt>
      <trkpt lat="43.38786" lon="6.10675">
        <ele>276.79998779297</ele>
        <time>2015-10-14T13:45:30Z</time>
      </trkpt>
      <trkpt lat="43.38784" lon="6.10684">
        <ele>276.60000610352</ele>
        <time>2015-10-14T13:45:33Z</time>
      </trkpt>
      <trkpt lat="43.38778" lon="6.10709">
        <ele>276</ele>
        <time>2015-10-14T13:45:39Z</time>
      </trkpt>
      <trkpt lat="43.38778" lon="6.10714">
        <ele>276</ele>
        <time>2015-10-14T13:45:40Z</time>
      </trkpt>
      <trkpt lat="43.38773" lon="6.10735">
        <ele>275.60000610352</ele>
        <time>2015-10-14T13:45:45Z</time>
      </trkpt>
      <trkpt lat="43.38773" lon="6.10744">
        <ele>275</ele>
        <time>2015-10-14T13:45:50Z</time>
      </trkpt>
      <trkpt lat="43.38773" lon="6.10744">
        <ele>275</ele>
        <time>2015-10-14T13:45:53Z</time>
      </trkpt>
      <trkpt lat="43.38773" lon="6.10744">
        <ele>274.79998779297</ele>
        <time>2015-10-14T13:46:05Z</time>
      </trkpt>
      <trkpt lat="43.38773" lon="6.10744">
        <ele>275</ele>
        <time>2015-10-14T13:46:21Z</time>
      </trkpt>
      <trkpt lat="43.38773" lon="6.10745">
        <ele>275.20001220703</ele>
        <time>2015-10-14T13:46:35Z</time>
      </trkpt>
      <trkpt lat="43.38771" lon="6.10754">
        <ele>275</ele>
        <time>2015-10-14T13:46:58Z</time>
      </trkpt>
      <trkpt lat="43.38769" lon="6.10756">
        <ele>275</ele>
        <time>2015-10-14T13:46:59Z</time>
      </trkpt>
      <trkpt lat="43.38762" lon="6.10761">
        <ele>275</ele>
        <time>2015-10-14T13:47:02Z</time>
      </trkpt>
      <trkpt lat="43.38758" lon="6.10763">
        <ele>275.60000610352</ele>
        <time>2015-10-14T13:47:04Z</time>
      </trkpt>
      <trkpt lat="43.38757" lon="6.10763">
        <ele>276</ele>
        <time>2015-10-14T13:47:05Z</time>
      </trkpt>
      <trkpt lat="43.3875" lon="6.10765">
        <ele>276.20001220703</ele>
        <time>2015-10-14T13:47:08Z</time>
      </trkpt>
      <trkpt lat="43.38744" lon="6.10768">
        <ele>275.60000610352</ele>
        <time>2015-10-14T13:47:10Z</time>
      </trkpt>
      <trkpt lat="43.38741" lon="6.10769">
        <ele>276.79998779297</ele>
        <time>2015-10-14T13:47:12Z</time>
      </trkpt>
      <trkpt lat="43.3874" lon="6.1077">
        <ele>277.20001220703</ele>
        <time>2015-10-14T13:47:13Z</time>
      </trkpt>
      <trkpt lat="43.38739" lon="6.10772">
        <ele>277.20001220703</ele>
        <time>2015-10-14T13:47:14Z</time>
      </trkpt>
      <trkpt lat="43.38732" lon="6.10785">
        <ele>276.79998779297</ele>
        <time>2015-10-14T13:47:18Z</time>
      </trkpt>
      <trkpt lat="43.38725" lon="6.10797">
        <ele>277</ele>
        <time>2015-10-14T13:47:23Z</time>
      </trkpt>
      <trkpt lat="43.38713" lon="6.10802">
        <ele>277.39999389648</ele>
        <time>2015-10-14T13:47:28Z</time>
      </trkpt>
      <trkpt lat="43.38704" lon="6.10811">
        <ele>278</ele>
        <time>2015-10-14T13:47:33Z</time>
      </trkpt>
      <trkpt lat="43.38702" lon="6.10813">
        <ele>278.39999389648</ele>
        <time>2015-10-14T13:47:34Z</time>
      </trkpt>
      <trkpt lat="43.38698" lon="6.10825">
        <ele>278.60000610352</ele>
        <time>2015-10-14T13:47:38Z</time>
      </trkpt>
      <trkpt lat="43.38694" lon="6.10834">
        <ele>278.39999389648</ele>
        <time>2015-10-14T13:47:41Z</time>
      </trkpt>
      <trkpt lat="43.38692" lon="6.10842">
        <ele>278.39999389648</ele>
        <time>2015-10-14T13:47:43Z</time>
      </trkpt>
      <trkpt lat="43.38684" lon="6.10876">
        <ele>277.60000610352</ele>
        <time>2015-10-14T13:47:51Z</time>
      </trkpt>
      <trkpt lat="43.38677" lon="6.10898">
        <ele>277.39999389648</ele>
        <time>2015-10-14T13:47:56Z</time>
      </trkpt>
      <trkpt lat="43.38671" lon="6.10922">
        <ele>277.60000610352</ele>
        <time>2015-10-14T13:48:01Z</time>
      </trkpt>
      <trkpt lat="43.38665" lon="6.10954">
        <ele>278.20001220703</ele>
        <time>2015-10-14T13:48:08Z</time>
      </trkpt>
      <trkpt lat="43.38663" lon="6.10973">
        <ele>278.39999389648</ele>
        <time>2015-10-14T13:48:12Z</time>
      </trkpt>
      <trkpt lat="43.38662" lon="6.10984">
        <ele>278</ele>
        <time>2015-10-14T13:48:15Z</time>
      </trkpt>
      <trkpt lat="43.3866" lon="6.11">
        <ele>278.39999389648</ele>
        <time>2015-10-14T13:48:20Z</time>
      </trkpt>
      <trkpt lat="43.38659" lon="6.11001">
        <ele>278.60000610352</ele>
        <time>2015-10-14T13:48:21Z</time>
      </trkpt>
      <trkpt lat="43.38659" lon="6.11006">
        <ele>278.39999389648</ele>
        <time>2015-10-14T13:48:25Z</time>
      </trkpt>
      <trkpt lat="43.38662" lon="6.11002">
        <ele>278.39999389648</ele>
        <time>2015-10-14T13:48:29Z</time>
      </trkpt>
      <trkpt lat="43.38655" lon="6.11001">
        <ele>278.79998779297</ele>
        <time>2015-10-14T13:48:33Z</time>
      </trkpt>
      <trkpt lat="43.38652" lon="6.11001">
        <ele>279.20001220703</ele>
        <time>2015-10-14T13:48:37Z</time>
      </trkpt>
      <trkpt lat="43.3865" lon="6.11">
        <ele>279.39999389648</ele>
        <time>2015-10-14T13:48:40Z</time>
      </trkpt>
      <trkpt lat="43.38648" lon="6.11001">
        <ele>279.39999389648</ele>
        <time>2015-10-14T13:48:41Z</time>
      </trkpt>
      <trkpt lat="43.38646" lon="6.11001">
        <ele>279.60000610352</ele>
        <time>2015-10-14T13:48:42Z</time>
      </trkpt>
      <trkpt lat="43.38642" lon="6.11005">
        <ele>280.39999389648</ele>
        <time>2015-10-14T13:48:46Z</time>
      </trkpt>
      <trkpt lat="43.38641" lon="6.11008">
        <ele>280.39999389648</ele>
        <time>2015-10-14T13:48:48Z</time>
      </trkpt>
      <trkpt lat="43.38642" lon="6.11011">
        <ele>280.20001220703</ele>
        <time>2015-10-14T13:48:53Z</time>
      </trkpt>
      <trkpt lat="43.38642" lon="6.11011">
        <ele>280</ele>
        <time>2015-10-14T13:49:00Z</time>
      </trkpt>
      <trkpt lat="43.38642" lon="6.11011">
        <ele>280.20001220703</ele>
        <time>2015-10-14T13:49:03Z</time>
      </trkpt>
      <trkpt lat="43.38642" lon="6.11011">
        <ele>280.20001220703</ele>
        <time>2015-10-14T13:49:23Z</time>
      </trkpt>
      <trkpt lat="43.38642" lon="6.11011">
        <ele>280</ele>
        <time>2015-10-14T13:49:28Z</time>
      </trkpt>
      <trkpt lat="43.38642" lon="6.11011">
        <ele>279.79998779297</ele>
        <time>2015-10-14T13:49:32Z</time>
      </trkpt>
      <trkpt lat="43.38648" lon="6.11018">
        <ele>279.20001220703</ele>
        <time>2015-10-14T13:49:38Z</time>
      </trkpt>
      <trkpt lat="43.3866" lon="6.11031">
        <ele>279</ele>
        <time>2015-10-14T13:49:42Z</time>
      </trkpt>
      <trkpt lat="43.38664" lon="6.11034">
        <ele>278.79998779297</ele>
        <time>2015-10-14T13:49:43Z</time>
      </trkpt>
      <trkpt lat="43.38668" lon="6.11037">
        <ele>278.60000610352</ele>
        <time>2015-10-14T13:49:44Z</time>
      </trkpt>
      <trkpt lat="43.38681" lon="6.11049">
        <ele>277.39999389648</ele>
        <time>2015-10-14T13:49:47Z</time>
      </trkpt>
      <trkpt lat="43.38684" lon="6.11054">
        <ele>277</ele>
        <time>2015-10-14T13:49:48Z</time>
      </trkpt>
      <trkpt lat="43.38689" lon="6.11058">
        <ele>277</ele>
        <time>2015-10-14T13:49:49Z</time>
      </trkpt>
      <trkpt lat="43.38699" lon="6.11065">
        <ele>276.79998779297</ele>
        <time>2015-10-14T13:49:52Z</time>
      </trkpt>
      <trkpt lat="43.38701" lon="6.11066">
        <ele>276.60000610352</ele>
        <time>2015-10-14T13:49:53Z</time>
      </trkpt>
      <trkpt lat="43.38704" lon="6.11068">
        <ele>276.20001220703</ele>
        <time>2015-10-14T13:49:55Z</time>
      </trkpt>
      <trkpt lat="43.38705" lon="6.11069">
        <ele>276.20001220703</ele>
        <time>2015-10-14T13:49:56Z</time>
      </trkpt>
      <trkpt lat="43.38706" lon="6.11072">
        <ele>276</ele>
        <time>2015-10-14T13:49:57Z</time>
      </trkpt>
      <trkpt lat="43.38707" lon="6.11077">
        <ele>275.79998779297</ele>
        <time>2015-10-14T13:49:59Z</time>
      </trkpt>
      <trkpt lat="43.38708" lon="6.11086">
        <ele>275.79998779297</ele>
        <time>2015-10-14T13:50:02Z</time>
      </trkpt>
      <trkpt lat="43.38711" lon="6.11103">
        <ele>275.79998779297</ele>
        <time>2015-10-14T13:50:08Z</time>
      </trkpt>
      <trkpt lat="43.38714" lon="6.11107">
        <ele>276</ele>
        <time>2015-10-14T13:50:12Z</time>
      </trkpt>
      <trkpt lat="43.38718" lon="6.11108">
        <ele>276.20001220703</ele>
        <time>2015-10-14T13:50:18Z</time>
      </trkpt>
      <trkpt lat="43.38721" lon="6.11108">
        <ele>276.20001220703</ele>
        <time>2015-10-14T13:50:20Z</time>
      </trkpt>
      <trkpt lat="43.38729" lon="6.11111">
        <ele>276.20001220703</ele>
        <time>2015-10-14T13:50:24Z</time>
      </trkpt>
      <trkpt lat="43.38745" lon="6.11116">
        <ele>276</ele>
        <time>2015-10-14T13:50:29Z</time>
      </trkpt>
      <trkpt lat="43.38762" lon="6.1112">
        <ele>275.79998779297</ele>
        <time>2015-10-14T13:50:34Z</time>
      </trkpt>
      <trkpt lat="43.38777" lon="6.11126">
        <ele>276.20001220703</ele>
        <time>2015-10-14T13:50:38Z</time>
      </trkpt>
      <trkpt lat="43.38796" lon="6.11138">
        <ele>275</ele>
        <time>2015-10-14T13:50:43Z</time>
      </trkpt>
      <trkpt lat="43.38803" lon="6.11144">
        <ele>275.20001220703</ele>
        <time>2015-10-14T13:50:45Z</time>
      </trkpt>
      <trkpt lat="43.38822" lon="6.1116">
        <ele>274.39999389648</ele>
        <time>2015-10-14T13:50:51Z</time>
      </trkpt>
      <trkpt lat="43.38826" lon="6.11162">
        <ele>274.39999389648</ele>
        <time>2015-10-14T13:50:52Z</time>
      </trkpt>
      <trkpt lat="43.38834" lon="6.11167">
        <ele>274</ele>
        <time>2015-10-14T13:50:54Z</time>
      </trkpt>
      <trkpt lat="43.38846" lon="6.11173">
        <ele>273.39999389648</ele>
        <time>2015-10-14T13:50:57Z</time>
      </trkpt>
      <trkpt lat="43.3885" lon="6.11175">
        <ele>273.60000610352</ele>
        <time>2015-10-14T13:50:58Z</time>
      </trkpt>
      <trkpt lat="43.38861" lon="6.11177">
        <ele>272.79998779297</ele>
        <time>2015-10-14T13:51:00Z</time>
      </trkpt>
      <trkpt lat="43.38871" lon="6.1118">
        <ele>271.79998779297</ele>
        <time>2015-10-14T13:51:02Z</time>
      </trkpt>
      <trkpt lat="43.38877" lon="6.1118">
        <ele>271.79998779297</ele>
        <time>2015-10-14T13:51:03Z</time>
      </trkpt>
      <trkpt lat="43.38898" lon="6.11183">
        <ele>271.20001220703</ele>
        <time>2015-10-14T13:51:07Z</time>
      </trkpt>
      <trkpt lat="43.38924" lon="6.1119">
        <ele>271.39999389648</ele>
        <time>2015-10-14T13:51:13Z</time>
      </trkpt>
      <trkpt lat="43.38945" lon="6.11195">
        <ele>272</ele>
        <time>2015-10-14T13:51:19Z</time>
      </trkpt>
      <trkpt lat="43.38953" lon="6.11196">
        <ele>272.39999389648</ele>
        <time>2015-10-14T13:51:23Z</time>
      </trkpt>
      <trkpt lat="43.38959" lon="6.11195">
        <ele>273</ele>
        <time>2015-10-14T13:51:26Z</time>
      </trkpt>
      <trkpt lat="43.3896" lon="6.11194">
        <ele>273</ele>
        <time>2015-10-14T13:51:27Z</time>
      </trkpt>
      <trkpt lat="43.3896" lon="6.11193">
        <ele>273.39999389648</ele>
        <time>2015-10-14T13:51:30Z</time>
      </trkpt>
      <trkpt lat="43.3896" lon="6.11193">
        <ele>272.39999389648</ele>
        <time>2015-10-14T13:51:43Z</time>
      </trkpt>
      <trkpt lat="43.38961" lon="6.11192">
        <ele>272.39999389648</ele>
        <time>2015-10-14T13:51:59Z</time>
      </trkpt>
      <trkpt lat="43.3896" lon="6.11191">
        <ele>272.39999389648</ele>
        <time>2015-10-14T13:52:11Z</time>
      </trkpt>
      <trkpt lat="43.3896" lon="6.11192">
        <ele>272.60000610352</ele>
        <time>2015-10-14T13:52:27Z</time>
      </trkpt>
      <trkpt lat="43.38961" lon="6.11192">
        <ele>272.39999389648</ele>
        <time>2015-10-14T13:52:45Z</time>
      </trkpt>
      <trkpt lat="43.38961" lon="6.11192">
        <ele>272.39999389648</ele>
        <time>2015-10-14T13:52:59Z</time>
      </trkpt>
      <trkpt lat="43.38962" lon="6.11192">
        <ele>272.39999389648</ele>
        <time>2015-10-14T13:53:11Z</time>
      </trkpt>
      <trkpt lat="43.38962" lon="6.11192">
        <ele>272.39999389648</ele>
        <time>2015-10-14T13:53:15Z</time>
      </trkpt>
      <trkpt lat="43.38963" lon="6.11192">
        <ele>272.79998779297</ele>
        <time>2015-10-14T13:53:17Z</time>
      </trkpt>
      <trkpt lat="43.38964" lon="6.11192">
        <ele>273.39999389648</ele>
        <time>2015-10-14T13:53:19Z</time>
      </trkpt>
      <trkpt lat="43.38964" lon="6.11191">
        <ele>273.60000610352</ele>
        <time>2015-10-14T13:53:23Z</time>
      </trkpt>
      <trkpt lat="43.38964" lon="6.11191">
        <ele>273.60000610352</ele>
        <time>2015-10-14T13:53:27Z</time>
      </trkpt>
      <trkpt lat="43.38965" lon="6.11191">
        <ele>273</ele>
        <time>2015-10-14T13:53:46Z</time>
      </trkpt>
      <trkpt lat="43.38965" lon="6.11191">
        <ele>273</ele>
        <time>2015-10-14T13:53:50Z</time>
      </trkpt>
      <trkpt lat="43.38965" lon="6.11192">
        <ele>273</ele>
        <time>2015-10-14T13:53:55Z</time>
      </trkpt>
      <trkpt lat="43.38965" lon="6.11192">
        <ele>273</ele>
        <time>2015-10-14T13:54:05Z</time>
      </trkpt>
      <trkpt lat="43.38965" lon="6.11192">
        <ele>273</ele>
        <time>2015-10-14T13:54:12Z</time>
      </trkpt>
      <trkpt lat="43.38968" lon="6.11194">
        <ele>273.60000610352</ele>
        <time>2015-10-14T13:54:21Z</time>
      </trkpt>
      <trkpt lat="43.38972" lon="6.11195">
        <ele>274.60000610352</ele>
        <time>2015-10-14T13:54:25Z</time>
      </trkpt>
      <trkpt lat="43.38975" lon="6.11196">
        <ele>275.20001220703</ele>
        <time>2015-10-14T13:54:28Z</time>
      </trkpt>
      <trkpt lat="43.38977" lon="6.11196">
        <ele>275.60000610352</ele>
        <time>2015-10-14T13:54:29Z</time>
      </trkpt>
      <trkpt lat="43.38983" lon="6.11196">
        <ele>276.60000610352</ele>
        <time>2015-10-14T13:54:34Z</time>
      </trkpt>
      <trkpt lat="43.38993" lon="6.11194">
        <ele>278</ele>
        <time>2015-10-14T13:54:41Z</time>
      </trkpt>
      <trkpt lat="43.38997" lon="6.11194">
        <ele>278.20001220703</ele>
        <time>2015-10-14T13:54:43Z</time>
      </trkpt>
      <trkpt lat="43.39002" lon="6.11196">
        <ele>279.39999389648</ele>
        <time>2015-10-14T13:54:46Z</time>
      </trkpt>
      <trkpt lat="43.39008" lon="6.112">
        <ele>280.39999389648</ele>
        <time>2015-10-14T13:54:50Z</time>
      </trkpt>
      <trkpt lat="43.39011" lon="6.11202">
        <ele>280.39999389648</ele>
        <time>2015-10-14T13:54:52Z</time>
      </trkpt>
      <trkpt lat="43.39016" lon="6.11207">
        <ele>281.20001220703</ele>
        <time>2015-10-14T13:54:56Z</time>
      </trkpt>
      <trkpt lat="43.39017" lon="6.11208">
        <ele>281.39999389648</ele>
        <time>2015-10-14T13:54:57Z</time>
      </trkpt>
      <trkpt lat="43.3902" lon="6.11212">
        <ele>281.60000610352</ele>
        <time>2015-10-14T13:54:59Z</time>
      </trkpt>
      <trkpt lat="43.39026" lon="6.11223">
        <ele>282.20001220703</ele>
        <time>2015-10-14T13:55:05Z</time>
      </trkpt>
      <trkpt lat="43.39029" lon="6.11227">
        <ele>282.60000610352</ele>
        <time>2015-10-14T13:55:07Z</time>
      </trkpt>
      <trkpt lat="43.39033" lon="6.11236">
        <ele>282.79998779297</ele>
        <time>2015-10-14T13:55:11Z</time>
      </trkpt>
      <trkpt lat="43.39035" lon="6.11238">
        <ele>282.79998779297</ele>
        <time>2015-10-14T13:55:12Z</time>
      </trkpt>
      <trkpt lat="43.39048" lon="6.11251">
        <ele>283.39999389648</ele>
        <time>2015-10-14T13:55:20Z</time>
      </trkpt>
      <trkpt lat="43.39057" lon="6.11266">
        <ele>283.79998779297</ele>
        <time>2015-10-14T13:55:27Z</time>
      </trkpt>
      <trkpt lat="43.39064" lon="6.11279">
        <ele>283.39999389648</ele>
        <time>2015-10-14T13:55:31Z</time>
      </trkpt>
      <trkpt lat="43.39069" lon="6.1129">
        <ele>282.79998779297</ele>
        <time>2015-10-14T13:55:34Z</time>
      </trkpt>
      <trkpt lat="43.39073" lon="6.11299">
        <ele>282.39999389648</ele>
        <time>2015-10-14T13:55:38Z</time>
      </trkpt>
      <trkpt lat="43.39075" lon="6.11302">
        <ele>282.20001220703</ele>
        <time>2015-10-14T13:55:40Z</time>
      </trkpt>
      <trkpt lat="43.39076" lon="6.11302">
        <ele>281.79998779297</ele>
        <time>2015-10-14T13:55:46Z</time>
      </trkpt>
      <trkpt lat="43.39076" lon="6.11303">
        <ele>282</ele>
        <time>2015-10-14T13:55:50Z</time>
      </trkpt>
      <trkpt lat="43.39076" lon="6.11303">
        <ele>281.79998779297</ele>
        <time>2015-10-14T13:55:52Z</time>
      </trkpt>
      <trkpt lat="43.39076" lon="6.11303">
        <ele>281.60000610352</ele>
        <time>2015-10-14T13:55:58Z</time>
      </trkpt>
      <trkpt lat="43.39076" lon="6.11303">
        <ele>281.79998779297</ele>
        <time>2015-10-14T13:56:29Z</time>
      </trkpt>
      <trkpt lat="43.39077" lon="6.11303">
        <ele>281.60000610352</ele>
        <time>2015-10-14T13:56:46Z</time>
      </trkpt>
      <trkpt lat="43.39079" lon="6.11302">
        <ele>281.60000610352</ele>
        <time>2015-10-14T13:56:49Z</time>
      </trkpt>
      <trkpt lat="43.3908" lon="6.11301">
        <ele>281.39999389648</ele>
        <time>2015-10-14T13:56:51Z</time>
      </trkpt>
      <trkpt lat="43.39083" lon="6.11299">
        <ele>281.60000610352</ele>
        <time>2015-10-14T13:57:00Z</time>
      </trkpt>
      <trkpt lat="43.39083" lon="6.11299">
        <ele>282</ele>
        <time>2015-10-14T13:57:13Z</time>
      </trkpt>
      <trkpt lat="43.39084" lon="6.11299">
        <ele>282</ele>
        <time>2015-10-14T13:57:16Z</time>
      </trkpt>
      <trkpt lat="43.39088" lon="6.11293">
        <ele>281.60000610352</ele>
        <time>2015-10-14T13:57:21Z</time>
      </trkpt>
      <trkpt lat="43.39092" lon="6.1128">
        <ele>280.79998779297</ele>
        <time>2015-10-14T13:57:24Z</time>
      </trkpt>
      <trkpt lat="43.39093" lon="6.11277">
        <ele>280.39999389648</ele>
        <time>2015-10-14T13:57:25Z</time>
      </trkpt>
      <trkpt lat="43.39097" lon="6.11264">
        <ele>280.60000610352</ele>
        <time>2015-10-14T13:57:30Z</time>
      </trkpt>
      <trkpt lat="43.391" lon="6.11251">
        <ele>281.20001220703</ele>
        <time>2015-10-14T13:57:35Z</time>
      </trkpt>
      <trkpt lat="43.391" lon="6.11248">
        <ele>281.20001220703</ele>
        <time>2015-10-14T13:57:36Z</time>
      </trkpt>
      <trkpt lat="43.39104" lon="6.1123">
        <ele>281.39999389648</ele>
        <time>2015-10-14T13:57:42Z</time>
      </trkpt>
      <trkpt lat="43.39107" lon="6.11208">
        <ele>281.39999389648</ele>
        <time>2015-10-14T13:57:47Z</time>
      </trkpt>
      <trkpt lat="43.39109" lon="6.11189">
        <ele>280.60000610352</ele>
        <time>2015-10-14T13:57:51Z</time>
      </trkpt>
      <trkpt lat="43.3911" lon="6.11177">
        <ele>280</ele>
        <time>2015-10-14T13:57:54Z</time>
      </trkpt>
      <trkpt lat="43.3911" lon="6.11175">
        <ele>279.79998779297</ele>
        <time>2015-10-14T13:57:55Z</time>
      </trkpt>
      <trkpt lat="43.39112" lon="6.11171">
        <ele>279</ele>
        <time>2015-10-14T13:57:59Z</time>
      </trkpt>
      <trkpt lat="43.39114" lon="6.1117">
        <ele>278.79998779297</ele>
        <time>2015-10-14T13:58:00Z</time>
      </trkpt>
      <trkpt lat="43.39115" lon="6.1117">
        <ele>278.60000610352</ele>
        <time>2015-10-14T13:58:02Z</time>
      </trkpt>
      <trkpt lat="43.39115" lon="6.1117">
        <ele>278.79998779297</ele>
        <time>2015-10-14T13:58:05Z</time>
      </trkpt>
      <trkpt lat="43.39116" lon="6.11169">
        <ele>278.79998779297</ele>
        <time>2015-10-14T13:58:16Z</time>
      </trkpt>
      <trkpt lat="43.39117" lon="6.11171">
        <ele>278.39999389648</ele>
        <time>2015-10-14T13:58:27Z</time>
      </trkpt>
      <trkpt lat="43.39118" lon="6.11171">
        <ele>278.39999389648</ele>
        <time>2015-10-14T13:58:28Z</time>
      </trkpt>
      <trkpt lat="43.39122" lon="6.11169">
        <ele>277.39999389648</ele>
        <time>2015-10-14T13:58:30Z</time>
      </trkpt>
      <trkpt lat="43.39126" lon="6.11167">
        <ele>276.39999389648</ele>
        <time>2015-10-14T13:58:32Z</time>
      </trkpt>
      <trkpt lat="43.39129" lon="6.11165">
        <ele>276.20001220703</ele>
        <time>2015-10-14T13:58:33Z</time>
      </trkpt>
      <trkpt lat="43.39135" lon="6.11158">
        <ele>275</ele>
        <time>2015-10-14T13:58:36Z</time>
      </trkpt>
      <trkpt lat="43.39138" lon="6.11146">
        <ele>274.20001220703</ele>
        <time>2015-10-14T13:58:40Z</time>
      </trkpt>
      <trkpt lat="43.39138" lon="6.11142">
        <ele>274.20001220703</ele>
        <time>2015-10-14T13:58:41Z</time>
      </trkpt>
      <trkpt lat="43.3914" lon="6.11123">
        <ele>274.20001220703</ele>
        <time>2015-10-14T13:58:47Z</time>
      </trkpt>
      <trkpt lat="43.3914" lon="6.11118">
        <ele>274.20001220703</ele>
        <time>2015-10-14T13:58:49Z</time>
      </trkpt>
      <trkpt lat="43.39141" lon="6.11117">
        <ele>273.79998779297</ele>
        <time>2015-10-14T13:58:51Z</time>
      </trkpt>
      <trkpt lat="43.39141" lon="6.11117">
        <ele>274</ele>
        <time>2015-10-14T13:58:54Z</time>
      </trkpt>
      <trkpt lat="43.39141" lon="6.11117">
        <ele>273.79998779297</ele>
        <time>2015-10-14T13:59:00Z</time>
      </trkpt>
      <trkpt lat="43.39142" lon="6.1111">
        <ele>273.20001220703</ele>
        <time>2015-10-14T13:59:06Z</time>
      </trkpt>
      <trkpt lat="43.39144" lon="6.1109">
        <ele>273</ele>
        <time>2015-10-14T13:59:12Z</time>
      </trkpt>
      <trkpt lat="43.39145" lon="6.11086">
        <ele>272.79998779297</ele>
        <time>2015-10-14T13:59:13Z</time>
      </trkpt>
      <trkpt lat="43.39145" lon="6.11065">
        <ele>272.39999389648</ele>
        <time>2015-10-14T13:59:18Z</time>
      </trkpt>
      <trkpt lat="43.39147" lon="6.11045">
        <ele>272.60000610352</ele>
        <time>2015-10-14T13:59:23Z</time>
      </trkpt>
      <trkpt lat="43.39151" lon="6.11027">
        <ele>272.20001220703</ele>
        <time>2015-10-14T13:59:27Z</time>
      </trkpt>
      <trkpt lat="43.39152" lon="6.11023">
        <ele>272.20001220703</ele>
        <time>2015-10-14T13:59:28Z</time>
      </trkpt>
      <trkpt lat="43.3915" lon="6.11009">
        <ele>271.79998779297</ele>
        <time>2015-10-14T13:59:31Z</time>
      </trkpt>
      <trkpt lat="43.39148" lon="6.10993">
        <ele>272.20001220703</ele>
        <time>2015-10-14T13:59:35Z</time>
      </trkpt>
      <trkpt lat="43.39153" lon="6.1098">
        <ele>272.20001220703</ele>
        <time>2015-10-14T13:59:39Z</time>
      </trkpt>
      <trkpt lat="43.39172" lon="6.10961">
        <ele>270</ele>
        <time>2015-10-14T13:59:47Z</time>
      </trkpt>
      <trkpt lat="43.39175" lon="6.10958">
        <ele>269.39999389648</ele>
        <time>2015-10-14T13:59:48Z</time>
      </trkpt>
      <trkpt lat="43.39177" lon="6.10954">
        <ele>269.39999389648</ele>
        <time>2015-10-14T13:59:49Z</time>
      </trkpt>
      <trkpt lat="43.39179" lon="6.10947">
        <ele>269.60000610352</ele>
        <time>2015-10-14T13:59:51Z</time>
      </trkpt>
      <trkpt lat="43.3919" lon="6.10929">
        <ele>269.39999389648</ele>
        <time>2015-10-14T13:59:56Z</time>
      </trkpt>
      <trkpt lat="43.39199" lon="6.10925">
        <ele>268</ele>
        <time>2015-10-14T13:59:59Z</time>
      </trkpt>
      <trkpt lat="43.39205" lon="6.10923">
        <ele>268.60000610352</ele>
        <time>2015-10-14T14:00:01Z</time>
      </trkpt>
      <trkpt lat="43.3921" lon="6.10915">
        <ele>268.39999389648</ele>
        <time>2015-10-14T14:00:04Z</time>
      </trkpt>
      <trkpt lat="43.39212" lon="6.10909">
        <ele>268.20001220703</ele>
        <time>2015-10-14T14:00:06Z</time>
      </trkpt>
      <trkpt lat="43.39221" lon="6.10896">
        <ele>268</ele>
        <time>2015-10-14T14:00:10Z</time>
      </trkpt>
      <trkpt lat="43.39223" lon="6.10893">
        <ele>268</ele>
        <time>2015-10-14T14:00:11Z</time>
      </trkpt>
      <trkpt lat="43.39229" lon="6.10872">
        <ele>269</ele>
        <time>2015-10-14T14:00:16Z</time>
      </trkpt>
      <trkpt lat="43.39228" lon="6.10858">
        <ele>269</ele>
        <time>2015-10-14T14:00:19Z</time>
      </trkpt>
      <trkpt lat="43.39228" lon="6.10843">
        <ele>269.20001220703</ele>
        <time>2015-10-14T14:00:22Z</time>
      </trkpt>
      <trkpt lat="43.39224" lon="6.1082">
        <ele>268.20001220703</ele>
        <time>2015-10-14T14:00:27Z</time>
      </trkpt>
      <trkpt lat="43.39223" lon="6.10817">
        <ele>267.79998779297</ele>
        <time>2015-10-14T14:00:28Z</time>
      </trkpt>
      <trkpt lat="43.39221" lon="6.10801">
        <ele>266.60000610352</ele>
        <time>2015-10-14T14:00:32Z</time>
      </trkpt>
      <trkpt lat="43.3922" lon="6.1078">
        <ele>266.39999389648</ele>
        <time>2015-10-14T14:00:37Z</time>
      </trkpt>
      <trkpt lat="43.39219" lon="6.10766">
        <ele>266.60000610352</ele>
        <time>2015-10-14T14:00:41Z</time>
      </trkpt>
      <trkpt lat="43.39217" lon="6.10749">
        <ele>266.79998779297</ele>
        <time>2015-10-14T14:00:46Z</time>
      </trkpt>
      <trkpt lat="43.39219" lon="6.1074">
        <ele>267</ele>
        <time>2015-10-14T14:00:51Z</time>
      </trkpt>
      <trkpt lat="43.39219" lon="6.10739">
        <ele>267.39999389648</ele>
        <time>2015-10-14T14:00:54Z</time>
      </trkpt>
      <trkpt lat="43.39219" lon="6.10738">
        <ele>267.60000610352</ele>
        <time>2015-10-14T14:01:03Z</time>
      </trkpt>
      <trkpt lat="43.39219" lon="6.10737">
        <ele>267.20001220703</ele>
        <time>2015-10-14T14:01:14Z</time>
      </trkpt>
      <trkpt lat="43.39219" lon="6.10737">
        <ele>267.39999389648</ele>
        <time>2015-10-14T14:01:22Z</time>
      </trkpt>
      <trkpt lat="43.39219" lon="6.10738">
        <ele>267.39999389648</ele>
        <time>2015-10-14T14:03:33Z</time>
      </trkpt>
      <trkpt lat="43.39219" lon="6.10737">
        <ele>267.20001220703</ele>
        <time>2015-10-14T14:03:51Z</time>
      </trkpt>
      <trkpt lat="43.39219" lon="6.10737">
        <ele>267.20001220703</ele>
        <time>2015-10-14T14:03:53Z</time>
      </trkpt>
      <trkpt lat="43.39219" lon="6.10737">
        <ele>267.79998779297</ele>
        <time>2015-10-14T14:04:18Z</time>
      </trkpt>
      <trkpt lat="43.39219" lon="6.10737">
        <ele>267.60000610352</ele>
        <time>2015-10-14T14:04:48Z</time>
      </trkpt>
      <trkpt lat="43.39219" lon="6.10737">
        <ele>267.39999389648</ele>
        <time>2015-10-14T14:05:34Z</time>
      </trkpt>
      <trkpt lat="43.39219" lon="6.10736">
        <ele>267.60000610352</ele>
        <time>2015-10-14T14:05:42Z</time>
      </trkpt>
      <trkpt lat="43.39218" lon="6.10736">
        <ele>267.60000610352</ele>
        <time>2015-10-14T14:05:52Z</time>
      </trkpt>
      <trkpt lat="43.39218" lon="6.10736">
        <ele>267.20001220703</ele>
        <time>2015-10-14T14:06:06Z</time>
      </trkpt>
      <trkpt lat="43.39214" lon="6.10729">
        <ele>267.39999389648</ele>
        <time>2015-10-14T14:06:11Z</time>
      </trkpt>
      <trkpt lat="43.39206" lon="6.10712">
        <ele>266.39999389648</ele>
        <time>2015-10-14T14:06:15Z</time>
      </trkpt>
      <trkpt lat="43.39203" lon="6.10707">
        <ele>266</ele>
        <time>2015-10-14T14:06:16Z</time>
      </trkpt>
      <trkpt lat="43.39199" lon="6.10702">
        <ele>265</ele>
        <time>2015-10-14T14:06:18Z</time>
      </trkpt>
      <trkpt lat="43.39198" lon="6.107">
        <ele>264.79998779297</ele>
        <time>2015-10-14T14:06:19Z</time>
      </trkpt>
      <trkpt lat="43.3919" lon="6.10689">
        <ele>264.79998779297</ele>
        <time>2015-10-14T14:06:25Z</time>
      </trkpt>
      <trkpt lat="43.39188" lon="6.10688">
        <ele>264.60000610352</ele>
        <time>2015-10-14T14:06:26Z</time>
      </trkpt>
      <trkpt lat="43.39184" lon="6.1069">
        <ele>264.60000610352</ele>
        <time>2015-10-14T14:06:29Z</time>
      </trkpt>
      <trkpt lat="43.3918" lon="6.10692">
        <ele>264.79998779297</ele>
        <time>2015-10-14T14:06:32Z</time>
      </trkpt>
      <trkpt lat="43.39178" lon="6.10697">
        <ele>265</ele>
        <time>2015-10-14T14:06:34Z</time>
      </trkpt>
      <trkpt lat="43.39176" lon="6.10704">
        <ele>265</ele>
        <time>2015-10-14T14:06:36Z</time>
      </trkpt>
      <trkpt lat="43.39174" lon="6.10714">
        <ele>265.20001220703</ele>
        <time>2015-10-14T14:06:39Z</time>
      </trkpt>
      <trkpt lat="43.39169" lon="6.10728">
        <ele>265.60000610352</ele>
        <time>2015-10-14T14:06:44Z</time>
      </trkpt>
      <trkpt lat="43.39162" lon="6.10739">
        <ele>266</ele>
        <time>2015-10-14T14:06:48Z</time>
      </trkpt>
      <trkpt lat="43.39156" lon="6.10745">
        <ele>266.20001220703</ele>
        <time>2015-10-14T14:06:50Z</time>
      </trkpt>
      <trkpt lat="43.39151" lon="6.1075">
        <ele>266.39999389648</ele>
        <time>2015-10-14T14:06:52Z</time>
      </trkpt>
      <trkpt lat="43.39143" lon="6.10755">
        <ele>267</ele>
        <time>2015-10-14T14:06:54Z</time>
      </trkpt>
      <trkpt lat="43.39139" lon="6.10757">
        <ele>267</ele>
        <time>2015-10-14T14:06:55Z</time>
      </trkpt>
      <trkpt lat="43.39135" lon="6.10759">
        <ele>267.20001220703</ele>
        <time>2015-10-14T14:06:56Z</time>
      </trkpt>
      <trkpt lat="43.3912" lon="6.10769">
        <ele>268.39999389648</ele>
        <time>2015-10-14T14:07:01Z</time>
      </trkpt>
      <trkpt lat="43.39108" lon="6.10778">
        <ele>268.60000610352</ele>
        <time>2015-10-14T14:07:05Z</time>
      </trkpt>
      <trkpt lat="43.39095" lon="6.10792">
        <ele>269.20001220703</ele>
        <time>2015-10-14T14:07:10Z</time>
      </trkpt>
      <trkpt lat="43.39072" lon="6.10809">
        <ele>269</ele>
        <time>2015-10-14T14:07:17Z</time>
      </trkpt>
      <trkpt lat="43.39048" lon="6.10819">
        <ele>268.79998779297</ele>
        <time>2015-10-14T14:07:23Z</time>
      </trkpt>
      <trkpt lat="43.39032" lon="6.10825">
        <ele>269.60000610352</ele>
        <time>2015-10-14T14:07:28Z</time>
      </trkpt>
      <trkpt lat="43.39021" lon="6.10829">
        <ele>270</ele>
        <time>2015-10-14T14:07:32Z</time>
      </trkpt>
      <trkpt lat="43.38997" lon="6.1084">
        <ele>270.79998779297</ele>
        <time>2015-10-14T14:07:39Z</time>
      </trkpt>
      <trkpt lat="43.38977" lon="6.10834">
        <ele>270</ele>
        <time>2015-10-14T14:07:45Z</time>
      </trkpt>
      <trkpt lat="43.38954" lon="6.10828">
        <ele>270.39999389648</ele>
        <time>2015-10-14T14:07:52Z</time>
      </trkpt>
      <trkpt lat="43.38933" lon="6.10817">
        <ele>269.79998779297</ele>
        <time>2015-10-14T14:07:59Z</time>
      </trkpt>
      <trkpt lat="43.38931" lon="6.10815">
        <ele>270</ele>
        <time>2015-10-14T14:08:00Z</time>
      </trkpt>
      <trkpt lat="43.38923" lon="6.10795">
        <ele>269.79998779297</ele>
        <time>2015-10-14T14:08:06Z</time>
      </trkpt>
      <trkpt lat="43.38911" lon="6.10768">
        <ele>270.60000610352</ele>
        <time>2015-10-14T14:08:14Z</time>
      </trkpt>
      <trkpt lat="43.38907" lon="6.10764">
        <ele>271</ele>
        <time>2015-10-14T14:08:16Z</time>
      </trkpt>
      <trkpt lat="43.38898" lon="6.1076">
        <ele>271</ele>
        <time>2015-10-14T14:08:19Z</time>
      </trkpt>
      <trkpt lat="43.38872" lon="6.10753">
        <ele>271.79998779297</ele>
        <time>2015-10-14T14:08:28Z</time>
      </trkpt>
      <trkpt lat="43.38863" lon="6.10752">
        <ele>272.39999389648</ele>
        <time>2015-10-14T14:08:31Z</time>
      </trkpt>
      <trkpt lat="43.38848" lon="6.10753">
        <ele>272.60000610352</ele>
        <time>2015-10-14T14:08:36Z</time>
      </trkpt>
      <trkpt lat="43.38831" lon="6.10753">
        <ele>273.39999389648</ele>
        <time>2015-10-14T14:08:42Z</time>
      </trkpt>
      <trkpt lat="43.38826" lon="6.10754">
        <ele>273.39999389648</ele>
        <time>2015-10-14T14:08:44Z</time>
      </trkpt>
      <trkpt lat="43.38806" lon="6.10756">
        <ele>273.79998779297</ele>
        <time>2015-10-14T14:08:51Z</time>
      </trkpt>
      <trkpt lat="43.38789" lon="6.10756">
        <ele>274.60000610352</ele>
        <time>2015-10-14T14:08:57Z</time>
      </trkpt>
      <trkpt lat="43.38786" lon="6.10756">
        <ele>274.60000610352</ele>
        <time>2015-10-14T14:08:58Z</time>
      </trkpt>
      <trkpt lat="43.38776" lon="6.10752">
        <ele>275.60000610352</ele>
        <time>2015-10-14T14:09:03Z</time>
      </trkpt>
      <trkpt lat="43.38776" lon="6.10751">
        <ele>275.79998779297</ele>
        <time>2015-10-14T14:09:04Z</time>
      </trkpt>
      <trkpt lat="43.38772" lon="6.10744">
        <ele>276.39999389648</ele>
        <time>2015-10-14T14:09:10Z</time>
      </trkpt>
      <trkpt lat="43.38772" lon="6.10741">
        <ele>276.39999389648</ele>
        <time>2015-10-14T14:09:15Z</time>
      </trkpt>
      <trkpt lat="43.38772" lon="6.10741">
        <ele>276.20001220703</ele>
        <time>2015-10-14T14:09:19Z</time>
      </trkpt>
      <trkpt lat="43.38772" lon="6.10741">
        <ele>276.39999389648</ele>
        <time>2015-10-14T14:09:23Z</time>
      </trkpt>
      <trkpt lat="43.38772" lon="6.10741">
        <ele>276</ele>
        <time>2015-10-14T14:09:36Z</time>
      </trkpt>
      <trkpt lat="43.38772" lon="6.10741">
        <ele>276.20001220703</ele>
        <time>2015-10-14T14:09:46Z</time>
      </trkpt>
      <trkpt lat="43.38772" lon="6.10741">
        <ele>276.39999389648</ele>
        <time>2015-10-14T14:09:49Z</time>
      </trkpt>
      <trkpt lat="43.38772" lon="6.1074">
        <ele>276.39999389648</ele>
        <time>2015-10-14T14:10:03Z</time>
      </trkpt>
      <trkpt lat="43.38772" lon="6.10739">
        <ele>276.20001220703</ele>
        <time>2015-10-14T14:10:04Z</time>
      </trkpt>
      <trkpt lat="43.38772" lon="6.10737">
        <ele>276.39999389648</ele>
        <time>2015-10-14T14:10:05Z</time>
      </trkpt>
      <trkpt lat="43.38774" lon="6.10728">
        <ele>276.79998779297</ele>
        <time>2015-10-14T14:10:08Z</time>
      </trkpt>
      <trkpt lat="43.38776" lon="6.10719">
        <ele>276.79998779297</ele>
        <time>2015-10-14T14:10:10Z</time>
      </trkpt>
      <trkpt lat="43.3878" lon="6.10699">
        <ele>277.39999389648</ele>
        <time>2015-10-14T14:10:15Z</time>
      </trkpt>
      <trkpt lat="43.38782" lon="6.10691">
        <ele>278</ele>
        <time>2015-10-14T14:10:17Z</time>
      </trkpt>
      <trkpt lat="43.38788" lon="6.10662">
        <ele>278.60000610352</ele>
        <time>2015-10-14T14:10:24Z</time>
      </trkpt>
      <trkpt lat="43.38793" lon="6.10643">
        <ele>279.39999389648</ele>
        <time>2015-10-14T14:10:29Z</time>
      </trkpt>
      <trkpt lat="43.38794" lon="6.10641">
        <ele>279.60000610352</ele>
        <time>2015-10-14T14:10:30Z</time>
      </trkpt>
      <trkpt lat="43.38795" lon="6.10634">
        <ele>279.39999389648</ele>
        <time>2015-10-14T14:10:35Z</time>
      </trkpt>
      <trkpt lat="43.38795" lon="6.10632">
        <ele>279.79998779297</ele>
        <time>2015-10-14T14:10:37Z</time>
      </trkpt>
      <trkpt lat="43.38797" lon="6.10624">
        <ele>279.79998779297</ele>
        <time>2015-10-14T14:10:40Z</time>
      </trkpt>
      <trkpt lat="43.38798" lon="6.10615">
        <ele>280.39999389648</ele>
        <time>2015-10-14T14:10:43Z</time>
      </trkpt>
      <trkpt lat="43.38801" lon="6.10601">
        <ele>281</ele>
        <time>2015-10-14T14:10:47Z</time>
      </trkpt>
      <trkpt lat="43.38805" lon="6.10588">
        <ele>281.60000610352</ele>
        <time>2015-10-14T14:10:51Z</time>
      </trkpt>
      <trkpt lat="43.38807" lon="6.10561">
        <ele>282.79998779297</ele>
        <time>2015-10-14T14:11:00Z</time>
      </trkpt>
      <trkpt lat="43.38808" lon="6.10559">
        <ele>283</ele>
        <time>2015-10-14T14:11:01Z</time>
      </trkpt>
      <trkpt lat="43.38813" lon="6.10548">
        <ele>283</ele>
        <time>2015-10-14T14:11:05Z</time>
      </trkpt>
      <trkpt lat="43.38814" lon="6.1053">
        <ele>283.60000610352</ele>
        <time>2015-10-14T14:11:11Z</time>
      </trkpt>
      <trkpt lat="43.38815" lon="6.10522">
        <ele>283.79998779297</ele>
        <time>2015-10-14T14:11:14Z</time>
      </trkpt>
      <trkpt lat="43.38817" lon="6.10515">
        <ele>283.79998779297</ele>
        <time>2015-10-14T14:11:17Z</time>
      </trkpt>
      <trkpt lat="43.38822" lon="6.10496">
        <ele>284.20001220703</ele>
        <time>2015-10-14T14:11:24Z</time>
      </trkpt>
      <trkpt lat="43.38824" lon="6.10483">
        <ele>284.79998779297</ele>
        <time>2015-10-14T14:11:29Z</time>
      </trkpt>
      <trkpt lat="43.38826" lon="6.10465">
        <ele>285.20001220703</ele>
        <time>2015-10-14T14:11:36Z</time>
      </trkpt>
      <trkpt lat="43.38827" lon="6.1045">
        <ele>285.79998779297</ele>
        <time>2015-10-14T14:11:41Z</time>
      </trkpt>
      <trkpt lat="43.38827" lon="6.10443">
        <ele>286</ele>
        <time>2015-10-14T14:11:44Z</time>
      </trkpt>
      <trkpt lat="43.38829" lon="6.10432">
        <ele>287</ele>
        <time>2015-10-14T14:11:49Z</time>
      </trkpt>
      <trkpt lat="43.38831" lon="6.10414">
        <ele>287.79998779297</ele>
        <time>2015-10-14T14:11:57Z</time>
      </trkpt>
      <trkpt lat="43.38833" lon="6.10398">
        <ele>288.20001220703</ele>
        <time>2015-10-14T14:12:03Z</time>
      </trkpt>
      <trkpt lat="43.38833" lon="6.10396">
        <ele>288.60000610352</ele>
        <time>2015-10-14T14:12:04Z</time>
      </trkpt>
      <trkpt lat="43.38833" lon="6.10383">
        <ele>289.20001220703</ele>
        <time>2015-10-14T14:12:09Z</time>
      </trkpt>
      <trkpt lat="43.38833" lon="6.1037">
        <ele>289.60000610352</ele>
        <time>2015-10-14T14:12:14Z</time>
      </trkpt>
      <trkpt lat="43.38831" lon="6.1035">
        <ele>290.79998779297</ele>
        <time>2015-10-14T14:12:22Z</time>
      </trkpt>
      <trkpt lat="43.38832" lon="6.10331">
        <ele>290.60000610352</ele>
        <time>2015-10-14T14:12:29Z</time>
      </trkpt>
      <trkpt lat="43.38831" lon="6.10313">
        <ele>291</ele>
        <time>2015-10-14T14:12:35Z</time>
      </trkpt>
      <trkpt lat="43.38831" lon="6.10301">
        <ele>291.20001220703</ele>
        <time>2015-10-14T14:12:39Z</time>
      </trkpt>
      <trkpt lat="43.38831" lon="6.10295">
        <ele>291.60000610352</ele>
        <time>2015-10-14T14:12:41Z</time>
      </trkpt>
      <trkpt lat="43.38831" lon="6.10292">
        <ele>291.79998779297</ele>
        <time>2015-10-14T14:12:42Z</time>
      </trkpt>
      <trkpt lat="43.38829" lon="6.10273">
        <ele>292.39999389648</ele>
        <time>2015-10-14T14:12:49Z</time>
      </trkpt>
      <trkpt lat="43.38826" lon="6.10252">
        <ele>292.79998779297</ele>
        <time>2015-10-14T14:12:57Z</time>
      </trkpt>
      <trkpt lat="43.38824" lon="6.10242">
        <ele>294</ele>
        <time>2015-10-14T14:13:01Z</time>
      </trkpt>
      <trkpt lat="43.38823" lon="6.10237">
        <ele>294.39999389648</ele>
        <time>2015-10-14T14:13:03Z</time>
      </trkpt>
      <trkpt lat="43.38819" lon="6.10226">
        <ele>295</ele>
        <time>2015-10-14T14:13:08Z</time>
      </trkpt>
      <trkpt lat="43.38819" lon="6.10223">
        <ele>295.20001220703</ele>
        <time>2015-10-14T14:13:09Z</time>
      </trkpt>
      <trkpt lat="43.38818" lon="6.10221">
        <ele>295.39999389648</ele>
        <time>2015-10-14T14:13:10Z</time>
      </trkpt>
      <trkpt lat="43.38818" lon="6.10218">
        <ele>295.60000610352</ele>
        <time>2015-10-14T14:13:14Z</time>
      </trkpt>
      <trkpt lat="43.38818" lon="6.10218">
        <ele>295.60000610352</ele>
        <time>2015-10-14T14:13:17Z</time>
      </trkpt>
      <trkpt lat="43.38818" lon="6.10218">
        <ele>295.60000610352</ele>
        <time>2015-10-14T14:13:23Z</time>
      </trkpt>
      <trkpt lat="43.38818" lon="6.10218">
        <ele>295.60000610352</ele>
        <time>2015-10-14T14:13:28Z</time>
      </trkpt>
      <trkpt lat="43.38818" lon="6.10218">
        <ele>295.39999389648</ele>
        <time>2015-10-14T14:13:38Z</time>
      </trkpt>
      <trkpt lat="43.38818" lon="6.10218">
        <ele>295.39999389648</ele>
        <time>2015-10-14T14:13:42Z</time>
      </trkpt>
      <trkpt lat="43.38818" lon="6.10217">
        <ele>295</ele>
        <time>2015-10-14T14:14:32Z</time>
      </trkpt>
      <trkpt lat="43.38818" lon="6.10218">
        <ele>294.79998779297</ele>
        <time>2015-10-14T14:15:03Z</time>
      </trkpt>
      <trkpt lat="43.38818" lon="6.10218">
        <ele>295</ele>
        <time>2015-10-14T14:15:12Z</time>
      </trkpt>
      <trkpt lat="43.38818" lon="6.10218">
        <ele>295</ele>
        <time>2015-10-14T14:15:24Z</time>
      </trkpt>
      <trkpt lat="43.38818" lon="6.10218">
        <ele>295</ele>
        <time>2015-10-14T14:15:38Z</time>
      </trkpt>
      <trkpt lat="43.38818" lon="6.10211">
        <ele>295</ele>
        <time>2015-10-14T14:15:43Z</time>
      </trkpt>
      <trkpt lat="43.3882" lon="6.10202">
        <ele>294.60000610352</ele>
        <time>2015-10-14T14:15:46Z</time>
      </trkpt>
      <trkpt lat="43.38821" lon="6.10195">
        <ele>294.79998779297</ele>
        <time>2015-10-14T14:15:48Z</time>
      </trkpt>
      <trkpt lat="43.38824" lon="6.10187">
        <ele>293.60000610352</ele>
        <time>2015-10-14T14:15:51Z</time>
      </trkpt>
      <trkpt lat="43.38826" lon="6.10182">
        <ele>293</ele>
        <time>2015-10-14T14:15:53Z</time>
      </trkpt>
      <trkpt lat="43.38826" lon="6.10176">
        <ele>292.60000610352</ele>
        <time>2015-10-14T14:15:55Z</time>
      </trkpt>
      <trkpt lat="43.38825" lon="6.10169">
        <ele>292.60000610352</ele>
        <time>2015-10-14T14:15:57Z</time>
      </trkpt>
      <trkpt lat="43.38825" lon="6.10162">
        <ele>292.39999389648</ele>
        <time>2015-10-14T14:16:00Z</time>
      </trkpt>
      <trkpt lat="43.38825" lon="6.1016">
        <ele>292.39999389648</ele>
        <time>2015-10-14T14:16:02Z</time>
      </trkpt>
      <trkpt lat="43.38825" lon="6.10158">
        <ele>292</ele>
        <time>2015-10-14T14:16:08Z</time>
      </trkpt>
      <trkpt lat="43.38824" lon="6.10156">
        <ele>292</ele>
        <time>2015-10-14T14:16:14Z</time>
      </trkpt>
      <trkpt lat="43.38824" lon="6.10149">
        <ele>292.20001220703</ele>
        <time>2015-10-14T14:16:19Z</time>
      </trkpt>
      <trkpt lat="43.38828" lon="6.10136">
        <ele>292.79998779297</ele>
        <time>2015-10-14T14:16:23Z</time>
      </trkpt>
      <trkpt lat="43.38831" lon="6.10128">
        <ele>293.20001220703</ele>
        <time>2015-10-14T14:16:26Z</time>
      </trkpt>
      <trkpt lat="43.38836" lon="6.10111">
        <ele>293.60000610352</ele>
        <time>2015-10-14T14:16:32Z</time>
      </trkpt>
      <trkpt lat="43.38836" lon="6.10106">
        <ele>293.60000610352</ele>
        <time>2015-10-14T14:16:34Z</time>
      </trkpt>
      <trkpt lat="43.38839" lon="6.10089">
        <ele>294.79998779297</ele>
        <time>2015-10-14T14:16:40Z</time>
      </trkpt>
      <trkpt lat="43.38843" lon="6.10073">
        <ele>295</ele>
        <time>2015-10-14T14:16:46Z</time>
      </trkpt>
      <trkpt lat="43.38845" lon="6.10068">
        <ele>295.20001220703</ele>
        <time>2015-10-14T14:16:48Z</time>
      </trkpt>
      <trkpt lat="43.38848" lon="6.10057">
        <ele>295.79998779297</ele>
        <time>2015-10-14T14:16:52Z</time>
      </trkpt>
      <trkpt lat="43.38849" lon="6.10054">
        <ele>295.79998779297</ele>
        <time>2015-10-14T14:16:53Z</time>
      </trkpt>
      <trkpt lat="43.38852" lon="6.10039">
        <ele>296.79998779297</ele>
        <time>2015-10-14T14:16:59Z</time>
      </trkpt>
      <trkpt lat="43.38853" lon="6.10034">
        <ele>297</ele>
        <time>2015-10-14T14:17:01Z</time>
      </trkpt>
      <trkpt lat="43.38856" lon="6.10023">
        <ele>298</ele>
        <time>2015-10-14T14:17:06Z</time>
      </trkpt>
      <trkpt lat="43.38858" lon="6.10016">
        <ele>298.79998779297</ele>
        <time>2015-10-14T14:17:10Z</time>
      </trkpt>
      <trkpt lat="43.38861" lon="6.10005">
        <ele>299.20001220703</ele>
        <time>2015-10-14T14:17:16Z</time>
      </trkpt>
      <trkpt lat="43.38861" lon="6.10003">
        <ele>299.20001220703</ele>
        <time>2015-10-14T14:17:17Z</time>
      </trkpt>
      <trkpt lat="43.38863" lon="6.09992">
        <ele>300</ele>
        <time>2015-10-14T14:17:22Z</time>
      </trkpt>
      <trkpt lat="43.38863" lon="6.09986">
        <ele>300.39999389648</ele>
        <time>2015-10-14T14:17:25Z</time>
      </trkpt>
      <trkpt lat="43.38863" lon="6.09978">
        <ele>300.79998779297</ele>
        <time>2015-10-14T14:17:29Z</time>
      </trkpt>
      <trkpt lat="43.38864" lon="6.09962">
        <ele>301.39999389648</ele>
        <time>2015-10-14T14:17:36Z</time>
      </trkpt>
      <trkpt lat="43.38865" lon="6.09951">
        <ele>302.39999389648</ele>
        <time>2015-10-14T14:17:44Z</time>
      </trkpt>
      <trkpt lat="43.38867" lon="6.09943">
        <ele>303</ele>
        <time>2015-10-14T14:17:50Z</time>
      </trkpt>
      <trkpt lat="43.38871" lon="6.09929">
        <ele>303.60000610352</ele>
        <time>2015-10-14T14:17:57Z</time>
      </trkpt>
      <trkpt lat="43.38875" lon="6.09919">
        <ele>304.79998779297</ele>
        <time>2015-10-14T14:18:03Z</time>
      </trkpt>
      <trkpt lat="43.38876" lon="6.09915">
        <ele>305.20001220703</ele>
        <time>2015-10-14T14:18:05Z</time>
      </trkpt>
      <trkpt lat="43.38881" lon="6.09888">
        <ele>306.60000610352</ele>
        <time>2015-10-14T14:18:19Z</time>
      </trkpt>
      <trkpt lat="43.38881" lon="6.09886">
        <ele>307</ele>
        <time>2015-10-14T14:18:20Z</time>
      </trkpt>
      <trkpt lat="43.38882" lon="6.0988">
        <ele>308</ele>
        <time>2015-10-14T14:18:23Z</time>
      </trkpt>
      <trkpt lat="43.38883" lon="6.09874">
        <ele>308.60000610352</ele>
        <time>2015-10-14T14:18:26Z</time>
      </trkpt>
      <trkpt lat="43.38884" lon="6.09868">
        <ele>309.20001220703</ele>
        <time>2015-10-14T14:18:29Z</time>
      </trkpt>
      <trkpt lat="43.38887" lon="6.09857">
        <ele>310.39999389648</ele>
        <time>2015-10-14T14:18:35Z</time>
      </trkpt>
      <trkpt lat="43.38887" lon="6.09855">
        <ele>310.39999389648</ele>
        <time>2015-10-14T14:18:36Z</time>
      </trkpt>
      <trkpt lat="43.38887" lon="6.0985">
        <ele>311.39999389648</ele>
        <time>2015-10-14T14:18:39Z</time>
      </trkpt>
      <trkpt lat="43.38888" lon="6.09848">
        <ele>311.60000610352</ele>
        <time>2015-10-14T14:18:40Z</time>
      </trkpt>
      <trkpt lat="43.38889" lon="6.0984">
        <ele>312.39999389648</ele>
        <time>2015-10-14T14:18:45Z</time>
      </trkpt>
      <trkpt lat="43.38889" lon="6.09837">
        <ele>313</ele>
        <time>2015-10-14T14:18:47Z</time>
      </trkpt>
      <trkpt lat="43.38889" lon="6.09832">
        <ele>313.60000610352</ele>
        <time>2015-10-14T14:18:50Z</time>
      </trkpt>
      <trkpt lat="43.38889" lon="6.09824">
        <ele>314.20001220703</ele>
        <time>2015-10-14T14:18:55Z</time>
      </trkpt>
      <trkpt lat="43.38889" lon="6.09819">
        <ele>314.79998779297</ele>
        <time>2015-10-14T14:18:58Z</time>
      </trkpt>
      <trkpt lat="43.3889" lon="6.09813">
        <ele>315.39999389648</ele>
        <time>2015-10-14T14:19:02Z</time>
      </trkpt>
      <trkpt lat="43.38891" lon="6.09808">
        <ele>315.79998779297</ele>
        <time>2015-10-14T14:19:05Z</time>
      </trkpt>
      <trkpt lat="43.38892" lon="6.09804">
        <ele>316.39999389648</ele>
        <time>2015-10-14T14:19:08Z</time>
      </trkpt>
      <trkpt lat="43.38893" lon="6.09801">
        <ele>316.79998779297</ele>
        <time>2015-10-14T14:19:10Z</time>
      </trkpt>
      <trkpt lat="43.38894" lon="6.09798">
        <ele>317</ele>
        <time>2015-10-14T14:19:12Z</time>
      </trkpt>
      <trkpt lat="43.38896" lon="6.09789">
        <ele>317.79998779297</ele>
        <time>2015-10-14T14:19:18Z</time>
      </trkpt>
      <trkpt lat="43.38897" lon="6.09784">
        <ele>318</ele>
        <time>2015-10-14T14:19:21Z</time>
      </trkpt>
      <trkpt lat="43.38899" lon="6.09776">
        <ele>319.20001220703</ele>
        <time>2015-10-14T14:19:26Z</time>
      </trkpt>
      <trkpt lat="43.38901" lon="6.09763">
        <ele>320.20001220703</ele>
        <time>2015-10-14T14:19:34Z</time>
      </trkpt>
      <trkpt lat="43.38903" lon="6.09748">
        <ele>320.60000610352</ele>
        <time>2015-10-14T14:19:42Z</time>
      </trkpt>
      <trkpt lat="43.38904" lon="6.09731">
        <ele>321.20001220703</ele>
        <time>2015-10-14T14:19:50Z</time>
      </trkpt>
      <trkpt lat="43.38904" lon="6.09728">
        <ele>321.20001220703</ele>
        <time>2015-10-14T14:19:51Z</time>
      </trkpt>
      <trkpt lat="43.38903" lon="6.09726">
        <ele>321.39999389648</ele>
        <time>2015-10-14T14:19:52Z</time>
      </trkpt>
      <trkpt lat="43.38902" lon="6.09716">
        <ele>321.79998779297</ele>
        <time>2015-10-14T14:19:57Z</time>
      </trkpt>
      <trkpt lat="43.38901" lon="6.09708">
        <ele>322.39999389648</ele>
        <time>2015-10-14T14:20:01Z</time>
      </trkpt>
      <trkpt lat="43.38898" lon="6.09687">
        <ele>323.60000610352</ele>
        <time>2015-10-14T14:20:10Z</time>
      </trkpt>
      <trkpt lat="43.38898" lon="6.09679">
        <ele>323.79998779297</ele>
        <time>2015-10-14T14:20:13Z</time>
      </trkpt>
      <trkpt lat="43.38898" lon="6.09658">
        <ele>324.60000610352</ele>
        <time>2015-10-14T14:20:22Z</time>
      </trkpt>
      <trkpt lat="43.38897" lon="6.09639">
        <ele>325.60000610352</ele>
        <time>2015-10-14T14:20:30Z</time>
      </trkpt>
      <trkpt lat="43.38893" lon="6.09626">
        <ele>326</ele>
        <time>2015-10-14T14:20:37Z</time>
      </trkpt>
      <trkpt lat="43.38884" lon="6.09613">
        <ele>326.20001220703</ele>
        <time>2015-10-14T14:20:43Z</time>
      </trkpt>
      <trkpt lat="43.38879" lon="6.09596">
        <ele>326.20001220703</ele>
        <time>2015-10-14T14:20:48Z</time>
      </trkpt>
      <trkpt lat="43.38877" lon="6.09581">
        <ele>327</ele>
        <time>2015-10-14T14:20:53Z</time>
      </trkpt>
      <trkpt lat="43.38876" lon="6.0957">
        <ele>327.60000610352</ele>
        <time>2015-10-14T14:20:57Z</time>
      </trkpt>
      <trkpt lat="43.38876" lon="6.09559">
        <ele>328</ele>
        <time>2015-10-14T14:21:01Z</time>
      </trkpt>
      <trkpt lat="43.38875" lon="6.09551">
        <ele>328.39999389648</ele>
        <time>2015-10-14T14:21:04Z</time>
      </trkpt>
      <trkpt lat="43.38874" lon="6.09536">
        <ele>329</ele>
        <time>2015-10-14T14:21:09Z</time>
      </trkpt>
      <trkpt lat="43.38874" lon="6.09522">
        <ele>328.79998779297</ele>
        <time>2015-10-14T14:21:13Z</time>
      </trkpt>
      <trkpt lat="43.38873" lon="6.09495">
        <ele>328.39999389648</ele>
        <time>2015-10-14T14:21:21Z</time>
      </trkpt>
      <trkpt lat="43.38876" lon="6.09477">
        <ele>329.20001220703</ele>
        <time>2015-10-14T14:21:27Z</time>
      </trkpt>
      <trkpt lat="43.38879" lon="6.0946">
        <ele>329.39999389648</ele>
        <time>2015-10-14T14:21:34Z</time>
      </trkpt>
      <trkpt lat="43.38878" lon="6.09449">
        <ele>329.79998779297</ele>
        <time>2015-10-14T14:21:39Z</time>
      </trkpt>
      <trkpt lat="43.38874" lon="6.09439">
        <ele>330</ele>
        <time>2015-10-14T14:21:44Z</time>
      </trkpt>
      <trkpt lat="43.38875" lon="6.09437">
        <ele>329.79998779297</ele>
        <time>2015-10-14T14:21:45Z</time>
      </trkpt>
      <trkpt lat="43.38877" lon="6.09432">
        <ele>329.79998779297</ele>
        <time>2015-10-14T14:21:48Z</time>
      </trkpt>
      <trkpt lat="43.38878" lon="6.09431">
        <ele>330</ele>
        <time>2015-10-14T14:21:49Z</time>
      </trkpt>
      <trkpt lat="43.38879" lon="6.09429">
        <ele>329.79998779297</ele>
        <time>2015-10-14T14:21:54Z</time>
      </trkpt>
      <trkpt lat="43.38879" lon="6.09429">
        <ele>330.20001220703</ele>
        <time>2015-10-14T14:22:00Z</time>
      </trkpt>
      <trkpt lat="43.38878" lon="6.09429">
        <ele>330.20001220703</ele>
        <time>2015-10-14T14:22:06Z</time>
      </trkpt>
      <trkpt lat="43.38878" lon="6.09427">
        <ele>330.20001220703</ele>
        <time>2015-10-14T14:22:14Z</time>
      </trkpt>
      <trkpt lat="43.38877" lon="6.09427">
        <ele>330.20001220703</ele>
        <time>2015-10-14T14:22:17Z</time>
      </trkpt>
      <trkpt lat="43.38877" lon="6.09427">
        <ele>330.20001220703</ele>
        <time>2015-10-14T14:22:27Z</time>
      </trkpt>
      <trkpt lat="43.38877" lon="6.09427">
        <ele>330</ele>
        <time>2015-10-14T14:23:14Z</time>
      </trkpt>
      <trkpt lat="43.38878" lon="6.09427">
        <ele>329.60000610352</ele>
        <time>2015-10-14T14:23:25Z</time>
      </trkpt>
      <trkpt lat="43.38878" lon="6.09427">
        <ele>329.39999389648</ele>
        <time>2015-10-14T14:23:28Z</time>
      </trkpt>
      <trkpt lat="43.38877" lon="6.09427">
        <ele>330.20001220703</ele>
        <time>2015-10-14T14:23:45Z</time>
      </trkpt>
      <trkpt lat="43.38877" lon="6.09427">
        <ele>330</ele>
        <time>2015-10-14T14:24:14Z</time>
      </trkpt>
      <trkpt lat="43.38877" lon="6.09427">
        <ele>330.39999389648</ele>
        <time>2015-10-14T14:24:19Z</time>
      </trkpt>
      <trkpt lat="43.38879" lon="6.09427">
        <ele>330</ele>
        <time>2015-10-14T14:24:24Z</time>
      </trkpt>
      <trkpt lat="43.38881" lon="6.09425">
        <ele>329.39999389648</ele>
        <time>2015-10-14T14:24:30Z</time>
      </trkpt>
      <trkpt lat="43.38881" lon="6.09425">
        <ele>329.20001220703</ele>
        <time>2015-10-14T14:24:31Z</time>
      </trkpt>
      <trkpt lat="43.38881" lon="6.09424">
        <ele>328.60000610352</ele>
        <time>2015-10-14T14:24:39Z</time>
      </trkpt>
      <trkpt lat="43.38884" lon="6.09421">
        <ele>328.20001220703</ele>
        <time>2015-10-14T14:24:43Z</time>
      </trkpt>
      <trkpt lat="43.38886" lon="6.09419">
        <ele>327.60000610352</ele>
        <time>2015-10-14T14:24:45Z</time>
      </trkpt>
      <trkpt lat="43.38886" lon="6.09418">
        <ele>327</ele>
        <time>2015-10-14T14:24:47Z</time>
      </trkpt>
      <trkpt lat="43.38886" lon="6.09418">
        <ele>327</ele>
        <time>2015-10-14T14:24:51Z</time>
      </trkpt>
      <trkpt lat="43.38886" lon="6.09416">
        <ele>327</ele>
        <time>2015-10-14T14:25:01Z</time>
      </trkpt>
      <trkpt lat="43.38887" lon="6.09412">
        <ele>326.60000610352</ele>
        <time>2015-10-14T14:25:08Z</time>
      </trkpt>
      <trkpt lat="43.38889" lon="6.0941">
        <ele>326.60000610352</ele>
        <time>2015-10-14T14:25:09Z</time>
      </trkpt>
      <trkpt lat="43.3889" lon="6.09409">
        <ele>326</ele>
        <time>2015-10-14T14:25:10Z</time>
      </trkpt>
      <trkpt lat="43.38894" lon="6.09405">
        <ele>325.60000610352</ele>
        <time>2015-10-14T14:25:13Z</time>
      </trkpt>
      <trkpt lat="43.38897" lon="6.09402">
        <ele>325</ele>
        <time>2015-10-14T14:25:15Z</time>
      </trkpt>
      <trkpt lat="43.389" lon="6.09397">
        <ele>324.60000610352</ele>
        <time>2015-10-14T14:25:17Z</time>
      </trkpt>
      <trkpt lat="43.38903" lon="6.09393">
        <ele>324</ele>
        <time>2015-10-14T14:25:20Z</time>
      </trkpt>
      <trkpt lat="43.38905" lon="6.09391">
        <ele>323.79998779297</ele>
        <time>2015-10-14T14:25:21Z</time>
      </trkpt>
      <trkpt lat="43.3891" lon="6.09385">
        <ele>323</ele>
        <time>2015-10-14T14:25:24Z</time>
      </trkpt>
      <trkpt lat="43.38912" lon="6.09383">
        <ele>323.20001220703</ele>
        <time>2015-10-14T14:25:25Z</time>
      </trkpt>
      <trkpt lat="43.38917" lon="6.09378">
        <ele>322.39999389648</ele>
        <time>2015-10-14T14:25:27Z</time>
      </trkpt>
      <trkpt lat="43.38924" lon="6.09371">
        <ele>322.39999389648</ele>
        <time>2015-10-14T14:25:30Z</time>
      </trkpt>
      <trkpt lat="43.38932" lon="6.09362">
        <ele>322</ele>
        <time>2015-10-14T14:25:34Z</time>
      </trkpt>
      <trkpt lat="43.38948" lon="6.09343">
        <ele>322.20001220703</ele>
        <time>2015-10-14T14:25:40Z</time>
      </trkpt>
      <trkpt lat="43.38957" lon="6.09325">
        <ele>321.60000610352</ele>
        <time>2015-10-14T14:25:44Z</time>
      </trkpt>
      <trkpt lat="43.3896" lon="6.0932">
        <ele>321.60000610352</ele>
        <time>2015-10-14T14:25:45Z</time>
      </trkpt>
      <trkpt lat="43.3897" lon="6.09304">
        <ele>320.60000610352</ele>
        <time>2015-10-14T14:25:49Z</time>
      </trkpt>
      <trkpt lat="43.38972" lon="6.093">
        <ele>320.20001220703</ele>
        <time>2015-10-14T14:25:50Z</time>
      </trkpt>
      <trkpt lat="43.3898" lon="6.09286">
        <ele>319.20001220703</ele>
        <time>2015-10-14T14:25:54Z</time>
      </trkpt>
      <trkpt lat="43.3899" lon="6.09261">
        <ele>318.20001220703</ele>
        <time>2015-10-14T14:26:00Z</time>
      </trkpt>
      <trkpt lat="43.38991" lon="6.09257">
        <ele>318.20001220703</ele>
        <time>2015-10-14T14:26:01Z</time>
      </trkpt>
      <trkpt lat="43.38995" lon="6.09234">
        <ele>317.79998779297</ele>
        <time>2015-10-14T14:26:05Z</time>
      </trkpt>
      <trkpt lat="43.39003" lon="6.09196">
        <ele>317.60000610352</ele>
        <time>2015-10-14T14:26:12Z</time>
      </trkpt>
      <trkpt lat="43.39007" lon="6.09182">
        <ele>317.39999389648</ele>
        <time>2015-10-14T14:26:14Z</time>
      </trkpt>
      <trkpt lat="43.39009" lon="6.09173">
        <ele>317</ele>
        <time>2015-10-14T14:26:15Z</time>
      </trkpt>
      <trkpt lat="43.39013" lon="6.0916">
        <ele>316.60000610352</ele>
        <time>2015-10-14T14:26:17Z</time>
      </trkpt>
      <trkpt lat="43.39018" lon="6.09139">
        <ele>316.20001220703</ele>
        <time>2015-10-14T14:26:21Z</time>
      </trkpt>
      <trkpt lat="43.39026" lon="6.09108">
        <ele>316.79998779297</ele>
        <time>2015-10-14T14:26:28Z</time>
      </trkpt>
      <trkpt lat="43.39028" lon="6.09102">
        <ele>316</ele>
        <time>2015-10-14T14:26:30Z</time>
      </trkpt>
      <trkpt lat="43.3903" lon="6.09095">
        <ele>315.39999389648</ele>
        <time>2015-10-14T14:26:32Z</time>
      </trkpt>
      <trkpt lat="43.39038" lon="6.09076">
        <ele>316</ele>
        <time>2015-10-14T14:26:36Z</time>
      </trkpt>
      <trkpt lat="43.3904" lon="6.09071">
        <ele>315.79998779297</ele>
        <time>2015-10-14T14:26:37Z</time>
      </trkpt>
      <trkpt lat="43.39043" lon="6.09067">
        <ele>315.39999389648</ele>
        <time>2015-10-14T14:26:38Z</time>
      </trkpt>
      <trkpt lat="43.3905" lon="6.09049">
        <ele>314.39999389648</ele>
        <time>2015-10-14T14:26:42Z</time>
      </trkpt>
      <trkpt lat="43.3906" lon="6.0903">
        <ele>314.79998779297</ele>
        <time>2015-10-14T14:26:47Z</time>
      </trkpt>
      <trkpt lat="43.39066" lon="6.09014">
        <ele>314.20001220703</ele>
        <time>2015-10-14T14:26:52Z</time>
      </trkpt>
      <trkpt lat="43.39067" lon="6.09009">
        <ele>314.20001220703</ele>
        <time>2015-10-14T14:26:58Z</time>
      </trkpt>
      <trkpt lat="43.39067" lon="6.09009">
        <ele>314</ele>
        <time>2015-10-14T14:27:05Z</time>
      </trkpt>
      <trkpt lat="43.39067" lon="6.09009">
        <ele>313.79998779297</ele>
        <time>2015-10-14T14:27:09Z</time>
      </trkpt>
      <trkpt lat="43.39067" lon="6.09009">
        <ele>314</ele>
        <time>2015-10-14T14:27:24Z</time>
      </trkpt>
      <trkpt lat="43.39067" lon="6.09009">
        <ele>313.60000610352</ele>
        <time>2015-10-14T14:27:36Z</time>
      </trkpt>
      <trkpt lat="43.39067" lon="6.09009">
        <ele>313.60000610352</ele>
        <time>2015-10-14T14:27:45Z</time>
      </trkpt>
      <trkpt lat="43.39068" lon="6.09008">
        <ele>313.60000610352</ele>
        <time>2015-10-14T14:27:50Z</time>
      </trkpt>
      <trkpt lat="43.39069" lon="6.09006">
        <ele>313.79998779297</ele>
        <time>2015-10-14T14:27:54Z</time>
      </trkpt>
      <trkpt lat="43.39073" lon="6.08998">
        <ele>313</ele>
        <time>2015-10-14T14:27:59Z</time>
      </trkpt>
      <trkpt lat="43.39074" lon="6.08995">
        <ele>312.79998779297</ele>
        <time>2015-10-14T14:28:00Z</time>
      </trkpt>
      <trkpt lat="43.39081" lon="6.08977">
        <ele>313.60000610352</ele>
        <time>2015-10-14T14:28:06Z</time>
      </trkpt>
      <trkpt lat="43.39088" lon="6.0895">
        <ele>313.20001220703</ele>
        <time>2015-10-14T14:28:12Z</time>
      </trkpt>
      <trkpt lat="43.39094" lon="6.08927">
        <ele>312.60000610352</ele>
        <time>2015-10-14T14:28:18Z</time>
      </trkpt>
      <trkpt lat="43.39098" lon="6.08911">
        <ele>311.79998779297</ele>
        <time>2015-10-14T14:28:22Z</time>
      </trkpt>
      <trkpt lat="43.39099" lon="6.08905">
        <ele>311.79998779297</ele>
        <time>2015-10-14T14:28:23Z</time>
      </trkpt>
      <trkpt lat="43.39107" lon="6.08876">
        <ele>312.39999389648</ele>
        <time>2015-10-14T14:28:29Z</time>
      </trkpt>
      <trkpt lat="43.39112" lon="6.08848">
        <ele>312.20001220703</ele>
        <time>2015-10-14T14:28:34Z</time>
      </trkpt>
      <trkpt lat="43.39116" lon="6.08831">
        <ele>311</ele>
        <time>2015-10-14T14:28:37Z</time>
      </trkpt>
      <trkpt lat="43.39121" lon="6.0881">
        <ele>310.60000610352</ele>
        <time>2015-10-14T14:28:41Z</time>
      </trkpt>
      <trkpt lat="43.3913" lon="6.08777">
        <ele>311.20001220703</ele>
        <time>2015-10-14T14:28:47Z</time>
      </trkpt>
      <trkpt lat="43.39132" lon="6.08771">
        <ele>311.20001220703</ele>
        <time>2015-10-14T14:28:48Z</time>
      </trkpt>
      <trkpt lat="43.39137" lon="6.08747">
        <ele>310.20001220703</ele>
        <time>2015-10-14T14:28:52Z</time>
      </trkpt>
      <trkpt lat="43.39139" lon="6.08738">
        <ele>309.79998779297</ele>
        <time>2015-10-14T14:28:54Z</time>
      </trkpt>
      <trkpt lat="43.39143" lon="6.08722">
        <ele>310</ele>
        <time>2015-10-14T14:28:58Z</time>
      </trkpt>
      <trkpt lat="43.39146" lon="6.08691">
        <ele>309</ele>
        <time>2015-10-14T14:29:08Z</time>
      </trkpt>
      <trkpt lat="43.39146" lon="6.08688">
        <ele>309</ele>
        <time>2015-10-14T14:29:09Z</time>
      </trkpt>
      <trkpt lat="43.39149" lon="6.0867">
        <ele>309.39999389648</ele>
        <time>2015-10-14T14:29:14Z</time>
      </trkpt>
      <trkpt lat="43.39149" lon="6.08666">
        <ele>309.60000610352</ele>
        <time>2015-10-14T14:29:15Z</time>
      </trkpt>
      <trkpt lat="43.39153" lon="6.08649">
        <ele>309.39999389648</ele>
        <time>2015-10-14T14:29:20Z</time>
      </trkpt>
      <trkpt lat="43.3916" lon="6.08625">
        <ele>309.39999389648</ele>
        <time>2015-10-14T14:29:25Z</time>
      </trkpt>
      <trkpt lat="43.39164" lon="6.08608">
        <ele>310.20001220703</ele>
        <time>2015-10-14T14:29:28Z</time>
      </trkpt>
      <trkpt lat="43.39166" lon="6.08597">
        <ele>309.60000610352</ele>
        <time>2015-10-14T14:29:30Z</time>
      </trkpt>
      <trkpt lat="43.39168" lon="6.08587">
        <ele>309.60000610352</ele>
        <time>2015-10-14T14:29:32Z</time>
      </trkpt>
      <trkpt lat="43.39169" lon="6.08582">
        <ele>310</ele>
        <time>2015-10-14T14:29:33Z</time>
      </trkpt>
      <trkpt lat="43.39172" lon="6.08565">
        <ele>310.60000610352</ele>
        <time>2015-10-14T14:29:36Z</time>
      </trkpt>
      <trkpt lat="43.39175" lon="6.08554">
        <ele>311.20001220703</ele>
        <time>2015-10-14T14:29:38Z</time>
      </trkpt>
      <trkpt lat="43.3918" lon="6.0854">
        <ele>311</ele>
        <time>2015-10-14T14:29:41Z</time>
      </trkpt>
      <trkpt lat="43.39183" lon="6.08532">
        <ele>311</ele>
        <time>2015-10-14T14:29:43Z</time>
      </trkpt>
      <trkpt lat="43.39185" lon="6.08524">
        <ele>311.60000610352</ele>
        <time>2015-10-14T14:29:45Z</time>
      </trkpt>
      <trkpt lat="43.39187" lon="6.08514">
        <ele>312</ele>
        <time>2015-10-14T14:29:49Z</time>
      </trkpt>
      <trkpt lat="43.39189" lon="6.08509">
        <ele>312.20001220703</ele>
        <time>2015-10-14T14:29:52Z</time>
      </trkpt>
      <trkpt lat="43.39191" lon="6.08507">
        <ele>312</ele>
        <time>2015-10-14T14:29:55Z</time>
      </trkpt>
      <trkpt lat="43.39192" lon="6.08506">
        <ele>312</ele>
        <time>2015-10-14T14:30:01Z</time>
      </trkpt>
      <trkpt lat="43.39192" lon="6.08506">
        <ele>312</ele>
        <time>2015-10-14T14:30:09Z</time>
      </trkpt>
      <trkpt lat="43.39192" lon="6.08506">
        <ele>312.20001220703</ele>
        <time>2015-10-14T14:30:19Z</time>
      </trkpt>
      <trkpt lat="43.39192" lon="6.08506">
        <ele>312.60000610352</ele>
        <time>2015-10-14T14:30:34Z</time>
      </trkpt>
      <trkpt lat="43.39192" lon="6.08506">
        <ele>312</ele>
        <time>2015-10-14T14:30:41Z</time>
      </trkpt>
      <trkpt lat="43.39192" lon="6.08505">
        <ele>312.20001220703</ele>
        <time>2015-10-14T14:30:46Z</time>
      </trkpt>
      <trkpt lat="43.39193" lon="6.085">
        <ele>312.39999389648</ele>
        <time>2015-10-14T14:30:48Z</time>
      </trkpt>
      <trkpt lat="43.39194" lon="6.08493">
        <ele>311.79998779297</ele>
        <time>2015-10-14T14:30:50Z</time>
      </trkpt>
      <trkpt lat="43.39195" lon="6.08478">
        <ele>311.79998779297</ele>
        <time>2015-10-14T14:30:53Z</time>
      </trkpt>
      <trkpt lat="43.39197" lon="6.08467">
        <ele>310.39999389648</ele>
        <time>2015-10-14T14:30:55Z</time>
      </trkpt>
      <trkpt lat="43.392" lon="6.08456">
        <ele>309.39999389648</ele>
        <time>2015-10-14T14:30:57Z</time>
      </trkpt>
      <trkpt lat="43.39201" lon="6.08442">
        <ele>309</ele>
        <time>2015-10-14T14:31:01Z</time>
      </trkpt>
      <trkpt lat="43.39201" lon="6.08436">
        <ele>308.39999389648</ele>
        <time>2015-10-14T14:31:04Z</time>
      </trkpt>
      <trkpt lat="43.39202" lon="6.08425">
        <ele>307.39999389648</ele>
        <time>2015-10-14T14:31:07Z</time>
      </trkpt>
      <trkpt lat="43.39204" lon="6.08421">
        <ele>307</ele>
        <time>2015-10-14T14:31:08Z</time>
      </trkpt>
      <trkpt lat="43.39207" lon="6.08413">
        <ele>306.39999389648</ele>
        <time>2015-10-14T14:31:11Z</time>
      </trkpt>
      <trkpt lat="43.39209" lon="6.08408">
        <ele>306</ele>
        <time>2015-10-14T14:31:13Z</time>
      </trkpt>
      <trkpt lat="43.39209" lon="6.08398">
        <ele>305.39999389648</ele>
        <time>2015-10-14T14:31:16Z</time>
      </trkpt>
      <trkpt lat="43.39209" lon="6.08388">
        <ele>304.79998779297</ele>
        <time>2015-10-14T14:31:19Z</time>
      </trkpt>
      <trkpt lat="43.39209" lon="6.08386">
        <ele>304.60000610352</ele>
        <time>2015-10-14T14:31:20Z</time>
      </trkpt>
      <trkpt lat="43.39211" lon="6.08378">
        <ele>303.60000610352</ele>
        <time>2015-10-14T14:31:23Z</time>
      </trkpt>
      <trkpt lat="43.39213" lon="6.08373">
        <ele>303.20001220703</ele>
        <time>2015-10-14T14:31:24Z</time>
      </trkpt>
      <trkpt lat="43.39214" lon="6.08363">
        <ele>302.39999389648</ele>
        <time>2015-10-14T14:31:26Z</time>
      </trkpt>
      <trkpt lat="43.39216" lon="6.08353">
        <ele>302.20001220703</ele>
        <time>2015-10-14T14:31:28Z</time>
      </trkpt>
      <trkpt lat="43.39217" lon="6.08346">
        <ele>301.20001220703</ele>
        <time>2015-10-14T14:31:30Z</time>
      </trkpt>
      <trkpt lat="43.39218" lon="6.08342">
        <ele>301</ele>
        <time>2015-10-14T14:31:32Z</time>
      </trkpt>
      <trkpt lat="43.39219" lon="6.08332">
        <ele>300.20001220703</ele>
        <time>2015-10-14T14:31:36Z</time>
      </trkpt>
      <trkpt lat="43.3922" lon="6.08328">
        <ele>299.79998779297</ele>
        <time>2015-10-14T14:31:39Z</time>
      </trkpt>
      <trkpt lat="43.39225" lon="6.08321">
        <ele>299.20001220703</ele>
        <time>2015-10-14T14:31:44Z</time>
      </trkpt>
      <trkpt lat="43.39226" lon="6.08319">
        <ele>299</ele>
        <time>2015-10-14T14:31:45Z</time>
      </trkpt>
      <trkpt lat="43.39228" lon="6.08313">
        <ele>298</ele>
        <time>2015-10-14T14:31:50Z</time>
      </trkpt>
      <trkpt lat="43.39229" lon="6.0831">
        <ele>297.79998779297</ele>
        <time>2015-10-14T14:31:51Z</time>
      </trkpt>
      <trkpt lat="43.39233" lon="6.08302">
        <ele>296.60000610352</ele>
        <time>2015-10-14T14:31:54Z</time>
      </trkpt>
      <trkpt lat="43.39235" lon="6.08296">
        <ele>296</ele>
        <time>2015-10-14T14:31:56Z</time>
      </trkpt>
      <trkpt lat="43.39236" lon="6.08294">
        <ele>295.60000610352</ele>
        <time>2015-10-14T14:31:57Z</time>
      </trkpt>
      <trkpt lat="43.39238" lon="6.08289">
        <ele>295.39999389648</ele>
        <time>2015-10-14T14:32:01Z</time>
      </trkpt>
      <trkpt lat="43.3924" lon="6.08285">
        <ele>294.79998779297</ele>
        <time>2015-10-14T14:32:07Z</time>
      </trkpt>
      <trkpt lat="43.39243" lon="6.08279">
        <ele>294.20001220703</ele>
        <time>2015-10-14T14:32:09Z</time>
      </trkpt>
      <trkpt lat="43.3925" lon="6.08274">
        <ele>293.60000610352</ele>
        <time>2015-10-14T14:32:12Z</time>
      </trkpt>
      <trkpt lat="43.39254" lon="6.08268">
        <ele>292.60000610352</ele>
        <time>2015-10-14T14:32:16Z</time>
      </trkpt>
      <trkpt lat="43.39257" lon="6.08266">
        <ele>292.20001220703</ele>
        <time>2015-10-14T14:32:17Z</time>
      </trkpt>
      <trkpt lat="43.39262" lon="6.08253">
        <ele>292</ele>
        <time>2015-10-14T14:32:21Z</time>
      </trkpt>
      <trkpt lat="43.39263" lon="6.08248">
        <ele>291.39999389648</ele>
        <time>2015-10-14T14:32:23Z</time>
      </trkpt>
      <trkpt lat="43.39264" lon="6.08241">
        <ele>291.20001220703</ele>
        <time>2015-10-14T14:32:25Z</time>
      </trkpt>
      <trkpt lat="43.39266" lon="6.08233">
        <ele>290.79998779297</ele>
        <time>2015-10-14T14:32:27Z</time>
      </trkpt>
      <trkpt lat="43.39267" lon="6.08228">
        <ele>290.39999389648</ele>
        <time>2015-10-14T14:32:28Z</time>
      </trkpt>
      <trkpt lat="43.3927" lon="6.08215">
        <ele>290</ele>
        <time>2015-10-14T14:32:31Z</time>
      </trkpt>
      <trkpt lat="43.3927" lon="6.08209">
        <ele>289.39999389648</ele>
        <time>2015-10-14T14:32:33Z</time>
      </trkpt>
      <trkpt lat="43.3927" lon="6.082">
        <ele>289</ele>
        <time>2015-10-14T14:32:36Z</time>
      </trkpt>
      <trkpt lat="43.39272" lon="6.08192">
        <ele>288.60000610352</ele>
        <time>2015-10-14T14:32:39Z</time>
      </trkpt>
      <trkpt lat="43.39273" lon="6.0819">
        <ele>288.39999389648</ele>
        <time>2015-10-14T14:32:40Z</time>
      </trkpt>
      <trkpt lat="43.39274" lon="6.08188">
        <ele>288</ele>
        <time>2015-10-14T14:32:41Z</time>
      </trkpt>
      <trkpt lat="43.39275" lon="6.08183">
        <ele>287.60000610352</ele>
        <time>2015-10-14T14:32:43Z</time>
      </trkpt>
      <trkpt lat="43.39277" lon="6.08178">
        <ele>287</ele>
        <time>2015-10-14T14:32:45Z</time>
      </trkpt>
      <trkpt lat="43.39278" lon="6.08175">
        <ele>286.79998779297</ele>
        <time>2015-10-14T14:32:46Z</time>
      </trkpt>
      <trkpt lat="43.3928" lon="6.08168">
        <ele>285.60000610352</ele>
        <time>2015-10-14T14:32:48Z</time>
      </trkpt>
      <trkpt lat="43.39283" lon="6.0816">
        <ele>285.39999389648</ele>
        <time>2015-10-14T14:32:50Z</time>
      </trkpt>
      <trkpt lat="43.39284" lon="6.08153">
        <ele>284.60000610352</ele>
        <time>2015-10-14T14:32:52Z</time>
      </trkpt>
      <trkpt lat="43.39284" lon="6.08149">
        <ele>284.20001220703</ele>
        <time>2015-10-14T14:32:54Z</time>
      </trkpt>
      <trkpt lat="43.39283" lon="6.08143">
        <ele>283.79998779297</ele>
        <time>2015-10-14T14:32:58Z</time>
      </trkpt>
      <trkpt lat="43.39284" lon="6.08141">
        <ele>283.60000610352</ele>
        <time>2015-10-14T14:32:59Z</time>
      </trkpt>
      <trkpt lat="43.39286" lon="6.08132">
        <ele>283</ele>
        <time>2015-10-14T14:33:03Z</time>
      </trkpt>
      <trkpt lat="43.39291" lon="6.08121">
        <ele>282.39999389648</ele>
        <time>2015-10-14T14:33:07Z</time>
      </trkpt>
      <trkpt lat="43.39292" lon="6.0812">
        <ele>282.39999389648</ele>
        <time>2015-10-14T14:33:08Z</time>
      </trkpt>
      <trkpt lat="43.39297" lon="6.08108">
        <ele>282.20001220703</ele>
        <time>2015-10-14T14:33:14Z</time>
      </trkpt>
      <trkpt lat="43.39297" lon="6.08107">
        <ele>282</ele>
        <time>2015-10-14T14:33:19Z</time>
      </trkpt>
      <trkpt lat="43.393" lon="6.08103">
        <ele>281.79998779297</ele>
        <time>2015-10-14T14:33:26Z</time>
      </trkpt>
      <trkpt lat="43.39305" lon="6.08094">
        <ele>280.60000610352</ele>
        <time>2015-10-14T14:33:30Z</time>
      </trkpt>
      <trkpt lat="43.39317" lon="6.08078">
        <ele>280.20001220703</ele>
        <time>2015-10-14T14:33:35Z</time>
      </trkpt>
      <trkpt lat="43.39331" lon="6.08053">
        <ele>279.60000610352</ele>
        <time>2015-10-14T14:33:41Z</time>
      </trkpt>
      <trkpt lat="43.39334" lon="6.08048">
        <ele>279.20001220703</ele>
        <time>2015-10-14T14:33:42Z</time>
      </trkpt>
      <trkpt lat="43.39344" lon="6.08038">
        <ele>278.39999389648</ele>
        <time>2015-10-14T14:33:46Z</time>
      </trkpt>
      <trkpt lat="43.39348" lon="6.08035">
        <ele>277.79998779297</ele>
        <time>2015-10-14T14:33:47Z</time>
      </trkpt>
      <trkpt lat="43.39351" lon="6.08031">
        <ele>277.79998779297</ele>
        <time>2015-10-14T14:33:48Z</time>
      </trkpt>
      <trkpt lat="43.39359" lon="6.08023">
        <ele>277.20001220703</ele>
        <time>2015-10-14T14:33:50Z</time>
      </trkpt>
      <trkpt lat="43.39365" lon="6.08013">
        <ele>276.79998779297</ele>
        <time>2015-10-14T14:33:52Z</time>
      </trkpt>
      <trkpt lat="43.39369" lon="6.08009">
        <ele>275.60000610352</ele>
        <time>2015-10-14T14:33:53Z</time>
      </trkpt>
      <trkpt lat="43.39371" lon="6.08006">
        <ele>275.39999389648</ele>
        <time>2015-10-14T14:33:54Z</time>
      </trkpt>
      <trkpt lat="43.39372" lon="6.08003">
        <ele>275.39999389648</ele>
        <time>2015-10-14T14:33:55Z</time>
      </trkpt>
      <trkpt lat="43.39372" lon="6.08001">
        <ele>275</ele>
        <time>2015-10-14T14:33:57Z</time>
      </trkpt>
      <trkpt lat="43.39371" lon="6.08001">
        <ele>275.20001220703</ele>
        <time>2015-10-14T14:34:05Z</time>
      </trkpt>
      <trkpt lat="43.39371" lon="6.08001">
        <ele>275.20001220703</ele>
        <time>2015-10-14T14:34:07Z</time>
      </trkpt>
      <trkpt lat="43.39371" lon="6.08001">
        <ele>275.39999389648</ele>
        <time>2015-10-14T14:34:20Z</time>
      </trkpt>
      <trkpt lat="43.39369" lon="6.08002">
        <ele>275.60000610352</ele>
        <time>2015-10-14T14:34:24Z</time>
      </trkpt>
      <trkpt lat="43.39368" lon="6.08006">
        <ele>275.39999389648</ele>
        <time>2015-10-14T14:34:26Z</time>
      </trkpt>
      <trkpt lat="43.39368" lon="6.08009">
        <ele>275.39999389648</ele>
        <time>2015-10-14T14:34:31Z</time>
      </trkpt>
      <trkpt lat="43.39368" lon="6.0801">
        <ele>274.79998779297</ele>
        <time>2015-10-14T14:34:39Z</time>
      </trkpt>
      <trkpt lat="43.39368" lon="6.0801">
        <ele>274.79998779297</ele>
        <time>2015-10-14T14:34:45Z</time>
      </trkpt>
      <trkpt lat="43.39368" lon="6.08009">
        <ele>275.39999389648</ele>
        <time>2015-10-14T14:34:59Z</time>
      </trkpt>
      <trkpt lat="43.39368" lon="6.08009">
        <ele>275.39999389648</ele>
        <time>2015-10-14T14:35:07Z</time>
      </trkpt>
      <trkpt lat="43.39368" lon="6.08009">
        <ele>275.20001220703</ele>
        <time>2015-10-14T14:35:16Z</time>
      </trkpt>
      <trkpt lat="43.39369" lon="6.08008">
        <ele>275.39999389648</ele>
        <time>2015-10-14T14:36:03Z</time>
      </trkpt>
      <trkpt lat="43.39369" lon="6.08007">
        <ele>275.20001220703</ele>
        <time>2015-10-14T14:36:15Z</time>
      </trkpt>
      <trkpt lat="43.39369" lon="6.08007">
        <ele>275</ele>
        <time>2015-10-14T14:36:31Z</time>
      </trkpt>
      <trkpt lat="43.39369" lon="6.08006">
        <ele>275.20001220703</ele>
        <time>2015-10-14T14:36:46Z</time>
      </trkpt>
      <trkpt lat="43.39371" lon="6.08002">
        <ele>275.39999389648</ele>
        <time>2015-10-14T14:36:49Z</time>
      </trkpt>
      <trkpt lat="43.39371" lon="6.08001">
        <ele>275.20001220703</ele>
        <time>2015-10-14T14:36:55Z</time>
      </trkpt>
      <trkpt lat="43.39371" lon="6.07995">
        <ele>275.39999389648</ele>
        <time>2015-10-14T14:36:59Z</time>
      </trkpt>
      <trkpt lat="43.39369" lon="6.07991">
        <ele>275.79998779297</ele>
        <time>2015-10-14T14:37:01Z</time>
      </trkpt>
      <trkpt lat="43.39368" lon="6.07988">
        <ele>276.20001220703</ele>
        <time>2015-10-14T14:37:02Z</time>
      </trkpt>
      <trkpt lat="43.39368" lon="6.07985">
        <ele>276.60000610352</ele>
        <time>2015-10-14T14:37:03Z</time>
      </trkpt>
      <trkpt lat="43.39369" lon="6.07981">
        <ele>276.79998779297</ele>
        <time>2015-10-14T14:37:05Z</time>
      </trkpt>
      <trkpt lat="43.3937" lon="6.07979">
        <ele>276.79998779297</ele>
        <time>2015-10-14T14:37:06Z</time>
      </trkpt>
      <trkpt lat="43.39371" lon="6.07975">
        <ele>277.39999389648</ele>
        <time>2015-10-14T14:37:08Z</time>
      </trkpt>
      <trkpt lat="43.39372" lon="6.07973">
        <ele>277.60000610352</ele>
        <time>2015-10-14T14:37:09Z</time>
      </trkpt>
      <trkpt lat="43.39374" lon="6.0797">
        <ele>277.79998779297</ele>
        <time>2015-10-14T14:37:12Z</time>
      </trkpt>
      <trkpt lat="43.39374" lon="6.07969">
        <ele>278</ele>
        <time>2015-10-14T14:37:18Z</time>
      </trkpt>
      <trkpt lat="43.39375" lon="6.07969">
        <ele>278</ele>
        <time>2015-10-14T14:37:20Z</time>
      </trkpt>
      <trkpt lat="43.39379" lon="6.07968">
        <ele>278.20001220703</ele>
        <time>2015-10-14T14:37:23Z</time>
      </trkpt>
      <trkpt lat="43.39387" lon="6.07967">
        <ele>277.79998779297</ele>
        <time>2015-10-14T14:37:28Z</time>
      </trkpt>
      <trkpt lat="43.39388" lon="6.07967">
        <ele>277.60000610352</ele>
        <time>2015-10-14T14:37:29Z</time>
      </trkpt>
      <trkpt lat="43.39396" lon="6.07969">
        <ele>276</ele>
        <time>2015-10-14T14:37:33Z</time>
      </trkpt>
      <trkpt lat="43.394" lon="6.07969">
        <ele>275</ele>
        <time>2015-10-14T14:37:35Z</time>
      </trkpt>
      <trkpt lat="43.39403" lon="6.07968">
        <ele>275</ele>
        <time>2015-10-14T14:37:36Z</time>
      </trkpt>
      <trkpt lat="43.39412" lon="6.07966">
        <ele>274.79998779297</ele>
        <time>2015-10-14T14:37:39Z</time>
      </trkpt>
      <trkpt lat="43.39425" lon="6.07956">
        <ele>275</ele>
        <time>2015-10-14T14:37:45Z</time>
      </trkpt>
      <trkpt lat="43.39427" lon="6.07949">
        <ele>275.39999389648</ele>
        <time>2015-10-14T14:37:50Z</time>
      </trkpt>
      <trkpt lat="43.39431" lon="6.07944">
        <ele>274.60000610352</ele>
        <time>2015-10-14T14:37:56Z</time>
      </trkpt>
      <trkpt lat="43.39431" lon="6.07947">
        <ele>274</ele>
        <time>2015-10-14T14:37:58Z</time>
      </trkpt>
      <trkpt lat="43.39432" lon="6.07948">
        <ele>273.20001220703</ele>
        <time>2015-10-14T14:38:00Z</time>
      </trkpt>
      <trkpt lat="43.39432" lon="6.07948">
        <ele>272.79998779297</ele>
        <time>2015-10-14T14:38:01Z</time>
      </trkpt>
      <trkpt lat="43.39434" lon="6.07948">
        <ele>272.20001220703</ele>
        <time>2015-10-14T14:38:05Z</time>
      </trkpt>
      <trkpt lat="43.39435" lon="6.07947">
        <ele>272.20001220703</ele>
        <time>2015-10-14T14:38:19Z</time>
      </trkpt>
      <trkpt lat="43.39436" lon="6.07947">
        <ele>272.60000610352</ele>
        <time>2015-10-14T14:38:30Z</time>
      </trkpt>
      <trkpt lat="43.39437" lon="6.07945">
        <ele>272.60000610352</ele>
        <time>2015-10-14T14:38:31Z</time>
      </trkpt>
      <trkpt lat="43.3944" lon="6.07931">
        <ele>272.39999389648</ele>
        <time>2015-10-14T14:38:36Z</time>
      </trkpt>
      <trkpt lat="43.39443" lon="6.07927">
        <ele>272.39999389648</ele>
        <time>2015-10-14T14:38:38Z</time>
      </trkpt>
      <trkpt lat="43.39445" lon="6.07928">
        <ele>271.79998779297</ele>
        <time>2015-10-14T14:38:40Z</time>
      </trkpt>
      <trkpt lat="43.39454" lon="6.07933">
        <ele>270.60000610352</ele>
        <time>2015-10-14T14:38:44Z</time>
      </trkpt>
      <trkpt lat="43.3946" lon="6.07939">
        <ele>269.60000610352</ele>
        <time>2015-10-14T14:38:48Z</time>
      </trkpt>
      <trkpt lat="43.39462" lon="6.07941">
        <ele>269.39999389648</ele>
        <time>2015-10-14T14:38:50Z</time>
      </trkpt>
      <trkpt lat="43.3947" lon="6.07948">
        <ele>269</ele>
        <time>2015-10-14T14:38:55Z</time>
      </trkpt>
      <trkpt lat="43.3948" lon="6.07954">
        <ele>268.20001220703</ele>
        <time>2015-10-14T14:39:02Z</time>
      </trkpt>
      <trkpt lat="43.39482" lon="6.07954">
        <ele>267.79998779297</ele>
        <time>2015-10-14T14:39:03Z</time>
      </trkpt>
      <trkpt lat="43.39487" lon="6.07957">
        <ele>267.79998779297</ele>
        <time>2015-10-14T14:39:06Z</time>
      </trkpt>
      <trkpt lat="43.39488" lon="6.07957">
        <ele>268</ele>
        <time>2015-10-14T14:39:12Z</time>
      </trkpt>
      <trkpt lat="43.39489" lon="6.0796">
        <ele>267.60000610352</ele>
        <time>2015-10-14T14:39:21Z</time>
      </trkpt>
      <trkpt lat="43.39492" lon="6.07962">
        <ele>267.60000610352</ele>
        <time>2015-10-14T14:39:28Z</time>
      </trkpt>
      <trkpt lat="43.39495" lon="6.07961">
        <ele>267.79998779297</ele>
        <time>2015-10-14T14:39:30Z</time>
      </trkpt>
      <trkpt lat="43.39507" lon="6.07957">
        <ele>267.20001220703</ele>
        <time>2015-10-14T14:39:34Z</time>
      </trkpt>
      <trkpt lat="43.39511" lon="6.07956">
        <ele>266.60000610352</ele>
        <time>2015-10-14T14:39:35Z</time>
      </trkpt>
      <trkpt lat="43.39524" lon="6.07951">
        <ele>266.20001220703</ele>
        <time>2015-10-14T14:39:38Z</time>
      </trkpt>
      <trkpt lat="43.3953" lon="6.07948">
        <ele>265.60000610352</ele>
        <time>2015-10-14T14:39:39Z</time>
      </trkpt>
      <trkpt lat="43.39542" lon="6.07942">
        <ele>264.79998779297</ele>
        <time>2015-10-14T14:39:41Z</time>
      </trkpt>
      <trkpt lat="43.39551" lon="6.07939">
        <ele>263.79998779297</ele>
        <time>2015-10-14T14:39:43Z</time>
      </trkpt>
      <trkpt lat="43.39568" lon="6.07934">
        <ele>262.20001220703</ele>
        <time>2015-10-14T14:39:47Z</time>
      </trkpt>
      <trkpt lat="43.39572" lon="6.0793">
        <ele>261.60000610352</ele>
        <time>2015-10-14T14:39:48Z</time>
      </trkpt>
      <trkpt lat="43.39574" lon="6.07923">
        <ele>260</ele>
        <time>2015-10-14T14:39:50Z</time>
      </trkpt>
      <trkpt lat="43.39575" lon="6.0792">
        <ele>259.60000610352</ele>
        <time>2015-10-14T14:39:51Z</time>
      </trkpt>
      <trkpt lat="43.39582" lon="6.07907">
        <ele>259.20001220703</ele>
        <time>2015-10-14T14:39:55Z</time>
      </trkpt>
      <trkpt lat="43.39583" lon="6.07906">
        <ele>259</ele>
        <time>2015-10-14T14:39:56Z</time>
      </trkpt>
      <trkpt lat="43.39596" lon="6.07905">
        <ele>258</ele>
        <time>2015-10-14T14:40:00Z</time>
      </trkpt>
      <trkpt lat="43.39602" lon="6.07904">
        <ele>257.20001220703</ele>
        <time>2015-10-14T14:40:01Z</time>
      </trkpt>
      <trkpt lat="43.39608" lon="6.07902">
        <ele>256.79998779297</ele>
        <time>2015-10-14T14:40:02Z</time>
      </trkpt>
      <trkpt lat="43.39622" lon="6.07896">
        <ele>255.60000610352</ele>
        <time>2015-10-14T14:40:04Z</time>
      </trkpt>
      <trkpt lat="43.39643" lon="6.0789">
        <ele>254.80000305176</ele>
        <time>2015-10-14T14:40:07Z</time>
      </trkpt>
      <trkpt lat="43.39658" lon="6.07888">
        <ele>254.19999694824</ele>
        <time>2015-10-14T14:40:09Z</time>
      </trkpt>
      <trkpt lat="43.39672" lon="6.07888">
        <ele>253.60000610352</ele>
        <time>2015-10-14T14:40:11Z</time>
      </trkpt>
      <trkpt lat="43.39679" lon="6.0789">
        <ele>253.39999389648</ele>
        <time>2015-10-14T14:40:12Z</time>
      </trkpt>
      <trkpt lat="43.39698" lon="6.07907">
        <ele>252.80000305176</ele>
        <time>2015-10-14T14:40:15Z</time>
      </trkpt>
      <trkpt lat="43.39704" lon="6.07915">
        <ele>251.80000305176</ele>
        <time>2015-10-14T14:40:16Z</time>
      </trkpt>
      <trkpt lat="43.39712" lon="6.07924">
        <ele>250.80000305176</ele>
        <time>2015-10-14T14:40:17Z</time>
      </trkpt>
      <trkpt lat="43.39719" lon="6.07934">
        <ele>249.60000610352</ele>
        <time>2015-10-14T14:40:18Z</time>
      </trkpt>
      <trkpt lat="43.39727" lon="6.07943">
        <ele>249</ele>
        <time>2015-10-14T14:40:19Z</time>
      </trkpt>
      <trkpt lat="43.39734" lon="6.07951">
        <ele>248.39999389648</ele>
        <time>2015-10-14T14:40:20Z</time>
      </trkpt>
      <trkpt lat="43.39748" lon="6.07962">
        <ele>247.39999389648</ele>
        <time>2015-10-14T14:40:22Z</time>
      </trkpt>
      <trkpt lat="43.39763" lon="6.0797">
        <ele>245.39999389648</ele>
        <time>2015-10-14T14:40:24Z</time>
      </trkpt>
      <trkpt lat="43.39795" lon="6.07985">
        <ele>242.80000305176</ele>
        <time>2015-10-14T14:40:28Z</time>
      </trkpt>
      <trkpt lat="43.39819" lon="6.07996">
        <ele>241.39999389648</ele>
        <time>2015-10-14T14:40:31Z</time>
      </trkpt>
      <trkpt lat="43.39825" lon="6.08">
        <ele>240.80000305176</ele>
        <time>2015-10-14T14:40:32Z</time>
      </trkpt>
      <trkpt lat="43.39832" lon="6.08005">
        <ele>240.60000610352</ele>
        <time>2015-10-14T14:40:33Z</time>
      </trkpt>
      <trkpt lat="43.39862" lon="6.08027">
        <ele>241.60000610352</ele>
        <time>2015-10-14T14:40:38Z</time>
      </trkpt>
      <trkpt lat="43.39872" lon="6.08033">
        <ele>242.39999389648</ele>
        <time>2015-10-14T14:40:40Z</time>
      </trkpt>
      <trkpt lat="43.39882" lon="6.08035">
        <ele>242.39999389648</ele>
        <time>2015-10-14T14:40:42Z</time>
      </trkpt>
      <trkpt lat="43.39898" lon="6.08028">
        <ele>242.80000305176</ele>
        <time>2015-10-14T14:40:46Z</time>
      </trkpt>
      <trkpt lat="43.39914" lon="6.08008">
        <ele>242.80000305176</ele>
        <time>2015-10-14T14:40:51Z</time>
      </trkpt>
      <trkpt lat="43.39924" lon="6.08001">
        <ele>243.39999389648</ele>
        <time>2015-10-14T14:40:54Z</time>
      </trkpt>
      <trkpt lat="43.39928" lon="6.07998">
        <ele>243.60000610352</ele>
        <time>2015-10-14T14:40:55Z</time>
      </trkpt>
      <trkpt lat="43.39936" lon="6.07994">
        <ele>243.19999694824</ele>
        <time>2015-10-14T14:40:57Z</time>
      </trkpt>
      <trkpt lat="43.3996" lon="6.07981">
        <ele>243</ele>
        <time>2015-10-14T14:41:03Z</time>
      </trkpt>
      <trkpt lat="43.39963" lon="6.07978">
        <ele>242.39999389648</ele>
        <time>2015-10-14T14:41:05Z</time>
      </trkpt>
      <trkpt lat="43.39964" lon="6.07977">
        <ele>242.19999694824</ele>
        <time>2015-10-14T14:41:07Z</time>
      </trkpt>
      <trkpt lat="43.39964" lon="6.07976">
        <ele>242</ele>
        <time>2015-10-14T14:41:19Z</time>
      </trkpt>
      <trkpt lat="43.39964" lon="6.07977">
        <ele>242</ele>
        <time>2015-10-14T14:41:28Z</time>
      </trkpt>
      <trkpt lat="43.39965" lon="6.07977">
        <ele>242.19999694824</ele>
        <time>2015-10-14T14:41:36Z</time>
      </trkpt>
      <trkpt lat="43.39965" lon="6.07977">
        <ele>242</ele>
        <time>2015-10-14T14:41:47Z</time>
      </trkpt>
      <trkpt lat="43.39965" lon="6.07977">
        <ele>242.19999694824</ele>
        <time>2015-10-14T14:41:52Z</time>
      </trkpt>
      <trkpt lat="43.39965" lon="6.07977">
        <ele>242</ele>
        <time>2015-10-14T14:41:56Z</time>
      </trkpt>
      <trkpt lat="43.39965" lon="6.07977">
        <ele>242</ele>
        <time>2015-10-14T14:42:02Z</time>
      </trkpt>
      <trkpt lat="43.39965" lon="6.07977">
        <ele>242</ele>
        <time>2015-10-14T14:42:04Z</time>
      </trkpt>
      <trkpt lat="43.39968" lon="6.07976">
        <ele>241.60000610352</ele>
        <time>2015-10-14T14:42:08Z</time>
      </trkpt>
      <trkpt lat="43.39972" lon="6.07969">
        <ele>241.60000610352</ele>
        <time>2015-10-14T14:42:11Z</time>
      </trkpt>
      <trkpt lat="43.39973" lon="6.07964">
        <ele>241.39999389648</ele>
        <time>2015-10-14T14:42:12Z</time>
      </trkpt>
      <trkpt lat="43.39975" lon="6.07959">
        <ele>241.19999694824</ele>
        <time>2015-10-14T14:42:13Z</time>
      </trkpt>
      <trkpt lat="43.39978" lon="6.07946">
        <ele>240.39999389648</ele>
        <time>2015-10-14T14:42:15Z</time>
      </trkpt>
      <trkpt lat="43.39987" lon="6.07913">
        <ele>239.19999694824</ele>
        <time>2015-10-14T14:42:19Z</time>
      </trkpt>
      <trkpt lat="43.39989" lon="6.07905">
        <ele>239</ele>
        <time>2015-10-14T14:42:20Z</time>
      </trkpt>
      <trkpt lat="43.39998" lon="6.07868">
        <ele>238.19999694824</ele>
        <time>2015-10-14T14:42:24Z</time>
      </trkpt>
      <trkpt lat="43.40008" lon="6.07834">
        <ele>237.19999694824</ele>
        <time>2015-10-14T14:42:28Z</time>
      </trkpt>
      <trkpt lat="43.4002" lon="6.07789">
        <ele>236.80000305176</ele>
        <time>2015-10-14T14:42:34Z</time>
      </trkpt>
      <trkpt lat="43.40032" lon="6.07752">
        <ele>236.19999694824</ele>
        <time>2015-10-14T14:42:39Z</time>
      </trkpt>
      <trkpt lat="43.40042" lon="6.07732">
        <ele>235.80000305176</ele>
        <time>2015-10-14T14:42:42Z</time>
      </trkpt>
      <trkpt lat="43.40063" lon="6.07703">
        <ele>235</ele>
        <time>2015-10-14T14:42:47Z</time>
      </trkpt>
      <trkpt lat="43.40071" lon="6.07691">
        <ele>234.60000610352</ele>
        <time>2015-10-14T14:42:49Z</time>
      </trkpt>
      <trkpt lat="43.40084" lon="6.07662">
        <ele>234</ele>
        <time>2015-10-14T14:42:53Z</time>
      </trkpt>
      <trkpt lat="43.40089" lon="6.07633">
        <ele>232</ele>
        <time>2015-10-14T14:42:56Z</time>
      </trkpt>
      <trkpt lat="43.4009" lon="6.07613">
        <ele>231</ele>
        <time>2015-10-14T14:42:58Z</time>
      </trkpt>
      <trkpt lat="43.40091" lon="6.07602">
        <ele>230.60000610352</ele>
        <time>2015-10-14T14:42:59Z</time>
      </trkpt>
      <trkpt lat="43.40101" lon="6.07577">
        <ele>229.80000305176</ele>
        <time>2015-10-14T14:43:02Z</time>
      </trkpt>
      <trkpt lat="43.40106" lon="6.07569">
        <ele>229.19999694824</ele>
        <time>2015-10-14T14:43:03Z</time>
      </trkpt>
      <trkpt lat="43.40115" lon="6.07555">
        <ele>228.80000305176</ele>
        <time>2015-10-14T14:43:05Z</time>
      </trkpt>
      <trkpt lat="43.40127" lon="6.07534">
        <ele>228.19999694824</ele>
        <time>2015-10-14T14:43:08Z</time>
      </trkpt>
      <trkpt lat="43.4014" lon="6.07503">
        <ele>227.60000610352</ele>
        <time>2015-10-14T14:43:12Z</time>
      </trkpt>
      <trkpt lat="43.40144" lon="6.07484">
        <ele>226.39999389648</ele>
        <time>2015-10-14T14:43:14Z</time>
      </trkpt>
      <trkpt lat="43.40147" lon="6.07452">
        <ele>225.19999694824</ele>
        <time>2015-10-14T14:43:17Z</time>
      </trkpt>
      <trkpt lat="43.40147" lon="6.07441">
        <ele>225</ele>
        <time>2015-10-14T14:43:18Z</time>
      </trkpt>
      <trkpt lat="43.4014" lon="6.07402">
        <ele>223.80000305176</ele>
        <time>2015-10-14T14:43:22Z</time>
      </trkpt>
      <trkpt lat="43.40139" lon="6.0738">
        <ele>223.60000610352</ele>
        <time>2015-10-14T14:43:24Z</time>
      </trkpt>
      <trkpt lat="43.40141" lon="6.07358">
        <ele>223.19999694824</ele>
        <time>2015-10-14T14:43:26Z</time>
      </trkpt>
      <trkpt lat="43.40143" lon="6.07335">
        <ele>222.60000610352</ele>
        <time>2015-10-14T14:43:28Z</time>
      </trkpt>
      <trkpt lat="43.40144" lon="6.07323">
        <ele>222.80000305176</ele>
        <time>2015-10-14T14:43:29Z</time>
      </trkpt>
      <trkpt lat="43.40146" lon="6.07299">
        <ele>222.60000610352</ele>
        <time>2015-10-14T14:43:31Z</time>
      </trkpt>
      <trkpt lat="43.40146" lon="6.07276">
        <ele>222</ele>
        <time>2015-10-14T14:43:33Z</time>
      </trkpt>
      <trkpt lat="43.40145" lon="6.07266">
        <ele>221.60000610352</ele>
        <time>2015-10-14T14:43:34Z</time>
      </trkpt>
      <trkpt lat="43.40144" lon="6.07243">
        <ele>222</ele>
        <time>2015-10-14T14:43:37Z</time>
      </trkpt>
      <trkpt lat="43.40147" lon="6.07232">
        <ele>221</ele>
        <time>2015-10-14T14:43:41Z</time>
      </trkpt>
      <trkpt lat="43.40153" lon="6.0722">
        <ele>220.39999389648</ele>
        <time>2015-10-14T14:43:47Z</time>
      </trkpt>
      <trkpt lat="43.40155" lon="6.07218">
        <ele>220.39999389648</ele>
        <time>2015-10-14T14:43:48Z</time>
      </trkpt>
      <trkpt lat="43.40169" lon="6.07204">
        <ele>219.39999389648</ele>
        <time>2015-10-14T14:43:53Z</time>
      </trkpt>
      <trkpt lat="43.40188" lon="6.07191">
        <ele>218</ele>
        <time>2015-10-14T14:43:57Z</time>
      </trkpt>
      <trkpt lat="43.40194" lon="6.07188">
        <ele>217.60000610352</ele>
        <time>2015-10-14T14:43:58Z</time>
      </trkpt>
      <trkpt lat="43.40201" lon="6.07184">
        <ele>217</ele>
        <time>2015-10-14T14:43:59Z</time>
      </trkpt>
      <trkpt lat="43.40215" lon="6.07176">
        <ele>215.80000305176</ele>
        <time>2015-10-14T14:44:01Z</time>
      </trkpt>
      <trkpt lat="43.40231" lon="6.0717">
        <ele>214.39999389648</ele>
        <time>2015-10-14T14:44:03Z</time>
      </trkpt>
      <trkpt lat="43.40247" lon="6.07168">
        <ele>213.39999389648</ele>
        <time>2015-10-14T14:44:05Z</time>
      </trkpt>
      <trkpt lat="43.40255" lon="6.07167">
        <ele>212.80000305176</ele>
        <time>2015-10-14T14:44:06Z</time>
      </trkpt>
      <trkpt lat="43.40261" lon="6.07167">
        <ele>212</ele>
        <time>2015-10-14T14:44:07Z</time>
      </trkpt>
      <trkpt lat="43.40277" lon="6.07178">
        <ele>211</ele>
        <time>2015-10-14T14:44:10Z</time>
      </trkpt>
      <trkpt lat="43.40281" lon="6.07184">
        <ele>211.19999694824</ele>
        <time>2015-10-14T14:44:11Z</time>
      </trkpt>
      <trkpt lat="43.40297" lon="6.07204">
        <ele>211.19999694824</ele>
        <time>2015-10-14T14:44:15Z</time>
      </trkpt>
      <trkpt lat="43.40301" lon="6.07207">
        <ele>211.19999694824</ele>
        <time>2015-10-14T14:44:16Z</time>
      </trkpt>
      <trkpt lat="43.40329" lon="6.07221">
        <ele>211</ele>
        <time>2015-10-14T14:44:21Z</time>
      </trkpt>
      <trkpt lat="43.40335" lon="6.07224">
        <ele>211</ele>
        <time>2015-10-14T14:44:22Z</time>
      </trkpt>
      <trkpt lat="43.40351" lon="6.07235">
        <ele>210</ele>
        <time>2015-10-14T14:44:25Z</time>
      </trkpt>
      <trkpt lat="43.40355" lon="6.0724">
        <ele>209.80000305176</ele>
        <time>2015-10-14T14:44:26Z</time>
      </trkpt>
      <trkpt lat="43.40358" lon="6.07246">
        <ele>209.19999694824</ele>
        <time>2015-10-14T14:44:27Z</time>
      </trkpt>
      <trkpt lat="43.40362" lon="6.07265">
        <ele>209</ele>
        <time>2015-10-14T14:44:31Z</time>
      </trkpt>
      <trkpt lat="43.40366" lon="6.07279">
        <ele>209.60000610352</ele>
        <time>2015-10-14T14:44:34Z</time>
      </trkpt>
      <trkpt lat="43.40371" lon="6.07286">
        <ele>209.80000305176</ele>
        <time>2015-10-14T14:44:36Z</time>
      </trkpt>
      <trkpt lat="43.40375" lon="6.07288">
        <ele>209.80000305176</ele>
        <time>2015-10-14T14:44:37Z</time>
      </trkpt>
      <trkpt lat="43.40383" lon="6.07286">
        <ele>209.60000610352</ele>
        <time>2015-10-14T14:44:39Z</time>
      </trkpt>
      <trkpt lat="43.40398" lon="6.07282">
        <ele>208.39999389648</ele>
        <time>2015-10-14T14:44:42Z</time>
      </trkpt>
      <trkpt lat="43.40409" lon="6.07283">
        <ele>208</ele>
        <time>2015-10-14T14:44:44Z</time>
      </trkpt>
      <trkpt lat="43.40429" lon="6.07283">
        <ele>207.39999389648</ele>
        <time>2015-10-14T14:44:47Z</time>
      </trkpt>
      <trkpt lat="43.40436" lon="6.07283">
        <ele>207</ele>
        <time>2015-10-14T14:44:48Z</time>
      </trkpt>
      <trkpt lat="43.4045" lon="6.07283">
        <ele>206.19999694824</ele>
        <time>2015-10-14T14:44:50Z</time>
      </trkpt>
      <trkpt lat="43.40472" lon="6.07282">
        <ele>205.19999694824</ele>
        <time>2015-10-14T14:44:53Z</time>
      </trkpt>
      <trkpt lat="43.40494" lon="6.07281">
        <ele>204.19999694824</ele>
        <time>2015-10-14T14:44:56Z</time>
      </trkpt>
      <trkpt lat="43.40508" lon="6.07287">
        <ele>204</ele>
        <time>2015-10-14T14:44:58Z</time>
      </trkpt>
      <trkpt lat="43.40513" lon="6.07294">
        <ele>204</ele>
        <time>2015-10-14T14:44:59Z</time>
      </trkpt>
      <trkpt lat="43.40528" lon="6.07301">
        <ele>203.60000610352</ele>
        <time>2015-10-14T14:45:02Z</time>
      </trkpt>
      <trkpt lat="43.40534" lon="6.073">
        <ele>203.39999389648</ele>
        <time>2015-10-14T14:45:03Z</time>
      </trkpt>
      <trkpt lat="43.4054" lon="6.073">
        <ele>203.19999694824</ele>
        <time>2015-10-14T14:45:04Z</time>
      </trkpt>
      <trkpt lat="43.40549" lon="6.07301">
        <ele>203</ele>
        <time>2015-10-14T14:45:07Z</time>
      </trkpt>
      <trkpt lat="43.40551" lon="6.07303">
        <ele>202.60000610352</ele>
        <time>2015-10-14T14:45:11Z</time>
      </trkpt>
      <trkpt lat="43.40552" lon="6.07305">
        <ele>202.80000305176</ele>
        <time>2015-10-14T14:45:13Z</time>
      </trkpt>
      <trkpt lat="43.40556" lon="6.07305">
        <ele>202.60000610352</ele>
        <time>2015-10-14T14:45:16Z</time>
      </trkpt>
      <trkpt lat="43.40557" lon="6.07305">
        <ele>202.80000305176</ele>
        <time>2015-10-14T14:45:17Z</time>
      </trkpt>
      <trkpt lat="43.40561" lon="6.07306">
        <ele>202.60000610352</ele>
        <time>2015-10-14T14:45:21Z</time>
      </trkpt>
      <trkpt lat="43.40561" lon="6.07307">
        <ele>202.80000305176</ele>
        <time>2015-10-14T14:45:23Z</time>
      </trkpt>
      <trkpt lat="43.40566" lon="6.07307">
        <ele>202.80000305176</ele>
        <time>2015-10-14T14:45:30Z</time>
      </trkpt>
      <trkpt lat="43.40581" lon="6.07306">
        <ele>202</ele>
        <time>2015-10-14T14:45:36Z</time>
      </trkpt>
      <trkpt lat="43.40593" lon="6.07297">
        <ele>202.19999694824</ele>
        <time>2015-10-14T14:45:40Z</time>
      </trkpt>
      <trkpt lat="43.40602" lon="6.07305">
        <ele>202.39999389648</ele>
        <time>2015-10-14T14:45:43Z</time>
      </trkpt>
      <trkpt lat="43.40609" lon="6.07313">
        <ele>202</ele>
        <time>2015-10-14T14:45:45Z</time>
      </trkpt>
      <trkpt lat="43.40618" lon="6.07327">
        <ele>201.39999389648</ele>
        <time>2015-10-14T14:45:48Z</time>
      </trkpt>
      <trkpt lat="43.4062" lon="6.07333">
        <ele>201.39999389648</ele>
        <time>2015-10-14T14:45:49Z</time>
      </trkpt>
      <trkpt lat="43.40628" lon="6.07342">
        <ele>201.39999389648</ele>
        <time>2015-10-14T14:45:52Z</time>
      </trkpt>
      <trkpt lat="43.40638" lon="6.07331">
        <ele>201</ele>
        <time>2015-10-14T14:45:55Z</time>
      </trkpt>
      <trkpt lat="43.40641" lon="6.07327">
        <ele>200.80000305176</ele>
        <time>2015-10-14T14:45:56Z</time>
      </trkpt>
      <trkpt lat="43.40652" lon="6.07317">
        <ele>200.39999389648</ele>
        <time>2015-10-14T14:45:59Z</time>
      </trkpt>
      <trkpt lat="43.40656" lon="6.07315">
        <ele>200</ele>
        <time>2015-10-14T14:46:00Z</time>
      </trkpt>
      <trkpt lat="43.40661" lon="6.07312">
        <ele>199.80000305176</ele>
        <time>2015-10-14T14:46:01Z</time>
      </trkpt>
      <trkpt lat="43.40693" lon="6.07293">
        <ele>199.19999694824</ele>
        <time>2015-10-14T14:46:08Z</time>
      </trkpt>
      <trkpt lat="43.40717" lon="6.07279">
        <ele>198.80000305176</ele>
        <time>2015-10-14T14:46:13Z</time>
      </trkpt>
      <trkpt lat="43.40728" lon="6.07272">
        <ele>198.39999389648</ele>
        <time>2015-10-14T14:46:15Z</time>
      </trkpt>
      <trkpt lat="43.40751" lon="6.07259">
        <ele>198.19999694824</ele>
        <time>2015-10-14T14:46:19Z</time>
      </trkpt>
      <trkpt lat="43.40757" lon="6.07255">
        <ele>198</ele>
        <time>2015-10-14T14:46:20Z</time>
      </trkpt>
      <trkpt lat="43.4077" lon="6.07248">
        <ele>197.60000610352</ele>
        <time>2015-10-14T14:46:22Z</time>
      </trkpt>
      <trkpt lat="43.40777" lon="6.07243">
        <ele>197.39999389648</ele>
        <time>2015-10-14T14:46:23Z</time>
      </trkpt>
      <trkpt lat="43.40789" lon="6.07232">
        <ele>197.19999694824</ele>
        <time>2015-10-14T14:46:25Z</time>
      </trkpt>
      <trkpt lat="43.40794" lon="6.07226">
        <ele>197.19999694824</ele>
        <time>2015-10-14T14:46:26Z</time>
      </trkpt>
      <trkpt lat="43.40814" lon="6.07201">
        <ele>197.39999389648</ele>
        <time>2015-10-14T14:46:30Z</time>
      </trkpt>
      <trkpt lat="43.40822" lon="6.07188">
        <ele>197</ele>
        <time>2015-10-14T14:46:32Z</time>
      </trkpt>
      <trkpt lat="43.40833" lon="6.07164">
        <ele>197.19999694824</ele>
        <time>2015-10-14T14:46:35Z</time>
      </trkpt>
      <trkpt lat="43.40839" lon="6.07148">
        <ele>197</ele>
        <time>2015-10-14T14:46:37Z</time>
      </trkpt>
      <trkpt lat="43.40841" lon="6.07141">
        <ele>197</ele>
        <time>2015-10-14T14:46:38Z</time>
      </trkpt>
      <trkpt lat="43.40845" lon="6.07117">
        <ele>196.80000305176</ele>
        <time>2015-10-14T14:46:41Z</time>
      </trkpt>
      <trkpt lat="43.40849" lon="6.07071">
        <ele>197</ele>
        <time>2015-10-14T14:46:47Z</time>
      </trkpt>
      <trkpt lat="43.40845" lon="6.07031">
        <ele>197.80000305176</ele>
        <time>2015-10-14T14:46:53Z</time>
      </trkpt>
      <trkpt lat="43.40844" lon="6.07019">
        <ele>197.39999389648</ele>
        <time>2015-10-14T14:46:55Z</time>
      </trkpt>
      <trkpt lat="43.40849" lon="6.0701">
        <ele>196.80000305176</ele>
        <time>2015-10-14T14:46:57Z</time>
      </trkpt>
      <trkpt lat="43.40852" lon="6.07009">
        <ele>196.39999389648</ele>
        <time>2015-10-14T14:46:58Z</time>
      </trkpt>
      <trkpt lat="43.40856" lon="6.07009">
        <ele>196.19999694824</ele>
        <time>2015-10-14T14:46:59Z</time>
      </trkpt>
      <trkpt lat="43.40864" lon="6.07007">
        <ele>196</ele>
        <time>2015-10-14T14:47:01Z</time>
      </trkpt>
      <trkpt lat="43.40894" lon="6.06998">
        <ele>196.19999694824</ele>
        <time>2015-10-14T14:47:08Z</time>
      </trkpt>
      <trkpt lat="43.40907" lon="6.06983">
        <ele>196</ele>
        <time>2015-10-14T14:47:12Z</time>
      </trkpt>
      <trkpt lat="43.40911" lon="6.06958">
        <ele>195.80000305176</ele>
        <time>2015-10-14T14:47:17Z</time>
      </trkpt>
      <trkpt lat="43.40922" lon="6.0695">
        <ele>195.60000610352</ele>
        <time>2015-10-14T14:47:20Z</time>
      </trkpt>
      <trkpt lat="43.40932" lon="6.06949">
        <ele>195.60000610352</ele>
        <time>2015-10-14T14:47:22Z</time>
      </trkpt>
      <trkpt lat="43.40947" lon="6.06945">
        <ele>195.19999694824</ele>
        <time>2015-10-14T14:47:25Z</time>
      </trkpt>
      <trkpt lat="43.40958" lon="6.06943">
        <ele>195.39999389648</ele>
        <time>2015-10-14T14:47:27Z</time>
      </trkpt>
      <trkpt lat="43.40985" lon="6.06932">
        <ele>196.39999389648</ele>
        <time>2015-10-14T14:47:32Z</time>
      </trkpt>
      <trkpt lat="43.40991" lon="6.06929">
        <ele>196.60000610352</ele>
        <time>2015-10-14T14:47:33Z</time>
      </trkpt>
      <trkpt lat="43.41011" lon="6.06917">
        <ele>196.19999694824</ele>
        <time>2015-10-14T14:47:37Z</time>
      </trkpt>
      <trkpt lat="43.41014" lon="6.06912">
        <ele>196.19999694824</ele>
        <time>2015-10-14T14:47:38Z</time>
      </trkpt>
      <trkpt lat="43.41018" lon="6.06893">
        <ele>196.60000610352</ele>
        <time>2015-10-14T14:47:41Z</time>
      </trkpt>
      <trkpt lat="43.41027" lon="6.06883">
        <ele>196.19999694824</ele>
        <time>2015-10-14T14:47:44Z</time>
      </trkpt>
      <trkpt lat="43.41045" lon="6.06875">
        <ele>196.19999694824</ele>
        <time>2015-10-14T14:47:48Z</time>
      </trkpt>
      <trkpt lat="43.41048" lon="6.06874">
        <ele>196.39999389648</ele>
        <time>2015-10-14T14:47:49Z</time>
      </trkpt>
      <trkpt lat="43.41057" lon="6.0687">
        <ele>197.39999389648</ele>
        <time>2015-10-14T14:47:52Z</time>
      </trkpt>
      <trkpt lat="43.41063" lon="6.06866">
        <ele>197.80000305176</ele>
        <time>2015-10-14T14:47:55Z</time>
      </trkpt>
      <trkpt lat="43.41063" lon="6.06856">
        <ele>197</ele>
        <time>2015-10-14T14:47:59Z</time>
      </trkpt>
      <trkpt lat="43.41064" lon="6.06854">
        <ele>196.80000305176</ele>
        <time>2015-10-14T14:48:00Z</time>
      </trkpt>
      <trkpt lat="43.41066" lon="6.06849">
        <ele>196.39999389648</ele>
        <time>2015-10-14T14:48:02Z</time>
      </trkpt>
      <trkpt lat="43.41067" lon="6.06845">
        <ele>196.39999389648</ele>
        <time>2015-10-14T14:48:04Z</time>
      </trkpt>
      <trkpt lat="43.41068" lon="6.06844">
        <ele>195.80000305176</ele>
        <time>2015-10-14T14:48:09Z</time>
      </trkpt>
      <trkpt lat="43.41068" lon="6.06844">
        <ele>196</ele>
        <time>2015-10-14T14:48:16Z</time>
      </trkpt>
      <trkpt lat="43.41068" lon="6.06844">
        <ele>196</ele>
        <time>2015-10-14T14:48:19Z</time>
      </trkpt>
      <trkpt lat="43.4107" lon="6.06839">
        <ele>196.39999389648</ele>
        <time>2015-10-14T14:48:28Z</time>
      </trkpt>
      <trkpt lat="43.41077" lon="6.06822">
        <ele>196.19999694824</ele>
        <time>2015-10-14T14:48:33Z</time>
      </trkpt>
      <trkpt lat="43.41083" lon="6.06794">
        <ele>196.19999694824</ele>
        <time>2015-10-14T14:48:39Z</time>
      </trkpt>
      <trkpt lat="43.41086" lon="6.06761">
        <ele>196.19999694824</ele>
        <time>2015-10-14T14:48:45Z</time>
      </trkpt>
      <trkpt lat="43.41088" lon="6.06756">
        <ele>196.19999694824</ele>
        <time>2015-10-14T14:48:46Z</time>
      </trkpt>
      <trkpt lat="43.41097" lon="6.06744">
        <ele>196.39999389648</ele>
        <time>2015-10-14T14:48:49Z</time>
      </trkpt>
      <trkpt lat="43.411" lon="6.06742">
        <ele>196.39999389648</ele>
        <time>2015-10-14T14:48:50Z</time>
      </trkpt>
      <trkpt lat="43.41128" lon="6.06722">
        <ele>196.60000610352</ele>
        <time>2015-10-14T14:48:58Z</time>
      </trkpt>
      <trkpt lat="43.41151" lon="6.06717">
        <ele>196.60000610352</ele>
        <time>2015-10-14T14:49:03Z</time>
      </trkpt>
      <trkpt lat="43.41161" lon="6.06716">
        <ele>196.60000610352</ele>
        <time>2015-10-14T14:49:05Z</time>
      </trkpt>
      <trkpt lat="43.41165" lon="6.06717">
        <ele>196.60000610352</ele>
        <time>2015-10-14T14:49:06Z</time>
      </trkpt>
      <trkpt lat="43.41174" lon="6.06718">
        <ele>196.80000305176</ele>
        <time>2015-10-14T14:49:08Z</time>
      </trkpt>
      <trkpt lat="43.41182" lon="6.06719">
        <ele>197.19999694824</ele>
        <time>2015-10-14T14:49:10Z</time>
      </trkpt>
      <trkpt lat="43.41191" lon="6.06721">
        <ele>197.19999694824</ele>
        <time>2015-10-14T14:49:12Z</time>
      </trkpt>
      <trkpt lat="43.41211" lon="6.06722">
        <ele>197.39999389648</ele>
        <time>2015-10-14T14:49:18Z</time>
      </trkpt>
      <trkpt lat="43.41229" lon="6.06719">
        <ele>197.19999694824</ele>
        <time>2015-10-14T14:49:23Z</time>
      </trkpt>
      <trkpt lat="43.41241" lon="6.06718">
        <ele>198</ele>
        <time>2015-10-14T14:49:28Z</time>
      </trkpt>
      <trkpt lat="43.41244" lon="6.06716">
        <ele>198.19999694824</ele>
        <time>2015-10-14T14:49:30Z</time>
      </trkpt>
      <trkpt lat="43.41245" lon="6.06716">
        <ele>198.39999389648</ele>
        <time>2015-10-14T14:49:32Z</time>
      </trkpt>
      <trkpt lat="43.41245" lon="6.06715">
        <ele>198.60000610352</ele>
        <time>2015-10-14T14:49:33Z</time>
      </trkpt>
      <trkpt lat="43.41247" lon="6.06715">
        <ele>199</ele>
        <time>2015-10-14T14:49:37Z</time>
      </trkpt>
      <trkpt lat="43.41248" lon="6.06715">
        <ele>198.80000305176</ele>
        <time>2015-10-14T14:49:41Z</time>
      </trkpt>
      <trkpt lat="43.41248" lon="6.06715">
        <ele>198.80000305176</ele>
        <time>2015-10-14T14:49:48Z</time>
      </trkpt>
      <trkpt lat="43.41254" lon="6.0672">
        <ele>198.80000305176</ele>
        <time>2015-10-14T14:49:56Z</time>
      </trkpt>
      <trkpt lat="43.41256" lon="6.06723">
        <ele>198.80000305176</ele>
        <time>2015-10-14T14:49:57Z</time>
      </trkpt>
      <trkpt lat="43.41261" lon="6.06734">
        <ele>199</ele>
        <time>2015-10-14T14:50:00Z</time>
      </trkpt>
      <trkpt lat="43.41265" lon="6.06742">
        <ele>199.39999389648</ele>
        <time>2015-10-14T14:50:02Z</time>
      </trkpt>
      <trkpt lat="43.41273" lon="6.0676">
        <ele>200</ele>
        <time>2015-10-14T14:50:06Z</time>
      </trkpt>
      <trkpt lat="43.41282" lon="6.06775">
        <ele>200.60000610352</ele>
        <time>2015-10-14T14:50:09Z</time>
      </trkpt>
      <trkpt lat="43.41289" lon="6.06784">
        <ele>201</ele>
        <time>2015-10-14T14:50:11Z</time>
      </trkpt>
      <trkpt lat="43.41305" lon="6.06799">
        <ele>201.60000610352</ele>
        <time>2015-10-14T14:50:15Z</time>
      </trkpt>
      <trkpt lat="43.41317" lon="6.06808">
        <ele>202</ele>
        <time>2015-10-14T14:50:18Z</time>
      </trkpt>
      <trkpt lat="43.41349" lon="6.06825">
        <ele>202.39999389648</ele>
        <time>2015-10-14T14:50:26Z</time>
      </trkpt>
      <trkpt lat="43.41361" lon="6.06831">
        <ele>202.60000610352</ele>
        <time>2015-10-14T14:50:29Z</time>
      </trkpt>
      <trkpt lat="43.41385" lon="6.06845">
        <ele>202.60000610352</ele>
        <time>2015-10-14T14:50:35Z</time>
      </trkpt>
      <trkpt lat="43.41407" lon="6.06867">
        <ele>202</ele>
        <time>2015-10-14T14:50:41Z</time>
      </trkpt>
      <trkpt lat="43.41409" lon="6.0687">
        <ele>201.80000305176</ele>
        <time>2015-10-14T14:50:42Z</time>
      </trkpt>
      <trkpt lat="43.41411" lon="6.06873">
        <ele>201.60000610352</ele>
        <time>2015-10-14T14:50:43Z</time>
      </trkpt>
      <trkpt lat="43.41414" lon="6.06879">
        <ele>201.60000610352</ele>
        <time>2015-10-14T14:50:46Z</time>
      </trkpt>
      <trkpt lat="43.41415" lon="6.06881">
        <ele>201.80000305176</ele>
        <time>2015-10-14T14:50:51Z</time>
      </trkpt>
      <trkpt lat="43.41417" lon="6.06888">
        <ele>201.80000305176</ele>
        <time>2015-10-14T14:50:58Z</time>
      </trkpt>
      <trkpt lat="43.41422" lon="6.06909">
        <ele>201.80000305176</ele>
        <time>2015-10-14T14:51:02Z</time>
      </trkpt>
      <trkpt lat="43.41433" lon="6.06921">
        <ele>202</ele>
        <time>2015-10-14T14:51:05Z</time>
      </trkpt>
      <trkpt lat="43.41446" lon="6.06924">
        <ele>202.19999694824</ele>
        <time>2015-10-14T14:51:08Z</time>
      </trkpt>
      <trkpt lat="43.4145" lon="6.06923">
        <ele>202.19999694824</ele>
        <time>2015-10-14T14:51:09Z</time>
      </trkpt>
      <trkpt lat="43.41461" lon="6.06927">
        <ele>202.19999694824</ele>
        <time>2015-10-14T14:51:12Z</time>
      </trkpt>
      <trkpt lat="43.41464" lon="6.06931">
        <ele>202</ele>
        <time>2015-10-14T14:51:13Z</time>
      </trkpt>
      <trkpt lat="43.41477" lon="6.06954">
        <ele>201.60000610352</ele>
        <time>2015-10-14T14:51:18Z</time>
      </trkpt>
      <trkpt lat="43.41482" lon="6.06963">
        <ele>201.39999389648</ele>
        <time>2015-10-14T14:51:20Z</time>
      </trkpt>
      <trkpt lat="43.41491" lon="6.0697">
        <ele>201</ele>
        <time>2015-10-14T14:51:23Z</time>
      </trkpt>
      <trkpt lat="43.41492" lon="6.06969">
        <ele>201</ele>
        <time>2015-10-14T14:51:24Z</time>
      </trkpt>
      <trkpt lat="43.41496" lon="6.06965">
        <ele>201.39999389648</ele>
        <time>2015-10-14T14:51:28Z</time>
      </trkpt>
      <trkpt lat="43.415" lon="6.06966">
        <ele>201.39999389648</ele>
        <time>2015-10-14T14:51:32Z</time>
      </trkpt>
      <trkpt lat="43.41512" lon="6.06971">
        <ele>201.60000610352</ele>
        <time>2015-10-14T14:51:39Z</time>
      </trkpt>
      <trkpt lat="43.41531" lon="6.0697">
        <ele>201.60000610352</ele>
        <time>2015-10-14T14:51:45Z</time>
      </trkpt>
      <trkpt lat="43.4155" lon="6.06967">
        <ele>201.80000305176</ele>
        <time>2015-10-14T14:51:50Z</time>
      </trkpt>
      <trkpt lat="43.41557" lon="6.06965">
        <ele>202</ele>
        <time>2015-10-14T14:51:52Z</time>
      </trkpt>
      <trkpt lat="43.4157" lon="6.06965">
        <ele>202.60000610352</ele>
        <time>2015-10-14T14:51:57Z</time>
      </trkpt>
      <trkpt lat="43.41572" lon="6.0698">
        <ele>202.39999389648</ele>
        <time>2015-10-14T14:52:01Z</time>
      </trkpt>
      <trkpt lat="43.41573" lon="6.07012">
        <ele>202.80000305176</ele>
        <time>2015-10-14T14:52:09Z</time>
      </trkpt>
      <trkpt lat="43.41574" lon="6.07028">
        <ele>202.60000610352</ele>
        <time>2015-10-14T14:52:15Z</time>
      </trkpt>
      <trkpt lat="43.41574" lon="6.07029">
        <ele>202.60000610352</ele>
        <time>2015-10-14T14:52:20Z</time>
      </trkpt>
      <trkpt lat="43.41574" lon="6.07031">
        <ele>202.39999389648</ele>
        <time>2015-10-14T14:52:26Z</time>
      </trkpt>
      <trkpt lat="43.41575" lon="6.07032">
        <ele>202.19999694824</ele>
        <time>2015-10-14T14:52:32Z</time>
      </trkpt>
      <trkpt lat="43.41576" lon="6.07036">
        <ele>201.80000305176</ele>
        <time>2015-10-14T14:52:38Z</time>
      </trkpt>
      <trkpt lat="43.41576" lon="6.07036">
        <ele>201.80000305176</ele>
        <time>2015-10-14T14:52:41Z</time>
      </trkpt>
      <trkpt lat="43.41575" lon="6.07036">
        <ele>202</ele>
        <time>2015-10-14T14:52:45Z</time>
      </trkpt>
    </trkseg>
  </trk>
</gpx>